     2.10           OBSERVATION DATA    G (GPS)             RINEX VERSION / TYPE
teqc 2000Jul20 Karen Wendt 20040525 20:58:56UTC             PGM / RUN BY / DATE
Linux 2.0.36|Pentium II|gcc -static|Linux|486/DX+           COMMENT
teqc 2000Jul20 Karen Wendt 20040525 20:58:56UTC             COMMENT
BIT 2 OF LLI FLAGS DATA COLLECTED UNDER A/S CONDITION       COMMENT
vsta Vista_2_1969_USC&GS_(Reno_Net)                         MARKER NAME
GDH USGS                                                    OBSERVER / AGENCY
LP019992804 ASHTECH Z-XII3 CD00                             REC # / TYPE / VERS
CR619992801 ASH701945B_M NONE                               ANT # / TYPE
 -2440958.0000 -4279794.0000  4039024.0000                  APPROX POSITION XYZ
        1.1803        0.0000        0.0000                  ANTENNA: DELTA H/E/N
     1     1                                                WAVELENGTH FACT L1/2
     5    C1    L1    L2    P1    P2                        # / TYPES OF OBSERV
    30.0000                                                 INTERVAL
                                                            COMMENT
National Earthquake Hazard Reduction Program                COMMENT
Crustal Strain Project                                      COMMENT
345 Middlefield Road, MS/977                                COMMENT
U.S. Geological Survey, Menlo Park, California 94025        COMMENT
Contact: kwendt@usgs.gov (Ph: 650-329-4866)                 COMMENT
Antenna height is vertical to base of antenna               COMMENT
                                                            COMMENT
SNR is mapped to RINEX snr flag value [1-9]                 COMMENT
L1: 1 -> 1; 90 -> 5; 210 -> 9                               COMMENT
L2: 1 -> 1; 150 -> 5; 250 -> 9                              COMMENT
  2004     5    22     0     0   30.0000000     GPS         TIME OF FIRST OBS
                                                            END OF HEADER
 04  5 22  0  0 30.0000000  0  6G20G11G14G25G 1G30
  22508689.311   -16694301.07749 -12994474.59746  22508688.849    22508692.550
  21506304.954   -22465894.42449 -17481857.35147  21506304.835    21506307.555
  22882854.672   -13665495.40949 -10331426.69946  22882854.340    22882857.515
  20650993.021   -24283926.80949 -18369140.88448  20650993.045    20650995.991
  23319095.288   -10085105.68549  -7839223.10146  23319094.946    23319101.025
  24098985.949    -3884302.24449  -2863943.82245  24098986.289    24098991.561
 04  5 22  0  1  0.0000000  0  6G20G11G14G25G 1G30
  22492691.356   -16778370.60049 -13059983.29046  22492690.904    22492694.579
  21510849.681   -22442011.81849 -17463247.54547  21510849.559    21510852.271
  22897728.857   -13587331.20649 -10270519.56846  22897728.562    22897731.708
  20651902.065   -24279149.83349 -18365418.55448  20651902.086    20651905.037
  23305034.051   -10158997.69549  -7896801.17546  23305033.741    23305039.753
  24098061.745    -3889158.52949  -2867727.91845  24098062.238    24098067.453
 04  5 22  0  1 30.0000000  0  6G20G11G14G25G 1G30
  22476719.125   -16862305.15849 -13125386.80346  22476718.622    22476722.271
  21515495.386   -22417598.46149 -17444224.16947  21515495.282    21515497.993
  22912616.213   -13509097.72049 -10209558.43046  22912615.886    22912619.063
  20652911.048   -24273847.49449 -18361286.85148  20652911.047    20652914.020
  23291005.168   -10232719.75349  -7954246.82246  23291004.833    23291010.843
  24097239.394    -3893479.96849  -2871095.24545  24097239.828    24097245.088
 04  5 22  0  2  0.0000000  0  6G20G11G14G25G 1G30
  22460773.084   -16946101.96849 -13190682.98746  22460772.601    22460776.207
  21520242.030   -22392654.59949 -17424787.41147  21520241.937    21520244.653
  22927516.696   -13430795.14649 -10148543.49246  22927516.361    22927519.548
  20654020.043   -24268019.57949 -18356745.60948  20654020.049    20654023.046
  23277008.736   -10306270.98749  -8011559.37046  23277008.442    23277014.359
  24096518.987    -3897264.75049  -2874044.41845  24096519.497    24096524.813
 04  5 22  0  2 30.0000000  0  6G20G11G14G25G 1G30
  22444853.790   -17029758.17049 -13255869.60546  22444853.302    22444856.911
  21525089.721   -22367180.02449 -17404937.11747  21525089.620    21525092.348
  22942430.415   -13352423.01549 -10087474.34446  22942430.146    22942433.297
  20655229.137   -24261665.61749 -18351794.45948  20655229.152    20655232.144
  23263045.054   -10379650.15849  -8068737.84546  23263044.760    23263050.664
  24095901.266    -3900511.10049  -2876574.01345  24095901.694    24095907.016
 04  5 22  0  3  0.0000000  0  6G20G11G14G25G 1G30
  22428961.556   -17113272.24749 -13320945.47346  22428961.083    22428964.684
  21530038.144   -22341175.99249 -17384674.25547  21530038.035    21530040.768
  22957357.150   -13273982.63549 -10026351.98846  22957356.902    22957360.009
  20656538.139   -24254786.72249 -18346434.27248  20656538.156    20656541.161
  23249114.052   -10452857.55549  -8125782.47846  23249113.764    23249119.606
  24095386.094    -3903218.54049  -2878683.70345  24095386.511    24095391.838
 04  5 22  0  3 30.0000000  0  6G20G11G14G25G 1G30
  22413096.944   -17196641.13849 -13385908.20946  22413096.466    22413100.088
  21535087.328   -22314642.42649 -17363998.77247  21535087.199    21535089.964
  22972296.973   -13195473.59749  -9965176.14046  22972296.670    22972299.786
  20657947.148   -24247382.33049 -18340664.60848  20657947.151    20657950.133
  23235216.025   -10525891.64549  -8182692.06646  23235215.725    23235221.543
  24094973.913    -3905384.71749  -2880371.60645  24094974.316    24094979.469
 04  5 22  0  4  0.0000000  0  6G20G11G14G25G 1G30
  22397259.344   -17279867.97249 -13450760.25846  22397258.871    22397262.503
  21540236.126   -22287585.29949 -17342915.31647  21540235.995    21540238.767
  22987248.802   -13116901.40349  -9903951.09846  22987248.499    22987251.637
  20659455.131   -24239457.91549 -18334489.72748  20659455.127    20659458.109
  23221350.142   -10598756.96949  -8239470.15646  23221349.844    23221355.669
  24094663.913    -3907013.75049  -2881640.97045  24094664.281    24094669.472
 04  5 22  0  4 30.0000000  0  6G20G11G14G25G 1G30
  22381449.679   -17362948.16949 -13515498.04146  22381449.225    22381452.822
  21545484.885   -22260002.96149 -17321422.61447  21545484.771    21545487.553
  23002212.943   -13038264.29549  -9842675.45646  23002212.640    23002215.775
  20661062.334   -24231011.77149 -18327908.31148  20661062.334    20661065.318
  23207516.966   -10671450.66749  -8296114.51246  23207516.651    23207522.417
  24094456.819    -3908102.28949  -2882489.15445  24094457.284    24094462.316
 04  5 22  0  5  0.0000000  0  6G20G11G14G25G 1G30
  22365668.778   -17445877.37349 -13580118.16246  22365668.310    22365671.908
  21550833.843   -22231894.04849 -17299519.59047  21550833.728    21550836.503
  23017189.840   -12959560.38049  -9781347.77146  23017189.492    23017192.702
  20662769.267   -24222041.80749 -18320918.72248  20662769.272    20662772.260
  23193716.918   -10743969.95549  -8352622.95746  23193716.624    23193722.387
  24094353.264    -3908646.59049  -2882913.25645  24094353.776    24094358.788
 04  5 22  0  5 30.0000000  0  6G20G11G14G25G 1G30
  22349916.271   -17528657.21449 -13644621.89746  22349915.776    22349919.396
  21556282.082   -22203263.26149 -17277209.90247  21556281.986    21556284.765
  23032178.533   -12880793.99349  -9719971.41546  23032178.195    23032181.461
  20664575.073   -24212552.15549 -18313524.17848  20664575.072    20664578.067
  23179949.477   -10816318.11549  -8408998.06146  23179949.165    23179954.974
  24094352.718    -3908649.67849  -2882915.62945  24094353.227    24094358.134
 04  5 22  0  6  0.0000000  0  6G20G11G14G25G 1G30
  22334193.096   -17611282.89849 -13709005.51246  22334192.580    22334196.225
  21561829.999   -22174108.86949 -17254492.22147  21561829.906    21561832.683
  23047179.603   -12801963.05749  -9658544.75746  23047179.299    23047182.531
  20666480.095   -24202541.06049 -18305723.32748  20666480.094    20666483.101
  23166215.133   -10888491.90349  -8465237.29546  23166214.853    23166220.681
  24094455.710    -3908108.14949  -2882493.63545  24094456.195    24094461.280
 04  5 22  0  6 30.0000000  0  6G20G11G14G25G 1G30
  22318498.707   -17693757.31349 -13773271.25246  22318498.175    22318501.832
  21567476.451   -22144436.70249 -17231371.07147  21567476.327    21567479.133
  23062191.945   -12723072.90149  -9597071.93546  23062191.656    23062194.875
  20668483.308   -24192014.07849 -18297520.47748  20668483.297    20668486.315
  23152513.099   -10960495.92549  -8521344.25146  23152512.849    23152518.655
  24094661.744    -3907025.48149  -2881649.99345  24094662.232    24094667.129
 04  5 22  0  7  0.0000000  0  6G20G11G14G25G 1G30
  22302834.150   -17776074.87749 -13837414.77246  22302833.630    22302837.291
  21573221.872   -22114244.46849 -17207844.67047  21573221.749    21573224.571
  23077216.088   -12644120.51649  -9535550.63646  23077215.845    23077219.076
  20670585.251   -24180968.12349 -18288913.23248  20670585.242    20670588.267
  23138844.167   -11032326.24549  -8577315.84946  23138843.972    23138849.733
  24094971.574    -3905397.45549  -2880381.36245  24094972.118    24094976.816
 04  5 22  0  7 30.0000000  0  6G20G11G14G25G 1G30
  22287199.492   -17858235.29249 -13901435.83546  22287198.973    22287202.629
  21579065.670   -22083535.05049 -17183915.27547  21579065.554    21579068.391
  23092251.667   -12565108.27149  -9473982.67246  23092251.396    23092254.596
  20672785.525   -24169405.54249 -18279903.42948  20672785.528    20672788.545
  23125208.031   -11103984.23049  -8633153.18046  23125207.822    23125213.562
  24095385.003    -3903224.97549  -2878688.50445  24095385.462    24095390.279
 04  5 22  0  8  0.0000000  0  6G20G11G14G25G 1G30
  22271595.224   -17940236.13149 -13965332.55746  22271594.696    22271598.349
  21585007.836   -22052308.86549 -17159583.20347  21585007.740    21585010.568
  23107298.568   -12486036.42849  -9412368.28646  23107298.280    23107301.561
  20675084.090   -24157326.48049 -18270491.16448  20675084.097    20675087.106
  23111604.902   -11175469.03749  -8688855.56546  23111604.639    23111610.316
  24095902.156    -3900506.84149  -2876570.46645  24095902.694    24095907.389
 04  5 22  0  8 30.0000000  0  6G20G11G14G25G 1G30
  22256021.782   -18022075.05549 -14029103.10746  22256021.267    22256024.888
  21591048.162   -22020566.74149 -17134849.10447  21591048.058    21591050.892
  23122356.818   -12406905.12749  -9350707.54246  23122356.545    23122359.749
  20677480.798   -24144731.69349 -18260677.04448  20677480.818    20677483.818
  23098034.842   -11246780.20149  -8744422.64746  23098034.544    23098040.167
  24096523.419    -3897241.98149  -2874026.39945  24096523.914    24096528.609
 04  5 22  0  9  0.0000000  0  6G20G11G14G25G 1G30
  22240479.136   -18103752.01549 -14092747.45246  22240478.617    22240482.264
  21597186.073   -21988312.05849 -17109715.59847  21597185.959    21597188.773
  23137425.839   -12327717.00949  -9289002.56246  23137425.583    23137428.770
  20679975.104   -24131624.05149 -18250463.28948  20679975.121    20679978.139
  23084497.429   -11317919.43049  -8799855.76146  23084497.125    23084502.743
  24097248.455    -3893431.73749  -2871057.35345  24097248.902    24097253.713
 04  5 22  0  9 30.0000000  0  6G20G11G14G25G 1G30
  22224967.695   -18185265.11649 -14156264.12646  22224967.175    22224970.807
  21603421.232   -21955545.99249 -17084183.62147  21603421.123    21603423.933
  23152505.526   -12248472.88349  -9227253.93246  23152505.294    23152508.506
  20682566.838   -24118004.30249 -18239850.49948  20682566.867    20682569.879
  23070992.810   -11388886.39249  -8855154.64646  23070992.485    23070998.097
  24098077.223    -3889075.46149  -2867662.85645  24098077.639    24098082.718
 04  5 22  0 10  0.0000000  0  6G20G11G14G25G 1G30
  22209488.314   -18266609.70349 -14219649.49146  22209487.802    22209491.426
  21609753.965   -21922267.39849 -17058252.27147  21609753.839    21609756.688
  23167596.300   -12169170.61349  -9165460.00546  23167596.007    23167599.220
  20685256.401   -24103870.56449 -18228837.19748  20685256.405    20685259.442
  23057521.410   -11459678.48049  -8910317.26246  23057521.100    23057526.723
  24099010.574    -3884170.03549  -2863840.44145  24099010.952    24099016.279
 04  5 22  0 10 30.0000000  0  6G20G11G14G25G 1G30
  22194041.087   -18347785.35949 -14282903.21147  22194040.586    22194044.201
  21616183.726   -21888478.69849 -17031923.42947  21616183.598    21616186.459
  23182697.667   -12089812.18849  -9103622.30746  23182697.373    23182700.683
  20688043.329   -24089225.20849 -18217425.22448  20688043.326    20688046.338
  23044083.110   -11530296.61749  -8965344.32146  23044082.843    23044088.464
  24100048.495    -3878716.19549  -2859590.67445  24100048.863    24100054.066
 04  5 22  0 11  0.0000000  0  6G20G11G14G25G 1G30
  22178625.792   -18428793.25449 -14346026.21547  22178625.267    22178628.882
  21622709.662   -21854184.71449 -17005200.86547  21622709.530    21622712.382
  23197808.997   -12010401.70349  -9041744.04846  23197808.721    23197812.028
  20690926.845   -24074072.26349 -18205617.73448  20690926.859    20690929.831
  23030677.326   -11600744.06149  -9020238.38246  23030677.074    23030682.690
  24101190.229    -3872716.60449  -2854915.64245  24101190.593    24101195.768
 04  5 22  0 11 30.0000000  0  6G20G11G14G25G 1G30
  22163243.642   -18509626.96149 -14409013.49847  22163243.126    22163246.730
  21629332.327   -21819382.58149 -16978082.34347  21629332.205    21629335.060
  23212930.950   -11930935.33449  -8979822.24646  23212930.702    23212934.099
  20693907.582   -24058408.38749 -18193412.11548  20693907.596    20693910.589
  23017305.010   -11671016.02649  -9074995.70146  23017304.751    23017310.360
  24102436.680    -3866166.41749  -2849811.55945  24102436.981    24102442.262
 04  5 22  0 12  0.0000000  0  6G20G11G14G25G 1G30
  22147894.343   -18590287.80649 -14471866.07647  22147893.852    22147897.454
  21636050.788   -21784076.85649 -16950571.40747  21636050.664    21636053.496
  23228062.819   -11851417.12649  -8917860.04946  23228062.596    23228065.872
  20696984.638   -24042238.34349 -18180812.08148  20696984.656    20696987.658
  23003965.469   -11741115.81049  -9129618.84846  23003965.167    23003970.723
  24103787.360    -3859068.46049  -2844280.67045  24103787.715    24103792.873
 04  5 22  0 12 30.0000000  0  6G20G11G14G25G 1G30
  22132578.644   -18670772.06049 -14534581.04347  22132578.165    22132581.813
  21642865.293   -21748266.63649 -16922667.36147  21642865.176    21642867.995
  23243204.769   -11771845.71449  -8855856.40846  23243204.474    23243207.897
  20700158.256   -24025560.81349 -18167816.60648  20700158.269    20700161.268
  22990659.110   -11811041.16249  -9184106.07146  22990658.798    22990664.349
  24105242.673    -3851420.44549  -2838321.17545  24105242.958    24105248.243
 04  5 22  0 13  0.0000000  0  6G20G11G14G25G 1G30
  22117296.795   -18751078.55449 -14597157.49947  22117296.324    22117300.008
  21649775.244   -21711954.95449 -16894372.56947  21649775.123    21649777.889
  23258356.519   -11692222.72249  -8793812.55446  23258356.275    23258359.705
  20703428.142   -24008377.52249 -18154427.02348  20703428.145    20703431.141
  22977385.789   -11880792.80649  -9238457.93346  22977385.467    22977391.016
  24106802.585    -3843222.68949  -2831933.31145  24106802.907    24106808.243
 04  5 22  0 13 30.0000000  0  6G20G11G14G25G 1G30
  22102048.739   -18831207.30649 -14659595.45347  22102048.280    22102051.989
  21656779.947   -21675145.00349 -16865689.51247  21656779.833    21656782.607
  23273517.625   -11612550.63849  -8731730.46046  23273517.330    23273520.920
  20706793.621   -23990691.56949 -18140645.76348  20706793.645    20706796.643
  22964145.163   -11950372.63649  -9292675.91946  22964144.814    22964150.387
  24108466.824    -3834476.94349  -2825118.43045  24108467.176    24108472.437
 04  5 22  0 14  0.0000000  0  6G20G11G14G25G 1G30
  22086835.805   -18911151.64549 -14721889.71747  22086835.362    22086839.055
  21663880.087   -21637833.56849 -16836615.69947  21663879.958    21663882.747
  23288688.815   -11532825.56849  -8669607.08246  23288688.536    23288692.127
  20710255.399   -23972499.80549 -18126470.36148  20710255.438    20710258.418
  22950938.091   -12019775.84849  -9346756.28746  22950937.766    22950943.346
  24110236.389    -3825178.03849  -2817872.54345  24110236.651    24110242.058
 04  5 22  0 14 30.0000000  0  6G20G11G14G25G 1G30
  22071657.544   -18990913.94249 -14784042.12247  22071657.080    22071660.763
  21671074.626   -21600026.18649 -16807155.42947  21671074.507    21671077.283
  23303869.282   -11453052.22849  -8607446.08446  23303868.937    23303872.584
  20713812.547   -23953806.96349 -18111904.51248  20713812.556    20713815.574
  22937763.869   -12089006.52849  -9400702.19246  22937763.527    22937769.134
  24112110.439    -3815329.89549  -2810198.66945  24112110.643    24112115.986
 04  5 22  0 15  0.0000000  0  6G20G11G14G25G 1G30
  22056514.252   -19070492.40449 -14846051.28647  22056513.773    22056517.471
  21678363.160   -21561724.84549 -16777310.25447  21678363.041    21678365.824
  23319058.656   -11373231.54849  -8545248.20246  23319058.371    23319062.001
  20717464.759   -23934614.45149 -18096949.30548  20717464.778    20717467.802
  22924622.451   -12158064.70149  -9454513.68746  22924622.135    22924627.755
  24114089.027    -3804932.45449  -2802096.75845  24114089.253    24114094.555
 04  5 22  0 15 30.0000000  0  6G20G11G14G25G 1G30
  22041407.015   -19149881.45149 -14907912.84747  22041406.502    22041410.208
  21685746.029   -21522927.63249 -16747078.68647  21685745.911    21685748.725
  23334257.686   -11293360.61349  -8483011.15446  23334257.300    23334260.978
  20721212.458   -23914920.12749 -18081603.07648  20721212.473    20721215.505
  22911514.571   -12226946.70549  -9508187.90846  22911514.289    22911519.854
  24116172.847    -3793981.91949  -2793563.87445  24116173.111    24116178.431
 04  5 22  0 16  0.0000000  0  6G20G11G14G25G 1G30
  22026335.394   -19229083.05349 -14969628.35347  22026334.906    22026338.567
  21693222.198   -21483640.20849 -16716465.13747  21693222.065    21693224.922
  23349465.347   -11213444.08949  -8420738.59246  23349465.052    23349468.674
  20725054.638   -23894729.29749 -18065869.96048  20725054.663    20725057.683
  22898439.549   -12295656.36549  -9561727.82946  22898439.221    22898444.809
  24118361.145    -3782482.13649  -2784603.00745  24118361.485    24118366.700
 04  5 22  0 16 30.0000000  0  6G20G11G14G25G 1G30
  22011300.402   -19308092.25449 -15031193.93447  22011299.874    22011303.561
  21700791.950   -21443861.07049 -16685468.43447  21700791.834    21700794.685
  23364682.141   -11133479.33749  -8358428.44546  23364681.847    23364685.387
  20728991.727   -23874039.68449 -18049748.18148  20728991.748    20728994.767
  22885397.905   -12364190.38149  -9615130.88946  22885397.579    22885403.145
  24120654.659    -3770429.67149  -2775211.47345  24120654.888    24120660.250
 04  5 22  0 17  0.0000000  0  6G20G11G14G25G 1G30
  21996301.948   -19386909.59049 -15092610.00647  21996301.447    21996305.081
  21708454.476   -21403594.24149 -16654091.71147  21708454.350    21708457.209
  23379907.505   -11053469.68949  -8296083.30246  23379907.247    23379910.814
  20733023.018   -23852855.05149 -18033240.67448  20733023.067    20733026.059
  22872389.203   -12432551.23649  -9668399.01546  22872388.845    22872394.439
  24123052.888    -3757826.93749  -2765391.15245  24123053.038    24123058.464
 04  5 22  0 17 30.0000000  0  6G20G11G14G25G 1G30
  21981340.563   -19465532.10049 -15153874.27647  21981340.055    21981343.682
  21716209.667   -21362840.49149 -16622335.57247  21716209.541    21716212.438
  23395141.497   -10973415.05249  -8233703.13046  23395141.151    23395144.810
  20737148.479   -23831175.49849 -18016347.51448  20737148.531    20737151.522
  22859413.582   -12500738.23849  -9721531.68146  22859413.248    22859418.812
  24125555.930    -3744673.04249  -2755141.38345  24125556.224    24125561.615
 04  5 22  0 18  0.0000000  0  6G20G11G14G25G 1G30
  21966416.751   -19543956.95449 -15214984.52747  21966416.237    21966419.860
  21724057.322   -21321600.61849 -16590200.63147  21724057.198    21724060.132
  23410384.100   -10893314.90949  -8171287.48146  23410383.709    23410387.341
  20741368.079   -23809001.41249 -17999069.01048  20741368.130    20741371.096
  22846471.311   -12568750.26249  -9774528.00046  22846470.988    22846476.490
  24128164.174    -3730966.86049  -2744461.24145  24128164.539    24128169.697
 04  5 22  0 18 30.0000000  0  6G20G11G14G25G 1G30
  21951530.735   -19622183.32849 -15275940.11547  21951530.242    21951533.846
  21731996.984   -21279877.45349 -16557689.09647  21731996.862    21731999.792
  23425634.948   -10813171.07549  -8108837.78046  23425634.719    23425638.286
  20745681.289   -23786335.28949 -17981407.09448  20745681.324    20745684.292
  22833562.170   -12636588.25249  -9827388.69646  22833561.844    22833567.273
  24130877.358    -3716709.22749  -2733351.39445  24130877.671    24130882.848
 04  5 22  0 19  0.0000000  0  6G20G11G14G25G 1G30
  21936682.713   -19700209.94649 -15336740.04847  21936682.201    21936685.836
  21740028.145   -21237673.56849 -16524802.97947  21740028.022    21740030.985
  23440893.918   -10732984.87549  -8046355.09146  23440893.627    23440897.392
  20750087.685   -23763179.50749 -17963363.62948  20750087.723    20750090.693
  22820685.949   -12704252.96749  -9880114.37746  22820685.648    22820691.039
  24133695.269    -3701900.82949  -2721812.38445  24133695.620    24133700.813
 04  5 22  0 19 30.0000000  0  6G20G11G14G25G 1G30
  21921873.525   -19778032.60949 -15397381.06747  21921873.043    21921876.661
  21748150.848   -21194988.55049 -16491541.95747  21748150.729    21748153.713
  23456161.243   -10652754.75949  -7983838.16746  23456161.008    23456164.673
  20754587.457   -23739533.12749 -17944937.88348  20754587.478    20754590.450
  22807843.131   -12771742.09449  -9932703.25546  22807842.849    22807848.205
  24136618.357    -3686539.65749  -2709842.64545  24136618.557    24136623.832
 04  5 22  0 20  0.0000000  0  6G20G11G14G25G 1G30
  21907103.262   -19855650.86149 -15457862.79247  21907102.778    21907106.368
  21756364.415   -21151825.88749 -16457908.73947  21756364.302    21756367.310
  23471436.460   -10572482.87549  -7921288.67946  23471436.183    23471439.787
  20759180.011   -23715398.94049 -17926132.02148  20759180.049    20759183.025
  22795033.455   -12839057.14949  -9985156.49346  22795033.187    22795038.476
  24139646.331    -3670627.33149  -2697443.42245  24139646.650    24139651.703
 04  5 22  0 20 30.0000000  0  6G20G11G14G25G 1G30
  21892372.355   -19933062.16949 -15518183.27247  21892371.856    21892375.439
  21764668.738   -21108186.58149 -16423904.11547  21764668.603    21764671.643
  23486719.676   -10492169.18649  -7858706.62546  23486719.403    23486723.050
  20763865.392   -23690777.17449 -17906946.23348  20763865.425    20763868.375
  22782257.085   -12906197.27249 -10037473.41346  22782256.842    22782262.056
  24142779.454    -3654162.85649  -2684613.95345  24142779.772    24142784.806
 04  5 22  0 21  0.0000000  0  6G20G11G14G25G 1G30
  21877681.117   -20010265.12149 -15578341.38747  21877680.617    21877684.187
  21773063.345   -21064072.62849 -16389529.63647  21773063.232    21773066.277
  23502010.609   -10411814.95049  -7796092.99545  23502010.366    23502013.987
  20768643.090   -23665670.27049 -17887382.41248  20768643.098    20768646.076
  22769513.890   -12973163.09749 -10089654.51346  22769513.604    22769518.766
  24146017.379    -3637147.28649  -2671355.08545  24146017.580    24146022.797
 04  5 22  0 21 30.0000000  0  6G20G11G14G25G 1G30
  21863029.832   -20087258.11149 -15638335.90447  21863029.340    21863032.902
  21781547.756   -21019486.84849 -16354787.50447  21781547.638    21781550.693
  23517309.003   -10331421.21549  -7733448.53245  23517308.856    23517312.334
  20773512.809   -23640079.77549 -17867441.77248  20773512.826    20773515.803
  22756803.771   -13039955.07649 -10141700.16146  22756803.443    22756808.597
  24149360.210    -3619580.81349  -2657666.92745  24149360.486    24149365.581
 04  5 22  0 22  0.0000000  0  6G20G11G14G25G 1G30
  21848418.934   -20164038.79549 -15698164.98747  21848418.425    21848421.987
  21790121.668   -20974430.70049 -16319678.84847  21790121.563    21790124.610
  23532614.965   -10250987.96249  -7670773.32945  23532614.751    23532618.259
  20778474.374   -23614006.56549 -17847124.98448  20778474.392    20778477.367
  22744126.713   -13106572.85349 -10193610.05946  22744126.389    22744131.567
  24152807.871    -3601463.39649  -2643549.45545  24152808.208    24152813.226
 04  5 22  0 22 30.0000000  0  6G20G11G14G25G 1G30
  21833848.951   -20240604.66449 -15757826.68047  21833848.441    21833851.988
  21798784.882   -20928905.35049 -16284204.58347  21798784.756    21798787.810
  23547928.408   -10170515.60549  -7608067.62645  23547928.199    23547931.729
  20783527.582   -23587451.68349 -17826432.87048  20783527.603    20783530.575
  22731482.978   -13173015.95649 -10245383.84546  22731482.642    22731487.827
  24156360.372    -3582794.64149  -2629002.38845  24156360.640    24156365.772
 04  5 22  0 23  0.0000000  0  6G20G11G14G25G 1G30
  21819320.117   -20316954.03649 -15817319.67847  21819319.599    21819323.140
  21807536.912   -20882913.22349 -16248366.60347  21807536.786    21807539.872
  23563249.072   -10090004.94749  -7545332.11045  23563248.823    23563252.460
  20788672.128   -23560416.91449 -17805366.82248  20788672.142    20788675.125
  22718872.386   -13239284.64149 -10297021.72746  22718872.082    22718877.280
  24160017.697    -3563574.98749  -2614026.05745  24160018.018    24160023.248
 04  5 22  0 23 30.0000000  0  6G20G11G14G25G 1G30
  21804833.157   -20393083.26049 -15876641.12947  21804832.659    21804836.233
  21816377.749   -20836454.51449 -16212165.04147  21816377.626    21816380.709
  23578577.198   -10009455.02649  -7482565.98945  23578577.021    23578580.662
  20793908.033   -23532902.22149 -17783926.80248  20793908.037    20793911.012
  22706295.355   -13305377.23749 -10348522.39146  22706295.049    22706300.242
  24163780.153    -3543803.21449  -2598619.50445  24163780.413    24163785.690
 04  5 22  0 24  0.0000000  0  6G20G11G14G25G 1G30
  21790387.786   -20468994.02449 -15935792.35847  21790387.299    21790390.899
  21825306.319   -20789534.56849 -16175604.08547  21825306.205    21825309.300
  23593912.033    -9928869.85549  -7419772.42545  23593911.843    23593915.490
  20799234.294   -23504912.51449 -17762116.64548  20799234.300    20799237.286
  22693751.137   -13371297.23749 -10399888.57646  22693750.833    22693756.024
  24167646.953    -3523482.82249  -2582785.43345  24167647.426    24167652.607
 04  5 22  0 24 30.0000000  0  6G20G11G14G25G 1G30
  21775984.737   -20544682.37349 -15994770.27447  21775984.259    21775987.849
  21834322.623   -20742153.85049 -16138684.08447  21834322.503    21834325.588
  23609253.798    -9848248.48749  -7356950.59745  23609253.684    23609257.140
  20804650.934   -23476447.70049 -17739936.27048  20804650.930    20804653.959
  22681240.066   -13437043.00849 -10451119.00046  22681239.785    22681244.935
  24171618.477    -3502612.49049  -2566522.86845  24171618.766    24171624.196
 04  5 22  0 25  0.0000000  0  6G20G11G14G25G 1G30
  21761624.476   -20620146.03549 -16053573.10547  21761624.001    21761627.599
  21843426.307   -20694313.83449 -16101406.19047  21843426.180    21843429.261
  23624602.478    -9767590.86949  -7294100.56745  23624602.229    23624605.879
  20810157.871   -23447508.59849 -17717386.32248  20810157.878    20810160.892
  22668762.266   -13502614.03549 -10502213.25146  22668761.973    22668767.115
  24175694.681    -3481191.87249  -2549831.50145  24175695.194    24175700.309
 04  5 22  0 25 30.0000000  0  6G20G11G14G25G 1G30
  21747307.491   -20695382.11149 -16112198.60047  21747307.003    21747310.591
  21852617.185   -20646015.54949 -16063771.20247  21852617.058    21852620.164
  23639957.976    -9686896.90849  -7231222.22045  23639957.858    23639961.504
  20815754.893   -23418095.93949 -17694467.36648  20815754.893    20815757.934
  22656317.848   -13568009.54049 -10553170.73246  22656317.598    22656322.745
  24179875.757    -3459220.53049  -2532711.01745  24179876.230    24179881.362
 04  5 22  0 26  0.0000000  0  6G20G11G14G25G 1G30
  21733033.931   -20770390.13649 -16170646.38947  21733033.454    21733037.029
  21861894.530   -20597262.94549 -16025782.19947  21861894.425    21861897.517
  23655320.115    -9606168.55149  -7168317.05445  23655320.002    23655323.575
  20821441.428   -23388213.03049 -17671181.98048  20821441.436    20821444.463
  22643906.537   -13633231.05949 -10603992.64846  22643906.310    22643911.421
  24184161.281    -3436700.29949  -2515162.81545  24184161.663    24184166.770
 04  5 22  0 26 30.0000000  0  6G20G11G14G25G 1G30
  21718804.336   -20845167.12649 -16228914.15547  21718803.875    21718807.425
  21871258.127   -20548056.79249 -15987439.77647  21871258.043    21871261.185
  23670688.856    -9525405.60449  -7105384.94345  23670688.624    23670692.328
  20827217.363   -23357860.27449 -17647530.48748  20827217.357    20827220.402
  22631528.574   -13698277.60249 -10654678.21646  22631528.309    22631533.448
  24188551.380    -3413630.78249  -2497186.60445  24188551.814    24188556.618
 04  5 22  0 27  0.0000000  0  6G20G11G14G25G 1G30
  21704618.807   -20919712.52549 -16287001.46247  21704618.345    21704621.875
  21880707.401   -20498400.68749 -15948746.74247  21880707.301    21880710.472
  23686063.799    -9444609.94549  -7042427.33945  23686063.570    23686067.244
  20833082.148   -23327040.64649 -17623515.19348  20833082.147    20833085.182
  22619183.610   -13763150.74449 -10705228.66346  22619183.345    22619188.486
  24193045.706    -3390013.56749  -2478783.60145  24193046.052    24193050.825
 04  5 22  0 27 30.0000000  0  6G20G11G14G25G 1G30
  21690477.937   -20994023.37149 -16344905.99647  21690477.445    21690480.967
  21890242.127   -20448295.63349 -15909703.88147  21890242.001    21890245.179
  23701445.200    -9363781.26349  -6979443.99245  23701444.901    23701448.566
  20839035.670   -23295754.64549 -17599136.49748  20839035.676    20839038.723
  22606871.818   -13827849.40049 -10755643.15646  22606871.559    22606876.716
  24197644.245    -3365848.29249  -2459953.53545  24197644.589    24197649.540
 04  5 22  0 28  0.0000000  0  6G20G11G14G25G 1G30
  21676382.212   -21068096.71949 -16402625.47147  21676381.733    21676385.253
  21899861.969   -20397743.05549 -15870312.30047  21899861.861    21899865.030
  23716832.751    -9282919.26249  -6916434.69845  23716832.388    23716836.081
  20845077.734   -23264003.31449 -17574395.20348  20845077.743    20845080.772
  22594593.347   -13892372.89349 -10805921.14746  22594593.089    22594598.252
  24202347.066    -3341134.29149  -2440695.90045  24202347.504    24202352.439
 04  5 22  0 28 30.0000000  0  6G20G11G14G25G 1G30
  21662331.795   -21141932.07549 -16460159.48747  21662331.300    21662334.833
  21909566.408   -20346746.24749 -15830574.56547  21909566.283    21909569.438
  23732226.312    -9202025.88649  -6853400.94945  23732226.022    23732229.685
  20851207.810   -23231789.52949 -17549293.55548  20851207.819    20851210.853
  22582347.965   -13956722.56349 -10856063.69446  22582347.706    22582352.843
  24207153.945    -3315873.76249  -2421012.38745  24207154.305    24207159.463
 04  5 22  0 29  0.0000000  0  6G20G11G14G25G 1G30
  21648327.078   -21215527.09549 -16517506.23547  21648326.595    21648330.123
  21919354.952   -20295307.13449 -15790492.18347  21919354.816    21919357.982
  23747625.810    -9121101.38249  -6790342.93945  23747625.531    23747629.232
  20857425.680   -23199114.47749 -17523832.48048  20857425.695    20857428.710
  22570135.712   -14020898.12649 -10906070.57446  22570135.450    22570140.634
  24212064.856    -3290066.76549  -2400903.05745  24212065.306    24212070.258
 04  5 22  0 29 30.0000000  0  6G20G11G14G25G 1G30
  21634368.911   -21288877.63249 -16574662.47647  21634368.428    21634371.960
  21929227.606   -20243426.05149 -15750065.40747  21929227.482    21929230.657
  23763031.459    -9040144.18849  -6727259.47145  23763031.136    23763034.952
  20863731.335   -23165977.93549 -17498011.80548  20863731.349    20863734.367
  22557957.007   -14084897.58549 -10955940.22946  22557956.732    22557961.887
  24217080.078    -3263711.80149  -2380366.72645  24217080.574    24217085.406
 04  5 22  0 30  0.0000000  0  6G20G11G14G25G 1G30
  21620457.296   -21361983.62849 -16631628.16947  21620456.829    21620460.340
  21939183.565   -20191107.33749 -15709297.62447  21939183.429    21939186.622
  23778442.878    -8959157.08649  -6664152.70545  23778442.526    23778446.418
  20870124.123   -23132383.62749 -17471834.42848  20870124.144    20870127.149
  22545811.388   -14148723.18749 -11005674.41546  22545811.100    22545816.225
  24222199.075    -3236811.43949  -2359405.41645  24222199.490    24222204.527
 04  5 22  0 30 30.0000000  0  6G20G11G14G25G 1G30
  21606592.705   -21434842.58549 -16688401.36147  21606592.227    21606595.722
  21949222.583   -20138352.02849 -15668189.63147  21949222.470    21949225.696
  23793859.910    -8878139.98149  -6601022.54045  23793859.643    23793863.516
  20876603.898   -23098332.28749 -17445300.92248  20876603.918    20876606.928
  22533698.897   -14212374.25549 -11055272.59446  22533698.635    22533703.782
  24227421.852    -3209365.52249  -2338019.02345  24227422.315    24227427.305
 04  5 22  0 31  0.0000000  0  6G20G11G14G25G 1G30
  21592775.317   -21507453.40249 -16744981.19647  21592774.833    21592778.309
  21959344.068   -20085163.56049 -15626744.12147  21959343.932    21959347.173
  23809282.467    -8797094.15349  -6537870.02345  23809282.226    23809286.067
  20883170.105   -23063826.75149 -17418413.50248  20883170.112    20883173.122
  22521619.493   -14275851.72949 -11104735.50646  22521619.218    22521624.419
  24232748.182    -3181375.73849  -2316208.81845  24232748.607    24232753.517
 04  5 22  0 31 30.0000000  0  6G20G11G14G25G 1G30
  21579006.015   -21579811.52349 -16801364.12647  21579005.545    21579009.005
  21969547.984   -20031541.65149 -15584960.85747  21969547.868    21969551.116
  23824710.814    -8716017.70349  -6474693.61845  23824710.636    23824714.404
  20889822.820   -23028866.41849 -17391171.69248  20889822.847    20889825.836
  22509573.609   -14339153.14049 -11154061.23546  22509573.337    22509578.541
  24238178.388    -3152840.03149  -2293973.22545  24238178.898    24238183.727
 04  5 22  0 32  0.0000000  0  6G20G11G14G25G 1G30
  21565284.713   -21651917.48749 -16857550.56647  21565284.224    21565287.672
  21979833.555   -19977490.96649 -15542843.47747  21979833.438    21979836.675
  23840144.412    -8634913.86149  -6411495.88845  23840144.211    23840148.016
  20896561.351   -22993455.35449 -17363578.66548  20896561.382    20896564.351
  22497560.686   -14402281.33149 -11203251.98446  22497560.383    22497565.570
  24243711.815    -3123761.78549  -2271314.89245  24243712.237    24243717.000
 04  5 22  0 32 30.0000000  0  6G20G11G14G25G 1G30
  21551612.095   -21723767.43049 -16913537.51447  21551611.610    21551615.082
  21990200.574   -19923012.09549 -15500392.44947  21990200.461    21990203.700
  23855583.413    -8553781.41349  -6348275.85545  23855583.243    23855587.004
  20903385.644   -22957593.49349 -17335634.36848  20903385.657    20903388.618
  22485581.061   -14465234.50649 -11252306.35146  22485580.767    22485585.968
  24249348.706    -3094140.19649  -2248233.10745  24249349.055    24249353.746
 04  5 22  0 33  0.0000000  0  6G20G11G14G25G 1G30
  21537988.452   -21795360.01349 -16969323.92647  21537987.971    21537991.461
  22000648.574   -19868107.86649 -15457609.97447  22000648.468    22000651.692
  23871027.697    -8472621.36449  -6285034.31545  23871027.441    23871031.387
  20910295.326   -22921283.09949 -17307340.56448  20910295.354    20910298.297
  22473634.567   -14528013.28949 -11301224.82646  22473634.297    22473639.441
  24255088.771    -3063975.99649  -2224728.54845  24255089.060    24255093.765
 04  5 22  0 33 30.0000000  0  6G20G11G14G25G 1G30
  21524414.044   -21866693.94549 -17024908.79047  21524413.559    21524417.056
  22011176.917   -19812781.23349 -15414498.34547  22011176.789    22011180.044
  23886476.973    -8391435.03649  -6221772.30145  23886476.756    23886480.676
  20917289.785   -22884526.86049 -17278699.34648  20917289.812    20917292.802
  22461721.156   -14590618.48149 -11350008.04146  22461720.884    22461726.015
  24260931.793    -3033270.97349  -2200802.50045  24260932.275    24260936.671
 04  5 22  0 34  0.0000000  0  6G20G11G14G25G 1G30
  21510889.618   -21937765.22249 -17080288.99047  21510889.141    21510892.627
  22021785.520   -19757032.62949 -15371057.91947  22021785.395    22021788.684
  23901931.574    -8310221.20249  -6158488.84645  23901931.347    23901935.234
  20924369.129   -22847324.59849 -17249710.57948  20924369.161    20924372.150
  22449841.115   -14653048.38549 -11398654.66246  22449840.819    22449845.938
  24266878.027    -3002023.75749  -2176454.03245  24266878.240    24266882.919
 04  5 22  0 34 30.0000000  0  6G20G11G14G25G 1G30
  21497415.092   -22008574.26549 -17135464.84847  21497414.600    21497418.088
  22032473.462   -19700867.00649 -15327292.53847  22032473.346    22032476.682
  23917390.944    -8228982.30149  -6095185.85145  23917390.616    23917394.510
  20931532.601   -22809680.26549 -17220377.34048  20931532.631    20931535.631
  22437993.999   -14715305.21949 -11447166.43046  22437993.690    22437998.803
  24272926.783    -2970237.66849  -2151685.65545  24272926.912    24272931.537
 04  5 22  0 35  0.0000000  0  6G20G11G14G25G 1G30
  21483991.317   -22079116.56049 -17190432.85647  21483990.833    21483994.317
  22043240.838   -19644284.34849 -15283202.20447  22043240.712    22043244.077
  23932855.265    -8147716.72049  -6031862.10545  23932854.980    23932858.928
  20938780.320   -22771593.34149 -17190699.22548  20938780.364    20938783.346
  22426180.266   -14777386.68949 -11495541.55546  22426179.949    22426185.046
  24279078.327    -2937910.97749  -2126496.05345  24279078.383    24279083.058
 04  5 22  0 35 30.0000000  0  7G16G20G11G14G25G 1G30
                   -238225.61549   -166240.04143
  21470618.703   -22149390.06449 -17245191.41247  21470618.210    21470621.692
  22054087.179   -19587286.61349 -15238788.42947  22054087.053    22054090.411
  23948324.535    -8066425.17849  -5968518.11445  23948324.270    23948328.323
  20946111.821   -22733066.02949 -17160677.95048  20946111.839    20946114.845
  22414399.828   -14839293.12249 -11543780.28346  22414399.554    22414404.617
  24285332.595    -2905044.77549  -2100886.05445  24285332.783    24285337.191
 04  5 22  0 36  0.0000000  0  7G16G20G11G14G25G 1G30
                   -332897.11749   -240009.88743                  24511244.939
  21457297.256   -22219394.67549 -17299740.44347  21457296.753    21457300.247
  22065011.699   -19529878.07249 -15194054.54747  22065011.590    22065014.965
  23963798.390    -7985109.77049  -5905155.51045  23963798.128    23963802.141
  20953526.463   -22694101.74549 -17130316.18148  20953526.486    20953529.517
  22402652.372   -14901026.35549 -11591884.05246  22402652.077    22402657.119
  24291689.081    -2871641.65949  -2074857.59845  24291689.343    24291693.502
 04  5 22  0 36 30.0000000  0  7G16G20G11G14G25G 1G30
  24493214.459     -427586.25049   -313793.58645  24493214.101    24493220.144
  21444027.575   -22289127.15249 -17354077.42347  21444027.049    21444030.559
  22076014.114   -19472060.19349 -15149001.69647  22076014.023    22076017.408
  23979276.947    -7903769.98149  -5841773.91545  23979276.692    23979280.552
  20961024.124   -22654701.19249 -17099614.46548  20961024.145    20961027.194
  22390938.046   -14962585.39449 -11639852.08346  22390937.747    22390942.777
  24298147.633    -2837701.41249  -2048410.68045  24298147.942    24298152.093
 04  5 22  0 37  0.0000000  0  7G16G20G11G14G25G 1G30
  24475193.915     -522290.61449   -387589.03345  24475192.047    24475198.759
  21430809.968   -22358585.99149 -17408201.17647  21430809.449    21430812.940
  22087093.871   -19413835.89149 -15103632.15247  22087093.763    22087097.167
  23994759.839    -7822406.64849  -5778374.00045  23994759.553    23994763.654
  20968604.391   -22614866.61549 -17068574.54348  20968604.417    20968607.458
  22379256.755   -15023970.83149 -11687684.84946  22379256.453    22379261.475
  24304708.159    -2803225.26549  -2021546.12845  24304708.492    24304712.654
 04  5 22  0 37 30.0000000  0  7G16G20G11G14G25G 1G30
  24457169.180     -617007.08449   -461393.89045  24457167.505    24457174.847
  21417644.908   -22427768.73149 -17462109.78947  21417644.383    21417647.898
  22098250.657   -19355206.85649 -15057947.23247  22098250.539    22098253.944
  24010247.262    -7741020.23349  -5714956.07145  24010246.891    24010250.983
  20976267.026   -22574599.25449 -17037197.39348  20976267.043    20976270.090
  22367608.546   -15085182.48149 -11735382.20046  22367608.257    22367613.262
  24311370.548    -2768213.96949  -1994264.59745  24311370.978    24311375.311
 04  5 22  0 38  0.0000000  0  7G16G20G11G14G25G 1G30
  24439143.001     -711733.07749   -535206.22845  24439141.874    24439149.115
  21404532.638   -22496673.82649 -17515802.05247  21404532.141    21404535.658
  22109483.887   -19296176.11049 -15011949.28547  22109483.763    22109487.187
  24025738.849    -7659611.42949  -5651520.69945  24025738.566    24025742.601
  20984011.501   -22533901.83949 -17005485.12848  20984011.521    20984014.550
  22355993.243   -15146220.91349 -11782944.57246  22355992.928    22355997.955
  24318134.528    -2732668.84549  -1966567.11945  24318134.896    24318139.695
 04  5 22  0 38 30.0000000  0  7G16G20G11G14G25G 1G30
  24421116.218     -806463.22849   -609021.80145  24421115.334    24421122.399
  21391474.150   -22565296.47449 -17569274.23347  21391473.681    21391477.225
  22120793.588   -19236743.44849 -14965638.17047  22120793.463    22120796.856
  24041235.167    -7578178.08349  -5588066.19645  24041234.989    24041238.837
  20991837.943   -22492773.56249 -16973437.13447  20991837.963    20991841.016
  22344411.492   -15207083.28249 -11830369.76246  22344411.176    22344416.168
  24325000.487    -2696588.16449  -1938452.33445  24325000.862    24325005.756
 04  5 22  0 39  0.0000000  0  7G16G20G11G14G25G 1G30
  24403089.064     -901195.91649   -682839.33345  24403088.403    24403095.191
  21378469.580   -22633635.89849 -17622525.71347  21378469.104    21378472.665
  22132179.066   -19176912.68449 -14919016.83247  22132178.921    22132182.309
  24056735.860    -7496721.81749  -5524593.83245  24056735.648    24056739.422
  20999745.834   -22451217.30749 -16941055.64647  20999745.858    20999748.926
  22332862.985   -15267771.01249 -11877658.86546  22332862.661    22332867.607
  24331967.946    -2659974.03349  -1909921.84345  24331968.278    24331973.204
 04  5 22  0 39 30.0000000  0  7G16G20G11G14G25G 1G30
  24385061.518     -995930.28049   -756658.21445  24385061.094    24385067.762
  21365518.982   -22701691.77949 -17675556.25047  21365518.499    21365522.069
  22143639.477   -19116687.75749 -14872088.36547  22143639.338    22143642.747
  24072240.391    -7415244.98249  -5461105.44545  24072240.075    24072244.050
  21007734.510   -22409236.76349 -16908343.54247  21007734.508    21007737.575
  22321347.385   -15328286.13649 -11924813.47346  22321347.013    22321351.928
  24339036.397    -2622829.62549  -1880978.09145  24339036.766    24339041.463
 04  5 22  0 40  0.0000000  0  6G16G20G11G14G25G 1
  24367034.511    -1090662.08949   -830475.07045  24367034.074    24367040.877
  21352622.892   -22769461.07749 -17728363.48047  21352622.407    21352625.962
  22155174.660   -19056070.27149 -14824854.01347  22155174.522    22155177.920
  24087748.898    -7333746.87849  -5397600.49945  24087748.698    24087752.720
  21015803.682   -22366832.94049 -16875301.61347  21015803.692    21015806.771
  22309864.736   -15388627.51249 -11971832.69246  22309864.392    22309869.308
 04  5 22  0 40 30.0000000  0  6G16G20G11G14G25G 1
  24349008.477    -1185388.80049   -904287.97345  24349008.083    24349014.944
  21339781.815   -22836941.50149 -17780945.61447  21339781.327    21339784.863
  22166784.034   -18995062.75049 -14777315.73147  22166783.885    22166787.278
  24103261.454    -7252228.09449  -5334079.43345  24103261.258    24103265.295
  21023953.062   -22324007.65249 -16841931.27047  21023953.080    21023956.134
  22298415.131   -15448795.37749 -12018716.71046  22298414.828    22298419.727
 04  5 22  0 41  0.0000000  0  6G16G20G11G14G25G 1
  24330984.445    -1280105.46549   -978093.05245  24330984.010    24330990.843
  21326996.422   -22904129.10749 -17833299.57747  21326995.948    21326999.443
  22178467.500   -18933665.86249 -14729474.04447  22178467.346    22178470.719
  24118778.199    -7170687.01049  -5270540.98245  24118778.028    24118782.108
  21032182.619   -22280760.99849 -16808232.58947  21032182.643    21032185.682
  22286998.862   -15508787.80149 -12065464.02346  22286998.612    22287003.497
 04  5 22  0 41 30.0000000  0  6G16G20G11G14G25G 1
  24312962.562    -1374810.49649  -1051889.06045  24312962.187    24312968.931
  21314266.883   -22971023.32249 -17885424.92547  21314266.391    21314269.883
  22190224.389   -18871883.12949 -14681331.69747  22190224.248    22190227.625
  24134298.889    -7089125.31949  -5206986.49245  24134298.652    24134302.907
  21040491.792   -22237096.17649 -16774208.05647  21040491.801    21040494.839
  22275615.751   -15568606.21549 -12112075.74346  22275615.502    22275620.384
 04  5 22  0 42  0.0000000  0  6G16G20G11G14G25G 1
  24294943.456    -1469500.72949  -1125673.55245  24294943.081    24294949.764
  21301593.595   -23037621.71049 -17937319.76147  21301593.114    21301596.585
  22202054.295   -18809716.56549 -14632890.26047  22202054.158    22202057.535
  24149823.528    -7007543.29949  -5143416.15745  24149823.245    24149827.528
  21048880.250   -22193014.57849 -16739858.76547  21048880.263    21048883.307
  22264265.827   -15628250.37849 -12158551.68347  22264265.570    22264270.447
 04  5 22  0 42 30.0000000  0  6G16G20G11G14G25G 1
  24276927.505    -1564174.39449  -1199445.09445  24276927.124    24276933.879
  21288976.844   -23103923.32349 -17988983.34647  21288976.368    21288979.792
  22213956.524   -18747169.87349 -14584152.62947  22213956.408    22213959.797
  24165351.664    -6925942.53649  -5079831.19545  24165351.414    24165355.710
  21057347.453   -22148519.20449 -16705187.05447  21057347.462    21057350.507
  22252948.868   -15687721.40649 -12204892.71547  22252948.584    22252953.456
 04  5 22  0 43  0.0000000  0  6G16G20G11G14G25G 1
  24258915.668    -1658826.12249  -1273199.58345  24258915.412    24258922.221
  21276417.440   -23169923.46749 -18040412.02847  21276416.953    21276420.358
  22225931.051   -18684243.49449 -14535119.14147  22225930.918    22225934.326
  24180883.908    -6844320.72849  -5016229.85645  24180883.663    24180887.987
  21065893.475   -22103609.55849 -16670192.53347  21065893.495    21065896.533
  22241665.300   -15747016.97749 -12251097.03147  22241665.006    22241669.878
 04  5 22  0 43 30.0000000  0  6G16G20G11G14G25G 1
  24240908.305    -1753455.25249  -1346936.43945  24240908.029    24240914.750
  21263915.364   -23235622.19149 -18091605.82847  21263914.868    21263918.280
  22237976.993   -18620941.79249 -14485793.19346  22237976.889    22237980.278
  24196419.628    -6762680.41349  -4952614.07345  24196419.278    24196423.575
  21074517.550   -22058289.79549 -16634878.44147  21074517.565    21074520.583
  22230414.682   -15806139.32249 -12297166.35747  22230414.365    22230419.247
 04  5 22  0 44  0.0000000  0  6G16G20G11G14G25G 1
  24222905.872    -1848058.50549  -1420653.13245  24222905.492    24222912.204
  21251471.080   -23301017.24949 -18142563.01047  21251470.593    21251474.010
  22250093.933   -18557267.19049 -14436176.67746  22250093.830    22250097.198
  24211958.740    -6681022.19149  -4888984.33445  24211958.450    24211962.668
  21083219.284   -22012561.99949 -16599246.40247  21083219.291    21083222.318
  22219197.006   -15865088.50949 -12343100.76047  22219196.680    22219201.570
 04  5 22  0 44 30.0000000  0  6G16G20G11G14G25G 1
  24204908.992    -1942632.04349  -1494346.67745  24204908.631    24204915.282
  21239085.168   -23366105.57549 -18193281.17447  21239084.688    21239088.077
  22262281.508   -18493221.36349 -14386270.89546  22262281.403    22262284.766
  24227501.485    -6599345.25349  -4825340.01845  24227501.270    24227505.312
  21091998.561   -21966426.69549 -16563296.82047  21091998.583    21092001.613
  22208012.487   -15923863.37349 -12388899.32647  22208012.173    22208017.090
 04  5 22  0 45  0.0000000  0  6G16G20G11G14G25G 1
  24186918.014    -2037174.62649  -1568016.10245  24186917.815    24186924.238
  21226757.733   -23430886.67349 -18243759.94047  21226757.272    21226760.641
  22274538.977   -18428808.01749 -14336078.72646  22274538.878    22274542.244
  24243047.258    -6517651.55949  -4761682.64245  24243046.968    24243051.116
  21100854.639   -21919887.56349 -16527032.57047  21100854.662    21100857.702
  22196860.798   -15982465.69749 -12434563.43847  22196860.493    22196865.392
 04  5 22  0 45 30.0000000  0  6G16G20G11G14G25G 1
  24168933.993    -2131680.80449  -1641657.13745  24168933.815    24168940.156
  21214489.601   -23495356.02849 -18293995.79647  21214489.125    21214492.478
  22286866.277   -18364027.75149 -14285600.65346  22286866.174    22286869.550
  24258596.641    -6435939.01949  -4698010.59145  24258596.383    24258600.536
  21109787.739   -21872943.94449 -16490453.14247  21109787.758    21109790.816
  22185742.395   -16040893.12649 -12480091.27547  22185742.080    22185746.969
 04  5 22  0 46  0.0000000  0  6G16G20G11G14G25G 1
  24150957.373    -2226148.30449  -1715268.06145  24150957.211    24150963.498
  21202281.126   -23559511.98249 -18343987.43747  21202280.657    21202284.001
  22299262.843   -18298883.64449 -14234839.05546  22299262.732    22299266.142
  24274149.407    -6354208.55049  -4634324.58145  24274149.076    24274153.336
  21118797.265   -21825598.53749 -16453560.62047  21118797.281    21118800.349
  22174657.139   -16099146.33649 -12525483.35547  22174656.825    22174661.720
 04  5 22  0 46 30.0000000  0  6G16G20G11G14G25G 1
  24132988.548    -2320574.99449  -1788847.18145  24132988.410    24132994.637
  21190132.503   -23623353.44449 -18393734.02447  21190132.037    21190135.399
  22311728.023   -18233378.87149 -14183796.43046  22311727.892    22311731.308
  24289705.358    -6272461.39149  -4570625.54145  24289705.017    24289709.320
  21127882.731   -21777854.10849 -16416357.18247  21127882.751    21127885.832
  22163604.866   -16157226.16849 -12570740.34347  22163604.566    22163609.427
 04  5 22  0 47  0.0000000  0  6G16G20G11G14G25G 1
  24115027.876    -2414958.71849  -1862392.80345  24115027.654    24115033.799
  21178043.985   -23686878.98749 -18443234.43847  21178043.516    21178046.879
  22324261.183   -18167516.95149 -14132475.50946  22324261.055    22324264.482
  24305264.238    -6190698.89749  -4506914.58645  24305263.906    24305268.358
  21137043.518   -21729713.84249 -16378845.30047  21137043.549    21137046.652
  22152585.427   -16215133.65949 -12615863.03747  22152585.125    22152589.984
 04  5 22  0 47 30.0000000  0  6G16G20G11G14G25G 1
  24097076.386    -2509293.88249  -1935900.62045  24097076.191    24097082.445
  21166016.470   -23750084.05049 -18492485.12847  21166016.012    21166019.356
  22336862.259   -18101297.91149 -14080876.30646  22336862.152    22336865.568
  24320826.569    -6108918.82749  -4443189.89245  24320826.202    24320830.620
  21146279.772   -21681176.95049 -16341024.36047  21146279.805    21146282.920
  22141599.255   -16272866.24449 -12660849.44347  22141598.970    22141603.785
 04  5 22  0 48  0.0000000  0  6G16G20G11G14G25G 1
  24079134.318    -2603579.83949  -2009370.07445  24079134.103    24079140.363
  21154049.941   -23812968.58849 -18541486.05347  21154049.456    21154052.811
  22349530.441   -18034726.44349 -14029002.48746  22349530.332    22349533.747
  24336391.734    -6027123.59649  -4379453.43745  24336391.377    24336395.775
  21155590.821   -21632247.22749 -16302897.31347  21155590.829    21155593.949
  22130645.958   -16330426.16749 -12705701.30147  22130645.673    22130650.469
 04  5 22  0 48 30.0000000  0  6G16G20G11G14G25G 1
  24061202.290    -2697812.68649  -2082798.15145  24061202.067    24061208.273
  21142144.983   -23875529.59549 -18590234.87547  21142144.498    21142147.856
  22362265.247   -17967804.60749 -13976855.65246  22362265.146    22362268.613
  24351959.896    -5945312.67349  -4315704.74345  24351959.579    24351964.086
  21164976.337   -21582926.14849 -16264465.31947  21164976.352    21164979.463
  22119725.678   -16387812.74649 -12750418.08247  22119725.373    22119730.181
 04  5 22  0 49  0.0000000  0  6G16G20G11G14G25G 1
  24043280.972    -2791989.28549  -2156182.40045  24043280.664    24043286.851
  21130301.992   -23937764.76749 -18638729.79547  21130301.507    21130304.880
  22375066.370   -17900534.51449 -13924437.45646  22375066.254    22375069.745
  24367531.056    -5863486.14649  -4251943.86245  24367530.909    24367535.210
  21174435.999   -21533215.21649 -16225729.53847  21174436.023    21174439.124
  22108838.393   -16445025.59849 -12794999.49347  22108838.110    22108842.917
 04  5 22  0 49 30.0000000  0  6G16G20G11G14G25G 1
  24025370.997    -2886106.28349  -2229520.18445  24025370.692    24025376.944
  21118521.499   -23999671.56649 -18686968.84547  21118521.012    21118524.391
  22387933.326   -17832918.31949 -13871749.57746  22387933.206    22387936.747
  24383105.216    -5781643.92849  -4188170.76445  24383105.018    24383109.273
  21183969.481   -21483116.48749 -16186691.58347  21183969.503    21183972.614
  22097984.196   -16502064.59549 -12839445.43447  22097983.914    22097988.701
 04  5 22  0 50  0.0000000  0  6G16G20G11G14G25G 1
  24007472.878    -2980160.95549  -2302809.43245  24007472.583    24007478.920
  21106803.845   -24061248.21749 -18734950.63847  21106803.364    21106806.756
  22400865.624   -17764959.00849 -13818794.33446  22400865.503    22400869.058
  24398682.152    -5699786.80349  -4124386.07345  24398682.014    24398686.223
  21193576.369   -21432632.02149 -16147353.05247  21193576.382    21193579.496
  22087163.016   -16558930.18549 -12883756.24647  22087162.735    22087167.533
 04  5 22  0 50 30.0000000  0  6G16G20G11G14G25G 1
  23989586.935    -3074151.71849  -2376048.87445  23989586.695    23989592.919
  21095149.145   -24122494.04649 -18782674.64647  21095148.673    21095152.074
  22413862.388   -17696660.67249 -13765574.91146  22413862.266    22413865.822
  24414261.700    -5617916.51849  -4060591.10445  24414261.508    24414265.698
  21203255.999   -21381765.33249 -16107716.68647  21203256.011    21203259.147
  22076374.640   -16615623.59849 -12927932.90047  22076374.324    22076379.102
 04  5 22  0 51  0.0000000  0  6G16G20G11G14G25G 1
  23971714.076    -3168073.57749  -2449234.62445  23971713.898    23971720.015
  21083558.203   -24183404.84949 -18830137.59847  21083557.727    21083561.102
  22426923.577   -17628024.07949 -13712091.90946  22426923.434    22426927.009
  24429843.952    -5536031.09049  -3996784.34245  24429843.741    24429848.212
  21213008.302   -21330516.56349 -16067782.59647  21213008.330    21213011.472
  22065619.329   -16672142.89749 -12971973.87447  22065619.020    22065623.775
 04  5 22  0 51 30.0000000  0  6G16G20G11G14G25G 1
  23953854.828    -3261924.21549  -2522364.86645  23953854.562    23953860.702
  21072031.299   -24243979.30249 -18877338.45747  21072030.826    21072034.199
  22440048.433   -17559052.57449 -13658347.94046  22440048.297    22440051.890
  24445428.887    -5454131.69249  -3932966.70645  24445428.732    24445433.114
  21222832.889   -21278888.21149 -16027552.72647  21222832.908    21222836.041
  22054897.033   -16728488.88449 -13015879.79947  22054896.713    22054901.457
 04  5 22  0 52  0.0000000  0  6G16G20G11G14G25G 1
  23936009.583    -3355701.14849  -2595437.66945  23936009.326    23936015.411
  21060568.672   -24304215.81849 -18924275.98847  21060568.192    21060571.544
  22453236.469   -17489749.18949 -13604345.36046  22453236.357    22453239.932
  24461016.312    -5372219.17649  -3869138.87645  24461016.041    24461020.747
  21232729.205   -21226882.82049 -15987029.05847  21232729.217    21232732.348
  22044207.570   -16784662.04949 -13059651.06947  22044207.293    22044211.996
 04  5 22  0 52 30.0000000  0  6G16G20G11G14G25G 1
  23918179.232    -3449399.75149  -2668449.44745  23918178.959    23918185.047
  21049171.098   -24364110.40849 -18970947.08647  21049170.622    21049173.961
  22466487.503   -17420114.95249 -13550084.97546  22466487.364    22466490.932
  24476606.555    -5290292.09149  -3805299.65745  24476606.368    24476611.045
  21242697.178   -21174500.79449 -15946211.90847  21242697.187    21242700.321
  22033551.314   -16840660.79749 -13103286.42347  22033551.050    22033555.732
 04  5 22  0 53  0.0000000  0  6G16G20G11G14G25G 1
  23900364.082    -3543018.04249  -2741398.64545  23900363.853    23900369.991
  21037838.757   -24423662.29449 -19017351.14347  21037838.278    21037841.603
  22479800.743   -17350153.95049 -13495569.96846  22479800.568    22479804.155
  24492199.335    -5208352.02349  -3741450.30845  24492199.064    24492203.679
  21252736.192   -21121745.37849 -15905103.80747  21252736.197    21252739.367
  22022928.043   -16896486.55649 -13146786.97947  22022927.754    22022932.440
 04  5 22  0 53 30.0000000  0  6G16G20G11G14G25G 1
  23882564.566    -3636554.46949  -2814284.06345  23882564.415    23882570.504
  21026571.755   -24482870.68349 -19063487.54047  21026571.288    21026574.588
  22493175.349   -17279869.84349 -13440803.18746  22493175.189    22493178.834
  24507794.260    -5126400.59949  -3677592.13345  24507793.937    24507798.670
  21262845.643   -21068619.98149 -15863707.40947  21262845.658    21262848.800
  22012337.361   -16952140.67649 -13190153.79347  22012337.086    22012341.793
 04  5 22  0 54  0.0000000  0  6G16G20G11G14G25G 1
  23864781.636    -3730003.89049  -2887101.66645  23864781.436    23864787.482
  21015370.944   -24541731.32749 -19109352.96747  21015370.462    21015373.794
  22506611.343   -17209263.36749 -13385785.21646  22506611.207    22506614.861
  24523391.665    -5044435.77049  -3613723.49345  24523391.418    24523396.090
  21273025.459   -21015124.59049 -15822022.70147  21273025.501    21273028.641
  22001779.767   -17007621.00049 -13233385.18147  22001779.505    22001784.175
 04  5 22  0 54 30.0000000  0  6G16G20G11G14G25G 1
  23847015.808    -3823363.43849  -2959849.27645  23847015.715    23847021.613
  21004236.686   -24600242.11549 -19154945.77647  21004236.210    21004239.551
  22520108.174   -17138337.28549 -13330518.20546  22520108.054    22520111.742
  24538991.467    -4962458.07549  -3549844.90145  24538991.429    24538995.957
  21283275.401   -20961261.00149 -15780051.08547  21283275.425    21283278.579
  21991255.219   -17062927.72549 -13276481.29647  21991254.941    21991259.616
 04  5 22  0 55  0.0000000  0  6G16G20G11G14G25G 1
  23829267.660    -3916630.25449  -3032524.59945  23829267.471    23829273.433
  20993169.395   -24658401.13649 -19200264.48447  20993168.912    20993172.242
  22533665.269   -17067094.44649 -13275004.36446  22533665.158    22533668.853
  24554593.559    -4880468.05649  -3485956.68545  24554593.488    24554598.374
  21293594.841   -20907031.89449 -15737794.65047  21293594.871    21293598.040
  21980763.641   -17118061.19949 -13319442.41147  21980763.364    21980768.036
 04  5 22  0 55 30.0000000  0  6G16G20G11G14G25G 1
  23811537.381    -4009802.71649  -3105126.42645  23811537.246    23811543.183
  20982169.103   -24716207.87249 -19245308.68747  20982168.637    20982171.971
  22547281.855   -16995539.17349 -13219247.08446  22547281.712    22547285.411
  24570197.972    -4798467.49349  -3422060.17745  24570197.816    24570202.286
  21303983.278   -20852440.46049 -15695255.88347  21303983.309    21303986.458
  21970304.739   -17173022.92049 -13362269.69747  21970304.465    21970309.129
 04  5 22  0 56  0.0000000  0  6G16G20G11G14G25G 1
  23793826.258    -4102875.07949  -3177650.25845  23793826.037    23793831.992
  20971236.813   -24773657.48049 -19290074.60747  20971236.335    20971239.658
  22560957.889   -16923671.41649 -13163246.29646  22560957.764    22560961.462
  24585804.683    -4716453.77949  -3358153.45545  24585804.452    24585809.146
  21314440.724   -20797486.15049 -15652434.35547  21314440.740    21314443.907
  21959879.039   -17227810.18949 -13404961.04247  21959878.762    21959883.443
 04  5 22  0 56 30.0000000  0  6G16G20G11G14G25G 1
  23776134.277    -4195846.54349  -3250095.46545  23776134.085    23776139.952
  20960372.431   -24830750.17549 -19334562.41347  20960371.966    20960375.265
  22574692.426   -16851496.11649 -13107005.85946  22574692.286    22574695.971
  24601413.370    -4634429.53449  -3294238.53745  24601413.167    24601417.904
  21324966.344   -20742173.68549 -15609333.74347  21324966.373    21324969.540
  21949486.083   -17282425.47749 -13447518.38247  21949485.807    21949490.463
 04  5 22  0 57  0.0000000  0  6G16G20G11G14G25G 1
  23758462.304    -4288713.12549  -3322458.93045  23758462.070    23758467.895
  20949576.602   -24887482.57149 -19378769.46647  20949576.130    20949579.419
  22588485.194   -16779014.90149 -13050527.05146  22588485.067    22588488.779
  24617024.257    -4552393.71649  -3230314.61945  24617024.119    24617028.831
  21335559.984   -20686503.75949 -15565954.59247  21335560.009    21335563.177
  21939126.108   -17336867.54949 -13489940.74947  21939125.809    21939130.464
 04  5 22  0 57 30.0000000  0  6G16G20G11G14G25G 1
  23740810.811    -4381471.93749  -3394738.41345  23740810.549    23740816.317
  20938849.684   -24943852.82049 -19422694.32747  20938849.216    20938852.484
  22602335.638   -16706230.69149 -12993812.14046  22602335.519    22602339.227
  24632637.402    -4470346.82749  -3166382.07045  24632636.911    24632641.849
  21346221.172   -20630478.75849 -15522298.75847  21346221.199    21346224.390
  21928799.009   -17391136.63749 -13532228.32247  21928798.709    21928803.323
 04  5 22  0 58  0.0000000  0  6G16G20G11G14G25G 1
  23723180.364    -4474120.16249  -3466931.72445  23723180.074    23723185.831
  20928191.991   -24999859.36549 -19466335.78447  20928191.525    20928194.783
  22616243.085   -16633146.74949 -12936863.66846  22616242.951    22616246.691
  24648252.514    -4388289.62349  -3102441.46045  24648252.010    24648256.995
  21356949.523   -20574101.02149 -15478368.06647  21356949.531    21356952.731
  21918504.778   -17445233.15849 -13574381.42547  21918504.455    21918509.082
 04  5 22  0 58 30.0000000  0  6G16G20G11G14G25G 1
  23705571.460    -4566655.03749  -3539036.71745  23705571.255    23705577.023
  20917603.901   -25055500.03549 -19509692.14547  20917603.434    20917606.697
  22630207.087   -16559765.94949 -12879683.89246  22630206.944    22630210.646
  24663869.504    -4306222.50449  -3038493.11845  24663869.108    24663873.886
  21367744.525   -20517372.91349 -15434164.36047  21367744.538    21367747.744
  21908243.302   -17499157.31749 -13616400.22147  21908242.989    21908247.647
 04  5 22  0 59  0.0000000  0  6G16G20G11G14G25G 1
  23687985.091    -4659071.96049  -3611049.79345  23687984.919    23687990.606
  20907086.164   -25110771.05449 -19552760.46847  20907085.706    20907088.960
  22644227.305   -16486089.34249 -12822273.61846  22644227.148    22644230.896
  24679488.552    -4224144.15249  -2974536.02745  24679488.156    24679493.130
  21378606.113   -20460294.97049 -15389688.05447  21378606.129    21378609.344
  21898014.934   -17552907.62449 -13658283.55247  21898014.640    21898019.285
 04  5 22  0 59 30.0000000  0  6G16G20G11G14G25G 1
  23670421.376    -4751369.65649  -3682969.97545  23670421.149    23670426.834
  20896638.752   -25165672.54749 -19595540.84847  20896638.308    20896641.517
  22658302.868   -16412121.80649 -12764636.65046  22658302.723    22658306.492
  24695109.315    -4142056.72449  -2910571.87845  24695108.902    24695113.811
  21389533.524   -20402871.01349 -15344942.12947  21389533.534    21389536.750
  21887819.251   -17606486.07949 -13700032.96547  21887818.928    21887823.599
 04  5 22  1  0  0.0000000  0  6G16G20G11G14G25G 1
  23652881.361    -4843542.89649  -3754793.18145  23652881.062    23652886.747
  20886262.528   -25220199.94349 -19638029.72047  20886262.062    20886265.296
  22672433.721   -16337863.63549 -12706773.19246  22672433.620    22672437.424
  24710732.138    -4059958.28449  -2846599.13345  24710731.895    24710736.634
  21400526.846   -20345100.72449 -15299926.33147  21400526.863    21400530.069
  21877656.743   -17659890.42349 -13741646.71247  21877656.434    21877661.107
 04  5 22  1  0 30.0000000  0  6G16G20G11G14G25G 1
  23635365.101    -4935591.10149  -3826518.96245  23635364.838    23635370.448
  20875957.392   -25274353.79349 -19680227.51847  20875956.916    20875960.154
  22686618.924   -16263320.10749 -12648687.39946  22686618.840    22686622.626
  24726356.723    -3977851.22949  -2782619.65445  24726356.569    24726361.201
  21411585.190   -20286988.90849 -15254644.40847  21411585.208    21411588.401
  21867526.833   -17713123.33549 -13783126.87947  21867526.516    21867531.164
 04  5 22  1  1  0.0000000  0  5G16G20G11G25G 1
  23617872.175    -5027516.44649  -3898149.02845  23617871.918    23617877.461
  20865722.747   -25328137.24449 -19722136.68947  20865722.271    20865725.507
  22700856.890   -16188499.47149 -12590385.66146  22700856.784    22700860.582
  21422707.126   -20228542.88949 -15209102.06747  21422707.148    21422710.316
  21857428.601   -17766189.86149 -13824477.39247  21857428.267    21857432.899
 04  5 22  1  1 30.0000000  0  5G16G20G11G25G 1
  23600404.952    -5119307.34549  -3969674.30845  23600404.610    23600410.174
  20855560.631   -25381539.49549 -19763748.82447  20855560.156    20855563.394
  22715148.777   -16113395.60349 -12531863.22246  22715148.680    22715152.433
  21433893.904   -20169756.13149 -15163294.21447  21433893.914    21433897.091
  21847363.619   -17819081.66249 -13865691.75647  21847363.275    21847367.877
 04  5 22  1  2  0.0000000  0  5G16G20G11G25G 1
  23582964.299    -5210958.26449  -4041090.52745  23582963.874    23582969.461
  20845471.915   -25434556.10349 -19805060.45447  20845471.430    20845474.703
  22729494.431   -16038009.06049 -12473120.52146  22729494.279    22729498.051
  21445145.514   -20110628.42849 -15117220.69447  21445145.535    21445148.709
  21837332.314   -17871796.40149 -13906768.14647  21837332.000    21837336.555
 04  5 22  1  2 30.0000000  0  5G16G20G11G25G 1
  23565550.550    -5302467.80949  -4112396.57945  23565550.129    23565555.723
  20835456.635   -25487186.61049 -19846071.23347  20835456.154    20835459.443
  22743893.111   -15962344.11249 -12414160.88546  22743892.940    22743896.671
  21456461.298   -20051163.60049 -15070884.48247  21456461.321    21456464.518
  21827334.406   -17924335.56749 -13947707.73747  21827334.091    21827338.628
 04  5 22  1  3  0.0000000  0  5G16G20G11G25G 1
  23548163.884    -5393834.82849  -4183591.56745  23548163.536    23548169.019
  20825514.870   -25539430.90349 -19886781.06247  20825514.386    20825517.687
  22758343.744   -15886405.76349 -12354988.20746  22758343.587    22758347.311
  21467840.470   -19991365.62449 -15024288.66947  21467840.503    21467843.703
  21817369.525   -17976701.25149 -13988512.13647  21817369.230    21817373.735
 04  5 22  1  3 30.0000000  0  5G16G20G11G25G 1
  23530804.996    -5485056.14549  -4254673.01645  23530804.613    23530810.114
  20815646.979   -25591286.79749 -19927188.24247  20815646.508    20815649.809
  22772845.900   -15810196.53149 -12295604.45946  22772845.737    22772849.512
  21479282.674   -19931236.58749 -14977434.89347  21479282.702    21479285.924
  21807437.696   -18028893.23149 -14029181.19047  21807437.386    21807441.879
 04  5 22  1  4  0.0000000  0  5G16G20G11G25G 1
  23513474.385    -5576128.92649  -4325638.74045  23513474.041    23513479.471
  20805853.339   -25642752.56949 -19967291.42947  20805852.868    20805856.187
  22787399.051   -15733719.52549 -12236012.04846  22787398.862    22787402.665
  21490787.429   -19870778.78149 -14930324.93347  21490787.447    21490790.681
  21797538.865   -18080911.81649 -14069715.13047  21797538.558    21797543.061
 04  5 22  1  4 30.0000000  0  5G16G20G11G25G 1
  23496172.353    -5667051.36849  -4396487.31145  23496172.008    23496177.431
  20796134.080   -25693827.50149 -20007090.06747  20796133.606    20796136.928
  22802002.349   -15656978.90249 -12176214.22246  22802002.182    22802006.024
  21502354.044   -19809995.82949 -14882961.61247  21502354.080    21502357.336
  21787672.743   -18132758.41749 -14110115.05047  21787672.448    21787676.958
 04  5 22  1  5  0.0000000  0  5G16G20G11G25G 1
  23478899.807    -5757819.07249  -4467215.29945  23478899.387    23478904.905
  20786489.907   -25744507.79749 -20046581.19447  20786489.443    20786492.756
  22816655.537   -15579975.92049 -12116211.96046  22816655.368    22816659.280
  21513982.456   -19748888.15349 -14835345.25947  21513982.470    21513985.731
  21777839.679   -18184431.58949 -14150379.83047  21777839.376    21777843.873
 04  5 22  1  5 30.0000000  0  5G16G20G11G25G 1
  23461657.031    -5848429.85849  -4537821.03045  23461656.633    23461662.137
  20776921.056   -25794792.50049 -20085764.06448  20776920.587    20776923.888
  22831357.951   -15502714.38249 -12056008.22146  22831357.790    22831361.755
  21525672.085   -19687458.87449 -14787478.30547  21525672.097    21525675.346
  21768039.403   -18235932.34949 -14190510.26347  21768039.110    21768043.559
 04  5 22  1  6  0.0000000  0  5G16G20G11G25G 1
  23444444.882    -5938880.03049  -4608301.59745  23444444.479    23444449.922
  20767427.940   -25844679.06849 -20124636.70448  20767427.469    20767430.777
  22846109.093   -15425196.62549 -11995604.83546  22846108.978    22846112.968
  21537422.588   -19625709.70249 -14739362.08847  21537422.593    21537425.820
  21758272.044   -18287260.13849 -14230505.91547  21758271.722    21758276.154
 04  5 22  1  6 30.0000000  0  5G16G20G11G25G 1
  23427263.808    -6029166.52049  -4678654.61745  23427263.473    23427268.963
  20758011.008   -25894165.29849 -20163197.39148  20758010.558    20758013.847
  22860908.525   -15347425.32249 -11935003.88946  22860908.422    22860912.417
  21549233.613   -19563642.31049 -14690997.90647  21549233.626    21549236.881
  21748537.664   -18338414.67549 -14270366.56747  21748537.341    21748541.771
 04  5 22  1  7  0.0000000  0  5G16G20G11G25G 1
  23410114.357    -6119287.05449  -4748878.33945  23410113.995    23410119.382
  20748670.474   -25943250.13149 -20201445.30648  20748670.015    20748673.294
  22875755.476   -15269404.34149 -11874208.38846  22875755.374    22875759.414
  21561104.630   -19501260.01049 -14642388.34547  21561104.638    21561107.870
  21738836.002   -18389397.06549 -14310093.08447  21738835.667    21738840.102
 04  5 22  1  7 30.0000000  0  5G16G20G11G25G 1
  23392997.109    -6209238.55549  -4818970.33345  23392996.786    23393002.073
  20739406.743   -25991931.53749 -20239378.86148  20739406.278    20739409.541
  22890649.490   -15191136.03549 -11813220.16746  22890649.383    22890653.460
  21573035.169   -19438564.68949 -14593534.86947  21573035.178    21573038.399
  21729167.140   -18440207.22349 -14349685.38447  21729166.811    21729171.218
 04  5 22  1  8  0.0000000  0  5G16G20G11G25G 1
  23375912.800    -6299016.70949  -4888927.27145  23375912.583    23375917.785
  20730220.411   -26040205.94249 -20276995.27648  20730219.947    20730223.203
  22905590.198   -15112622.35949 -11752040.76546  22905590.110    22905594.203
  21585025.135   -19375557.05349 -14544438.03147  21585025.158    21585028.366
  21719531.288   -18490843.95149 -14389142.54247  21719530.972    21719535.363
 04  5 22  1  8 30.0000000  0  5G16G20G11G25G 1
  23358861.921    -6388619.31249  -4958747.40745  23358861.686    23358866.865
  20721111.723   -26088072.52249 -20314293.90548  20721111.263    20721114.514
  22920576.888   -15033867.00149 -11690673.03346  22920576.774    22920580.877
  21597073.906   -19312240.34249 -14495100.35447  21597073.927    21597077.131
  21709928.248   -18541308.20649 -14428465.31047  21709927.920    21709932.303
 04  5 22  1  9  0.0000000  0  5G16G20G11G25G 1
  23341845.082    -6478043.15049  -5028428.21545  23341844.817    23341850.041
  20712081.007   -26135529.14149 -20351273.08648  20712080.545    20712083.799
  22935608.973   -14954872.76849 -11629119.16746  22935608.908    22935613.049
  21609181.064   -19248616.80949 -14445523.59847  21609181.105    21609184.310
  21700358.035   -18591599.93649 -14467653.64747  21700357.715    21700362.088
 04  5 22  1  9 30.0000000  0  5G16G20G11G25G 1
  23324862.727    -6567285.28349  -5097967.46845  23324862.493    23324867.687
  20703128.699   -26182573.87849 -20387931.31648  20703128.233    20703131.480
  22950686.018   -14875642.63549 -11567381.47346  22950685.940    22950690.126
  21621346.241   -19184688.49149 -14395709.34547  21621346.283    21621349.489
  21690820.644   -18641719.17849 -14506707.57747  21690820.347    21690824.700
 04  5 22  1 10  0.0000000  0  5G16G20G11G25G 1
  23307915.672    -6656342.71449  -5167362.76846  23307915.426    23307920.576
  20694255.105   -26229204.83449 -20424267.12248  20694254.646    20694257.909
  22965807.383   -14796179.52049 -11505462.24246  22965807.262    22965811.557
  21633569.010   -19120457.39449 -14345659.16447  21633569.032    21633572.270
  21681316.049   -18691666.03849 -14545627.18347  21681315.738    21681320.068
 04  5 22  1 10 30.0000000  0  5G16G20G11G25G 1
  23291004.341    -6745212.37249  -5236611.78946  23291004.144    23291009.160
  20685460.685   -26275419.87149 -20460278.83548  20685460.214    20685463.474
  22980972.559   -14716486.01749 -11443363.49046  22980972.464    22980976.765
  21645848.918   -19055926.17349 -14295375.11347  21645848.940    21645852.179
  21671844.232   -18741440.69449 -14584412.60347  21671843.925    21671848.252
 04  5 22  1 11  0.0000000  0  5G16G20G11G25G 1
  23274129.635    -6833889.46549  -5305710.73346  23274129.396    23274134.427
  20676746.085   -26321215.43349 -20495963.68148  20676745.617    20676748.856
  22996181.411   -14636563.35549 -11381086.17246  22996181.305    22996185.655
  21658185.871   -18991095.12049 -14244857.43147  21658185.900    21658189.148
  21662405.497   -18791041.37949 -14623062.46147  21662405.199    21662409.543
 04  5 22  1 11 30.0000000  0  5G16G20G11G25G 1
  23257291.899    -6922372.39049  -5374658.40246  23257291.683    23257296.606
  20668111.441   -26366590.83949 -20531321.13448  20668110.975    20668114.217
  23011433.007   -14556415.99649 -11318633.74646  23011432.837    23011437.224
  21670579.243   -18925967.64349 -14194108.76747  21670579.260    21670582.549
  21652999.607   -18840469.44549 -14661577.80747  21652999.301    21653003.634
 04  5 22  1 12  0.0000000  0  5G16G20G11G25G 1
  23240491.889    -7010656.72849  -5443451.30646  23240491.613    23240496.646
  20659557.359   -26411542.78849 -20566348.62248  20659556.906    20659560.125
  23026727.038   -14476045.52649 -11256007.48346  23026726.899    23026731.278
  21683028.801   -18860544.73349 -14143129.89047  21683028.812    21683032.121
  21643626.835   -18889723.62049 -14699957.65647  21643626.549    21643630.884
 04  5 22  1 12 30.0000000  0  5G16G20G11G25G 1
  23223729.762    -7098741.62349  -5512088.82246  23223729.527    23223734.577
  20651083.815   -26456071.56449 -20601046.36648  20651083.353    20651086.586
  23042062.640   -14395456.85549 -11193211.20846  23042062.512    23042066.845
  21695533.822   -18794830.44949 -14091923.98447  21695533.824    21695537.182
  21634286.727   -18938805.99849 -14738203.64547  21634286.465    21634290.792
 04  5 22  1 13  0.0000000  0  5G16G20G11G25G 1
  23207006.627    -7186621.72949  -5580566.75646  23207006.393    23207011.409
  20642691.560   -26500173.13649 -20635411.22148  20642691.102    20642694.316
  23057439.669   -14314650.71149 -11130245.46346  23057439.536    23057443.858
  21708094.259   -18728824.79549 -14040491.02447  21708094.289    21708097.639
  21624979.765   -18987714.32249 -14776314.00547  21624979.488    21624983.830
 04  5 22  1 13 30.0000000  0  5G16G20G11G25G 1
  23190322.661    -7274296.36949  -5648884.58346  23190322.364    23190327.348
  20634380.540   -26543847.78049 -20669443.40448  20634380.076    20634383.306
  23072857.048   -14233632.24849 -11067114.28746  23072856.903    23072861.208
  21720709.323   -18662532.34449 -13988834.59447  21720709.336    21720712.671
  21615705.470   -19036450.99049 -14814290.60447  21615705.189    21615709.521
 04  5 22  1 14  0.0000000  0  5G16G20G11G25G 1
  23173678.591    -7361761.06749  -5717038.82546  23173678.306    23173683.289
  20626151.377   -26587092.28649 -20703140.41148  20626150.913    20626154.149
  23088314.547   -14152402.97749 -11003818.82646  23088314.413    23088318.735
  21733378.834   -18595953.86849 -13936955.27647  21733378.845    21733382.136
  21606464.057   -19085014.71549 -14852132.44047  21606463.776    21606468.084
 04  5 22  1 14 30.0000000  0  5G16G20G11G25G 1
  23157075.028    -7449012.98949  -5785027.25546  23157074.681    23157079.720
  20618004.419   -26629904.70749 -20736500.73548  20618003.963    20618007.184
  23103811.537   -14070965.85749 -10940361.41746  23103811.435    23103815.710
  21746102.350   -18529091.45949 -13884854.72047  21746102.366    21746105.624
  21597255.537   -19133405.70349 -14889839.69047  21597255.261    21597259.545
 04  5 22  1 15  0.0000000  0  5G16G20G11G25G 1
  23140512.674    -7536048.15849  -5852846.79946  23140512.397    23140517.365
  20609940.219   -26672282.39749 -20769522.30148  20609939.756    20609943.005
  23119347.690   -13989323.16249 -10876743.80746  23119347.589    23119351.891
  21758879.669   -18461946.43649 -13832533.94047  21758879.661    21758882.904
  21588080.111   -19181622.94149 -14927411.54247  21588079.813    21588084.084
 04  5 22  1 15 30.0000000  0  5G16G20G11G25G 1
  23123991.889    -7622865.16749  -5920496.33546  23123991.595    23123996.536
  20601958.747   -26714225.26749 -20802205.05348  20601958.281    20601961.527
  23134922.089   -13907479.44549 -10812969.56446  23134921.987    23134926.303
  21771709.960   -18394522.88849 -13779996.13447  21771709.969    21771713.194
  21578937.384   -19229668.19649 -14964849.37747  21578937.093    21578941.357
 04  5 22  1 16  0.0000000  0  5G16G20G11G25G 1
  23107513.446    -7709459.69749  -5987972.51446  23107513.172    23107518.109
  20594060.717   -26755729.78049 -20834546.23048  20594060.239    20594063.481
  23150534.513   -13825436.02849 -10749039.71346  23150534.378    23150538.652
  21784593.096   -18326821.59449 -13727241.89747  21784593.130    21784596.362
  21569827.673   -19277540.05949 -15002152.10147  21569827.359    21569831.627
 04  5 22  1 16 30.0000000  0  5G16G20G11G25G 1
  23091078.219    -7795827.46949  -6055272.01546  23091077.870    23091082.828
  20586246.688   -26796792.72949 -20866543.32248  20586246.208    20586249.442
  23166184.634   -13743194.80849 -10684955.71846  23166184.474    23166188.754
  21797528.938   -18258843.28949 -13674271.81347  21797528.955    21797532.217
  21560751.122   -19325237.42049 -15039318.85247  21560750.813    21560755.073
 04  5 22  1 17  0.0000000  0  5G16G20G11G25G 1
  23074686.178    -7881968.06949  -6122394.48946  23074685.808    23074690.731
  20578516.486   -26837415.23449 -20898197.22048  20578516.020    20578519.255
  23181871.289   -13660761.10949 -10620721.73946  23181871.144    23181875.411
  21810516.581   -18190592.89449 -13621089.71047  21810516.594    21810519.840
  21551707.340   -19372762.70549 -15076351.52447  21551707.024    21551711.296
 04  5 22  1 17 30.0000000  0  5G16G20G11G25G 1
  23058338.206    -7967876.63449  -6189336.14846  23058337.895    23058342.794
  20570870.823   -26877593.36949 -20929504.85548  20570870.363    20570873.603
  23197594.378   -13578136.04049 -10556338.66046  23197594.289    23197598.511
  21823555.969   -18122070.51649 -13567695.67347  21823555.987    21823559.252
  21542696.683   -19420113.92749 -15113248.55747  21542696.382    21542700.651
 04  5 22  1 18  0.0000000  0  5G16G20G11G25G 1
  23042034.988    -8053550.17149  -6256094.69246  23042034.721    23042039.633
  20563310.063   -26917325.43549 -20960464.89848  20563309.587    20563312.833
  23213353.334   -13495322.65749 -10491808.82946  23213353.230    23213357.439
  21836646.662   -18053278.54249 -13514091.55947  21836646.674    21836649.945
  21533719.080   -19467291.44649 -15150010.23147  21533718.777    21533723.055
 04  5 22  1 18 30.0000000  0  5G16G20G11G25G 1
  23025776.786    -8138987.16849  -6322668.91946  23025776.596    23025781.475
  20555834.251   -26956611.13349 -20991077.12348  20555833.772    20555837.023
  23229147.193   -13412325.44949 -10427135.77246  23229147.116    23229151.385
  21849787.925   -17984220.69249 -13460280.27547  21849787.946    21849791.203
  21524774.218   -19514296.83149 -15186637.78247  21524773.919    21524778.220
 04  5 22  1 19  0.0000000  0  5G16G20G11G25G 1
  23009564.676    -8224182.32949  -6389054.68446  23009564.420    23009569.274
  20548444.160   -26995446.33849 -21021338.31448  20548443.678    20548446.907
  23244975.972   -13329144.99149 -10362319.92046  23244975.908    23244980.196
  21862979.873   -17914896.67249 -13406261.57547  21862979.884    21862983.154
  21515862.588   -19561127.61449 -15223129.27547  21515862.289    21515866.591
 04  5 22  1 19 30.0000000  0  5G16G20G11G25G 1
  22993398.987    -8309133.30249  -6455250.18946  22993398.801    22993403.607
  20541140.014   -27033829.82849 -21051247.52348  20541139.545    20541142.775
  23260838.906   -13245784.75649 -10297363.97146  23260838.886    23260843.173
  21876221.886   -17845309.52349 -13352037.84847  21876221.887    21876225.202
  21506984.041   -19607784.59149 -15259485.34947  21506983.735    21506988.060
 04  5 22  1 20  0.0000000  0  5G16G20G11G25G 1
  22977280.255    -8393837.74349  -6521253.59746  22977280.070    22977284.853
  20533921.989   -27071760.74649 -21080804.07248  20533921.502    20533924.739
  23276735.316   -13162248.75849 -10232271.06946  23276735.301    23276739.636
  21889513.461   -17775461.88649 -13297611.14047  21889513.455    21889516.777
  21498138.429   -19654268.45049 -15295706.51247  21498138.139    21498142.444
 04  5 22  1 20 30.0000000  0  5G16G20G11G25G 1
  22961209.202    -8478291.50949  -6587061.66346  22961209.016    22961213.731
  20526790.710   -27109235.81249 -21110005.42448  20526790.239    20526793.473
  23292664.997   -13078538.15049 -10167042.10946  23292664.993    23292669.367
  21902854.372   -17705355.02449 -13242982.44147  21902854.379    21902857.711
  21489326.024   -19700577.79249 -15331791.69447  21489325.729    21489330.024
 04  5 22  1 21  0.0000000  0  5G16G20G11G25G 1
  22945186.464    -8562491.70949  -6652672.15246  22945186.278    22945190.886
  20519746.444   -27146253.61249 -21138850.46648  20519745.985    20519749.231
  23308627.211   -12994656.40749 -10101679.77646  23308627.163    23308631.544
  21916244.184   -17634991.14949 -13188153.47547  21916244.200    21916247.538
  21480546.772   -19746713.02549 -15367741.20347  21480546.497    21480550.795
 04  5 22  1 21 30.0000000  0  5G16G20G11G25G 1
  22929212.179    -8646437.04149  -6718084.02446  22929211.917    22929216.551
  20512789.292   -27182813.69249 -21167338.84048  20512788.832    20512792.078
  23324621.244   -12910607.85249 -10036187.46746  23324621.131    23324625.596
  21929682.245   -17564373.77649 -13133126.96947  21929682.247    21929685.588
  21471800.379   -19792675.57649 -15403556.15647  21471800.082    21471804.370
 04  5 22  1 22  0.0000000  0  5G16G20G11G25G 1
  22913287.321    -8730122.52449  -6783293.44146  22913287.072    22913291.622
  20505919.889   -27218912.53949 -21195467.81648  20505919.427    20505922.677
  23340646.708   -12826393.58349  -9970566.05546  23340646.686    23340651.115
  21943168.481   -17493503.25249 -13077903.21047  21943168.461    21943171.822
  21463087.220   -19838463.38649 -15439234.95047  21463086.934    21463091.208
 04  5 22  1 22 30.0000000  0  5G16G20G11G25G 1
  22897412.310    -8813545.92449  -6848298.61846  22897412.091    22897416.658
  20499138.438   -27254549.22449 -21223236.66348  20499137.982    20499141.237
  23356703.084   -12742017.35449  -9904818.43746  23356703.021    23356707.475
  21956702.292   -17422382.61049 -13022484.55447  21956702.261    21956705.650
  21454407.155   -19884077.31949 -15474778.24547  21454406.853    21454411.109
 04  5 22  1 23  0.0000000  0  6G16G13G20G11G25G 1
  22881585.132    -8896718.11649  -6913108.05746  22881584.899    22881589.486
  24637023.961    -5860455.19559  -4521216.99545  24637024.353    24637030.244
  20492442.686   -27289735.71349 -21250654.70848  20492442.227    20492445.471
  23372787.082   -12657495.77149  -9838957.55446  23372787.046    23372791.474
  21970280.681   -17351027.70249 -12966883.34147  21970280.661    21970284.060
  21445757.547   -19929531.18749 -15510196.80947  21445757.261    21445761.483
 04  5 22  1 23 30.0000000  0  6G16G13G20G11G25G 1
  22865810.269    -8979615.18849  -6977703.11046  22865810.029    22865814.636
  24621369.182    -5942721.10649  -4585320.21845  24621369.611    24621375.415
  20485836.862   -27324449.57349 -21277704.46548  20485836.401    20485839.643
  23388902.139   -12572811.11049  -9772969.59946  23388902.099    23388906.541
  21983907.217   -17279419.89749 -12911085.07747  21983907.208    21983910.610
  21437142.339   -19974804.33049 -15545474.56147  21437142.065    21437146.268
 04  5 22  1 24  0.0000000  0  6G16G13G20G11G25G 1
  22850087.760    -9062237.15949  -7042083.80246  22850087.484    22850092.106
  24605723.804    -6024937.49649  -4649384.82445  24605724.242    24605730.143
  20479320.818   -27358691.61749 -21304386.57348  20479320.361    20479323.597
  23405047.121   -12487969.03749  -9706858.99045  23405047.073    23405051.554
  21997580.945   -17207564.05649 -12855093.53547  21997580.922    21997584.353
  21428561.022   -20019899.32849 -15580613.49247  21428560.736    21428564.963
 04  5 22  1 24 30.0000000  0  6G16G13G20G11G25G 1
  22834418.229    -9144580.45549  -7106247.34446  22834417.952    22834422.642
  24590088.082    -6107103.90349  -4713410.49445  24590088.557    24590094.529
  20472894.912   -27392459.90349 -21330699.52148  20472894.440    20472897.690
  23421221.582   -12402972.05049  -9640627.67145  23421221.485    23421226.014
  22011301.535   -17135462.01149 -12798910.14147  22011301.523    22011304.943
  21420013.665   -20064815.87949 -15615613.37747  21420013.373    21420017.611
 04  5 22  1 25  0.0000000  0  6G16G13G20G11G25G 1
  22818801.354    -9226647.23249  -7170195.44346  22818801.153    22818805.801
  24574460.834    -6189225.27549  -4777401.08045  24574461.255    24574467.280
  20466558.501   -27425757.90849 -21356646.01648  20466558.027    20466561.284
  23437424.023   -12317828.13549  -9574281.86145  23437423.869    23437428.437
  22025067.567   -17063121.03149 -12742540.57447  22025067.573    22025070.992
  21411499.312   -20109559.05149 -15650478.16547  21411499.028    21411503.239
 04  5 22  1 25 30.0000000  0  6G16G13G20G11G25G 1
  22803238.158    -9308431.95949  -7233923.73246  22803237.967    22803242.608
  24558842.646    -6271299.01849  -4841354.54545  24558843.007    24558849.102
  20460312.382   -27458581.42049 -21382222.77748  20460311.911    20460315.177
  23453654.366   -12232537.50949  -9507821.72545  23453654.223    23453658.771
  22038879.231   -16990540.37149 -12685984.24147  22038879.221    22038882.649
  21403018.516   -20154125.96749 -15685205.61547  21403018.199    21403022.414
 04  5 22  1 26  0.0000000  0  6G16G13G20G11G25G 1
  22787729.104    -9389932.60549  -7297430.67246  22787728.873    22787733.507
  24543233.315    -6353326.16249  -4905271.69445  24543233.712    24543239.591
  20454156.753   -27490929.49549 -21407429.07048  20454156.282    20454159.558
  23469911.842   -12147103.99749  -9441250.25145  23469911.728    23469916.282
  22052735.820   -16917723.45149 -12629243.80847  22052735.849    22052739.266
  21394571.011   -20198517.78149 -15719796.61847  21394570.717    21394574.931
 04  5 22  1 26 30.0000000  0  6G16G13G20G11G25G 1
  22772274.895    -9471144.90449  -7360712.93446  22772274.653    22772279.257
  24527633.038    -6435305.60049  -4969151.67245  24527633.593    24527639.336
  20448092.120   -27522799.45449 -21432262.81048  20448091.661    20448094.910
  23486196.195   -12061529.58749  -9374568.99945  23486196.074    23486200.696
  22066637.218   -16844671.27049 -12572320.05447  22066637.235    22066640.643
  21386157.128   -20242733.08849 -15754250.09047  21386156.832    21386161.033
 04  5 22  1 27  0.0000000  0  6G16G13G20G11G25G 1
  22756875.555    -9552068.83949  -7423770.48946  22756875.333    22756879.918
  24512041.518    -6517239.41949  -5032996.10845  24512041.957    24512047.679
  20442118.248   -27554192.36349 -21456724.82248  20442117.796    20442121.022
  23502506.244   -11975820.09349  -9307782.47645  23502506.093    23502510.719
  22080582.482   -16771388.41349 -12515216.55647  22080582.540    22080585.939
  21377776.248   -20286774.83049 -15788568.31247  21377775.944    21377780.142
 04  5 22  1 27 30.0000000  0  6G16G13G20G11G25G 1
  22741532.117    -9632699.02549  -7486599.14746  22741531.896    22741536.420
  24496459.115    -6599125.50949  -5096803.36745  24496459.523    24496465.059
  20436235.942   -27585104.07149 -21480811.86748  20436235.499    20436238.706
  23518841.918   -11889975.62249  -9240890.77545  23518841.785    23518846.448
  22094571.730   -16697874.66949 -12457933.14047  22094571.776    22094575.173
  21369428.904   -20330640.34949 -15822749.21947  21369428.602    21369432.821
 04  5 22  1 28  0.0000000  0  6G16G13G20G11G25G 1
  22726244.979    -9713033.11849  -7549197.10446  22726244.728    22726249.307
  24480885.569    -6680964.36749  -5160573.78345  24480886.095    24480891.522
  20430445.403   -27615533.66149 -21504523.23248  20430444.957    20430448.140
  23535202.532   -11804000.08349  -9173896.94945  23535202.498    23535207.148
  22108604.380   -16624132.77549 -12400471.94547  22108604.392    22108607.795
  21361114.978   -20374330.25549 -15856793.28447  21361114.678    21361118.892
 04  5 22  1 28 30.0000000  0  6G16G13G20G11G25G 1
  22711014.744    -9793068.11849  -7611561.96846  22711014.522    22711019.114
  24465321.096    -6762755.80249  -5224307.28245  24465321.661    24465327.052
  20424746.920   -27645479.46149 -21527857.61548  20424746.452    20424749.644
  23551587.670   -11717896.13049  -9106803.05845  23551587.605    23551592.321
  22122679.985   -16550165.09749 -12342834.82147  22122680.017    22122683.408
  21352834.453   -20417844.43549 -15890700.42347  21352834.160    21352838.389
 04  5 22  1 29  0.0000000  0  6G16G13G20G11G25G 1
  22695841.887    -9872802.18549  -7673692.34046  22695841.596    22695846.186
  24449765.563    -6844500.27649  -5288004.15945  24449766.150    24449771.435
  20419140.618   -27674940.75649 -21550814.46548  20419140.163    20419143.324
  23567996.447   -11631667.83849  -9039612.26945  23567996.405    23568001.136
  22136798.002   -16475974.53249 -12285024.02147  22136798.014    22136801.438
  21344587.268   -20461183.78749 -15924471.33247  21344586.970    21344591.219
 04  5 22  1 29 30.0000000  0  6G16G13G20G11G25G 1
  22680727.096    -9952230.77849  -7735584.70746  22680726.810    22680731.360
  24434219.037    -6926197.29849  -5351664.07445  24434219.602    24434224.917
  20413627.115   -27703914.55449 -21573391.45248  20413626.660    20413629.797
  23584428.644   -11545316.62849  -8972325.70145  23584428.570    23584433.284
  22150958.340   -16401561.44349 -12227039.81547  22150958.351    22150961.808
  21336373.572   -20504346.91749 -15958104.92347  21336373.266    21336377.522
 04  5 22  1 30  0.0000000  0  6G16G13G20G11G25G 1
  22665670.796   -10031351.97049  -7797237.52746  22665670.473    22665675.010
  24418681.619    -7007846.83749  -5415286.99545  24418682.139    24418687.357
  20408206.447   -27732400.35649 -21595588.18148  20408205.993    20408209.126
  23600883.508   -11458845.80349  -8904945.93345  23600883.488    23600888.249
  22165160.481   -16326928.93049 -12168884.63647  22165160.449    22165163.925
  21328193.281   -20547334.54149 -15991601.76147  21328192.979    21328197.227
 04  5 22  1 30 30.0000000  0  6G16G13G20G11G25G 1
  22650673.715   -10110161.86249  -7858647.79246  22650673.415    22650677.960
  24403153.326    -7089448.07249  -5478872.27145  24403153.838    24403158.936
  20402879.178   -27760395.35849 -21617402.46748  20402878.731    20402881.859
  23617360.770   -11372257.70649  -8837474.78545  23617360.751    23617365.559
  22179404.144   -16252078.05849 -12110559.30747  22179404.128    22179407.591
  21320046.572   -20590145.61649 -16024961.02947  21320046.279    21320050.530
 04  5 22  1 31  0.0000000  0  6G16G13G20G11G25G 1
  22635736.199   -10188658.58949  -7919814.02046  22635735.946    22635740.432
  24387634.191    -7171001.65849  -5542420.42345  24387634.523    24387639.737
  20397645.367   -27787899.10749 -21638833.95548  20397644.914    20397648.062
  23633859.573   -11285556.40749  -8769915.42145  23633859.539    23633864.282
  22193688.677   -16177012.42949 -12052066.63847  22193688.679    22193692.151
  21311933.280   -20632781.14349 -16058183.51147  21311932.976    21311937.217
 04  5 22  1 31 30.0000000  0  6G16G13G20G11G25G 1
  22620859.014   -10266838.26349  -7980733.19346  22620858.825    22620863.276
  24372124.176    -7252507.01249  -5605930.98345  24372124.309    24372129.768
  20392505.527   -27814909.13949 -21659880.73248  20392505.073    20392508.216
  23650379.571   -11198743.77949  -8702269.29745  23650379.473    23650384.238
  22208013.861   -16101733.07649 -11993407.42247  22208013.882    22208017.357
  21303853.605   -20675240.09949 -16091268.39747  21303853.329    21303857.543
 04  5 22  1 32  0.0000000  0  6G16G13G20G11G25G 1
  22606042.855   -10344697.70349  -8041402.83446  22606042.643    22606047.018
  24356623.299    -7333963.79349  -5669403.68745  24356623.621    24356629.142
  20387459.990   -27841423.83049 -21680541.52948  20387459.525    20387462.675
  23666920.206   -11111822.39949  -8634538.46245  23666920.122    23666924.880
  22222379.416   -16026241.75049 -11934583.04247  22222379.427    22222382.923
  21295807.583   -20717522.07649 -16124215.38047  21295807.300    21295811.515
 04  5 22  1 32 30.0000000  0  6G16G13G20G11G25G 1
  22591288.052   -10422234.34549  -8101820.94646  22591287.878    22591292.268
  24341131.704    -7415371.75549  -5732838.36945  24341132.096    24341137.389
  20382508.943   -27867441.76349 -21700815.24448  20382508.493    20382511.616
  23683480.930   -11024795.53249  -8566725.42045  23683480.868    23683485.618
  22236784.910   -15950540.42149 -11875595.01647  22236784.914    22236788.407
  21287795.233   -20759627.16849 -16157024.53147  21287794.946    21287799.172
 04  5 22  1 33  0.0000000  0  6G16G13G20G11G25G 1
  22576595.167   -10499445.86049  -8161985.70146  22576594.949    22576599.322
  24325649.310    -7496731.41949  -5796235.39745  24325649.713    24325655.138
  20377652.594   -27892962.02549 -21720701.16048  20377652.135    20377655.268
  23700061.079   -10937666.51949  -8498832.78645  23700061.020    23700065.779
  22251229.809   -15874631.98849 -11816445.61447  22251229.824    22251233.317
  21279816.450   -20801555.78749 -16189696.17747  21279816.170    21279820.400
 04  5 22  1 33 30.0000000  0  6G16G13G20G11G25G 1
  22561964.834   -10576328.45349  -8221894.16546  22561964.627    22561968.988
  24310176.410    -7578042.14549  -5859594.32245  24310176.645    24310182.152
  20372891.326   -27917982.55349 -21740197.67848  20372890.871    20372894.017
  23716660.224   -10850437.52049  -8430862.24645  23716660.187    23716665.012
  22265713.893   -15798517.67749 -11757135.79447  22265713.897    22265717.397
  21271871.394   -20843307.28149 -16222229.79647  21271871.120    21271875.388
 04  5 22  1 34  0.0000000  0  6G16G13G20G11G25G 1
  22547397.536   -10652879.87149  -8281544.56546  22547397.272    22547401.684
  24294712.723    -7659304.05049  -5922915.19745  24294713.050    24294718.426
  20368225.462   -27942501.93749 -21759303.69248  20368224.991    20368228.153
  23733277.938   -10763111.60149  -8362816.17645  23733277.853    23733282.671
  22280236.582   -15722200.19349 -11697667.65347  22280236.643    22280240.144
  21263959.986   -20884881.85149 -16254625.55647  21263959.717    21263963.981
 04  5 22  1 34 30.0000000  0  6G16G13G20G11G25G 1
  22532893.978   -10729096.30849  -8340933.94646  22532893.742    22532898.137
  24279258.402    -7740516.22349  -5986197.30245  24279258.859    24279264.018
  20363655.337   -27966517.96549 -21778017.48248  20363654.895    20363658.039
  23749913.565   -10675691.10449  -8294696.42745  23749913.477    23749918.340
  22294797.827   -15645680.38749 -11638041.85347  22294797.882    22294801.438
  21256082.499   -20926278.47849 -16286882.65647  21256082.220    21256086.474
 04  5 22  1 35  0.0000000  0  6G16G13G20G11G25G 1
  22518454.570   -10804975.83649  -8400060.78846  22518454.309    22518458.684
  24263813.422    -7821679.36349  -6049441.20745  24263813.882    24263819.169
  20359181.115   -27990030.13349 -21796338.65648  20359180.662    20359183.833
  23766566.580   -10588179.77549  -8226505.90545  23766566.438    23766571.294
  22309396.975   -15568961.40549 -11578260.86047  22309397.016    22309400.587
  21248238.690   -20967498.04749 -16319001.78647  21248238.401    21248242.634
 04  5 22  1 35 30.0000000  0  7G16G13G20G 4G11G25G 1
  22504079.592   -10880516.72649  -8458923.78746  22504079.350    22504083.644
  24248377.599    -7902794.84049  -6112647.98345  24248377.957    24248383.366
  20354802.828   -28013038.17649 -21814267.00648  20354802.364    20354805.532
  24784808.713    -4461884.18359  -3465554.63845  24784808.763    24784813.883
  23783236.089   -10500581.61649  -8158247.70945  23783235.918    23783240.760
  22324033.451   -15492046.36949 -11518327.09647  22324033.453    22324037.071
  21240428.336   -21008541.58249 -16350983.75347  21240428.058    21240432.292
 04  5 22  1 36  0.0000000  0  7G16G13G20G 4G11G25G 1
  22489769.167   -10955718.42849  -8517522.46346  22489768.877    22489773.200
  24232950.557    -7983864.47749  -6175819.03645  24232950.888    24232956.118
  20350520.313   -28035542.98349 -21831803.23048  20350519.848    20350523.018
  24773982.720    -4518774.57649  -3509884.77545  24773982.898    24773988.328
  23799921.104   -10412901.61149  -8089925.74545  23799920.977    23799925.893
  22338706.373   -15414939.87449 -11458244.14947  22338706.375    22338709.973
  21232651.166   -21049411.09049 -16382830.11347  21232650.872    21232655.070
 04  5 22  1 36 30.0000000  0  7G16G13G20G 4G11G25G 1
  22475525.075   -11030571.55249  -8575849.53946  22475524.768    22475529.062
  24217533.336    -8064881.72649  -6238949.25545  24217533.551    24217538.890
  20346335.005   -28057536.86049 -21848941.33148  20346334.566    20346337.722
  24763243.208    -4575210.41349  -3553860.73145  24763243.433    24763248.879
  23816622.335   -10325136.53749  -8021537.49845  23816622.195    23816627.211
  22353416.593   -15337637.37949 -11398008.47647  22353416.562    22353420.147
  21224908.267   -21090100.13949 -16414535.85547  21224907.972    21224912.147
 04  5 22  1 37  0.0000000  0  7G16G13G20G 4G11G25G 1
  22461347.710   -11105073.73749  -8633903.14246  22461347.473    22461351.721
  24202126.126    -8145846.70949  -6302038.74645  24202126.278    24202131.740
  20342247.159   -28079018.70349 -21865680.43148  20342246.706    20342249.886
  24752590.545    -4631190.45749  -3597481.51145  24752590.728    24752596.161
  23833339.148   -10237289.37249  -7953085.27045  23833339.012    23833344.111
  22368163.633   -15260141.26749 -11337621.92047  22368163.622    22368167.168
  21217199.682   -21130609.03649 -16446101.21647  21217199.359    21217203.535
 04  5 22  1 37 30.0000000  0  7G16G13G20G 4G11G25G 1
  22447237.431   -11179223.58049  -8691682.17646  22447237.212    22447241.466
  24186728.655    -8226760.64749  -6365088.45545  24186728.776    24186734.240
  20338256.813   -28099988.19449 -21882020.29248  20338256.368    20338259.544
  24742024.664    -4686714.04349  -3640746.61145  24742024.892    24742030.409
  23850070.755   -10149364.37449  -7884572.39845  23850070.640    23850075.830
  22382946.900   -15182454.93749 -11277087.13946  22382946.858    22382950.383
  21209525.166   -21170938.89249 -16477527.06947  21209524.852    21209529.029
 04  5 22  1 38  0.0000000  0  7G16G13G20G 4G11G25G 1
  22433194.668   -11253018.68449  -8749184.81546  22433194.452    22433198.650
  24171340.803    -8307624.30149  -6428099.01045  24171340.988    24171346.454
  20334364.062   -28120444.78549 -21897960.49348  20334363.603    20334366.790
  24731545.890    -4741780.60149  -3683655.59245  24731545.966    24731551.355
  23866816.535   -10061364.97549  -7816001.56345  23866816.467    23866821.534
  22397765.835   -15104581.00949 -11216406.17947  22397765.800    22397769.320
  21201884.601   -21211090.22449 -16508813.80747  21201884.281    21201888.448
 04  5 22  1 38 30.0000000  0  7G16G13G20G 4G11G25G 1
  22419220.124   -11326455.29949  -8806408.10146  22419219.887    22419224.087
  24155962.904    -8388436.32249  -6491069.31845  24155963.065    24155968.349
  20330569.371   -28140385.90749 -21913499.02948  20330568.920    20330572.107
  24721154.562    -4796387.22549  -3726206.19145  24721154.851    24721160.100
  23883576.089    -9973293.01549  -7747374.18645  23883576.035    23883581.266
  22412620.327   -15026520.27149 -11155579.66047  22412620.306    22412623.822
  21194278.253   -21251061.71849 -16539960.42047  21194277.947    21194282.114
 04  5 22  1 39  0.0000000  0  7G16G13G20G 4G11G25G 1
  22405314.237   -11399531.28149  -8863350.38946  22405313.964    22405318.127
  24140594.492    -8469197.32749  -6553999.87445  24140594.574    24140599.953
  20326872.880   -28159811.20049 -21928635.62348  20326872.429    20326875.620
  24710850.995    -4850533.01349  -3768397.65045  24710851.274    24710856.647
  23900348.837    -9885151.95449  -7678692.94545  23900348.843    23900354.047
  22427509.825   -14948275.56549 -11094609.81047  22427509.858    22427513.356
  21186706.025   -21290854.06649 -16570967.44247  21186705.719    21186709.904
 04  5 22  1 39 30.0000000  0  7G16G13G20G 4G11G25G 1
  22391477.254   -11472244.81049  -8920010.23146  22391477.002    22391481.128
  24125235.696    -8549908.15149  -6616891.32445  24125235.757    24125241.051
  20323274.595   -28178720.18249 -21943369.89648  20323274.140    20323277.345
  24700635.152    -4904217.53849  -3810229.73745  24700635.456    24700640.670
  23917134.039    -9796945.94549  -7609961.10645  23917133.923    23917139.127
  22442433.743   -14869850.06149 -11033499.06146  22442433.756    22442437.279
  21179167.738   -21330467.97849 -16601835.41447  21179167.447    21179171.596
 04  5 22  1 40  0.0000000  0  7G16G13G20G 4G11G25G 1
  22377710.257   -11544590.56549  -8976383.48946  22377710.043    22377714.169
  24109886.943    -8630565.93949  -6679741.45845  24109887.083    24109892.301
  20319775.367   -28197108.91549 -21957698.78248  20319774.903    20319778.108
  24690507.824    -4957436.54949  -3851699.06045  24690508.297    24690513.526
  23933931.455    -9708675.12749  -7541178.75345  23933931.394    23933936.600
  22457392.171   -14791242.95949 -10972246.80347  22457392.201    22457395.734
  21171663.929   -21369900.81649 -16632562.28447  21171663.612    21171667.773
 04  5 22  1 40 30.0000000  0  7G16G13G20G 4G11G25G 1
  22364013.266   -11616568.37649  -9032470.04046  22364013.066    22364017.191
  24094547.948    -8711172.74649  -6742551.85345  24094548.032    24094553.096
  20316374.820   -28214978.81849 -21971623.39248  20316374.357    20316377.586
  24680469.032    -5010191.08749  -3892806.48445  24680469.327    24680474.513
  23950740.351    -9620344.44949  -7472349.78145  23950740.207    23950745.522
  22472384.370   -14712458.79649 -10910856.57846  22472384.342    22472387.944
  21164194.114   -21409154.90449 -16663149.87347  21164193.804    21164197.972
 04  5 22  1 41  0.0000000  0  7G16G13G20G 4G11G25G 1
  22350387.065   -11688174.26749  -9088266.79146  22350386.859    22350391.009
  24079218.778    -8791727.58249  -6805321.75345  24079218.934    24079223.987
  20313073.469   -28232327.47849 -21985141.84148  20313073.012    20313076.248
  24670518.968    -5062478.59149  -3933549.95445  24670519.245    24670524.447
  23967560.149    -9531956.11549  -7403475.87945  23967560.063    23967565.387
  22487409.951   -14633498.61849 -10849329.21446  22487409.960    22487413.579
  21156758.569   -21448228.97049 -16693597.18447  21156758.251    21156762.423
 04  5 22  1 41 30.0000000  0  7G16G13G20G 4G11G25G 1
  22336832.290   -11759404.89949  -9143771.12746  22336832.073    22336836.238
  24063899.560    -8872230.09649  -6868050.90245  24063899.799    24063904.759
  20309871.677   -28249152.98049 -21998252.63648  20309871.219    20309874.469
  24660658.338    -5114296.86949  -3973927.81745  24660658.631    24660663.696
  23984390.628    -9443512.26249  -7334558.71445  23984390.521    23984395.764
  22502468.869   -14554363.74449 -10787665.70646  22502468.875    22502472.504
  21149357.430   -21487122.15749 -16723903.55447  21149357.135    21149361.277
 04  5 22  1 42  0.0000000  0  7G16G13G20G 4G11G25G 1
  22323349.298   -11830258.34149  -9198981.56546  22323349.077    22323353.204
  24048590.242    -8952680.55249  -6930739.46845  24048590.528    24048595.491
  20306769.568   -28265454.75149 -22010955.33048  20306769.106    20306772.365
  24650887.109    -5165644.98249  -4013939.29445  24650887.495    24650892.448
  24001230.940    -9355016.37349  -7265601.00245  24001230.814    24001236.158
  22517560.507   -14475056.60849 -10725867.97046  22517560.517    22517564.179
  21141990.648   -21525834.85549 -16754069.27847  21141990.345    21141994.482
 04  5 22  1 42 30.0000000  0  7G16G13G20G 4G11G25G 1
  22309938.684   -11900731.41949  -9253895.62646  22309938.461    22309942.561
  24033291.088    -9033078.43049  -6993387.07745  24033291.269    24033296.304
  20303767.459   -28281231.07349 -22023248.58048  20303766.985    20303770.271
  24641205.614    -5216521.28849  -4053583.12245  24641206.038    24641210.892
  24018080.718    -9266470.81749  -7196604.59145  24018080.579    24018085.963
  22532684.684   -14395578.89249 -10663937.30746  22532684.677    22532688.326
  21134658.315   -21564366.57449 -16784093.98747  21134658.001    21134662.147
 04  5 22  1 43  0.0000000  0  7G16G13G20G 4G11G25G 1
  22296600.755   -11970822.29749  -9308511.81646  22296600.555    22296604.702
  24018001.732    -9113424.26049  -7055994.11945  24018001.804    24018006.876
  20300865.307   -28296481.92249 -22035132.37148  20300864.824    20300868.125
  24631614.062    -5266925.38049  -4092859.01845  24631614.359    24631619.423
  24034939.114    -9177879.64349  -7127572.62945  24034939.077    24034944.416
  22547840.670   -14315933.82649 -10601876.24346  22547840.664    22547844.290
  21127360.238   -21602718.22149 -16813978.37447  21127359.923    21127364.078
 04  5 22  1 43 30.0000000  0  7G16G13G20G 4G11G25G 1
  22283336.391   -12040526.83249  -9362826.99546  22283336.168    22283340.287
  24002722.446    -9193716.43849  -7118559.36345  24002722.651    24002727.683
  20298063.675   -28311204.54549 -22046604.55548  20298063.203    20298066.487
  24622112.829    -5316854.18249  -4131764.54045  24622113.086    24622118.295
  24051806.060    -9089243.76349  -7058505.84145  24051806.071    24051811.388
  22563028.482   -14236121.59249 -10539684.90846  22563028.480    22563032.071
  21120096.760   -21640888.00149 -16843721.04747  21120096.452    21120100.603
 04  5 22  1 44  0.0000000  0  7G16G13G20G 4G11G25G 1
  22270146.052   -12109842.59849  -9416839.25346  22270145.829    22270149.884
  23987453.422    -9273955.14949  -7181082.93545  23987453.641    23987458.695
  20295362.696   -28325398.38949 -22057664.70248  20295362.223    20295365.494
  24612702.431    -5366306.54049  -4170298.81145  24612702.661    24612708.068
  24068680.864    -9000566.54949  -6989406.84345  24068680.699    24068686.190
  22578247.611   -14156144.57849 -10477365.18946  22578247.625    22578251.230
  21112867.839   -21678876.12749 -16873322.17247  21112867.546    21112871.688
 04  5 22  1 44 30.0000000  0  7G16G13G20G 4G11G25G 1
  22257030.125   -12178767.25149  -9470546.73446  22257029.859    22257033.921
  23972194.517    -9354140.76449  -7243565.14545  23972194.765    23972199.729
  20292762.573   -28339062.29849 -22068311.90748  20292762.093    20292765.341
  24603382.708    -5415281.51649  -4208461.09545  24603382.873    24603388.387
  24085563.000    -8911851.12449  -6920278.07145  24085562.772    24085568.296
  22593497.680   -14076005.17349 -10414918.93646  22593497.707    22593501.297
  21105673.435   -21716682.80349 -16902781.90347  21105673.137    21105677.281
 04  5 22  1 45  0.0000000  0  7G16G13G20G 4G11G25G 1
  22243989.244   -12247297.42049  -9523946.80246  22243988.967    22243993.014
  23956945.894    -9434272.16049  -7306005.11445  23956946.291    23956951.152
  20290263.648   -28352194.22449 -22078544.58348  20290263.163    20290266.409
  24594154.342    -5463776.79149  -4246249.62345  24594154.561    24594159.876
  24102451.946    -8823099.76649  -6851121.31845  24102451.690    24102457.235
  22608778.432   -13995704.55749 -10352347.04346  22608778.438    22608782.007
  21098513.779   -21754306.95949 -16932099.41947  21098513.493    21098517.613
 04  5 22  1 45 30.0000000  0  7G16G13G20G 4G11G25G 1
  22231023.799   -12315430.97449  -9577037.86046  22231023.603    22231027.608
  23941707.581    -9514349.65049  -7368403.07745  23941707.990    23941712.784
  20287865.991   -28364794.00049 -22088362.60548  20287865.523    20287868.756
  24585017.400    -5511791.83049  -4283663.88945  24585017.656    24585022.904
  24119347.145    -8734315.54449  -6781938.96045  24119346.873    24119352.436
  22624089.390   -13915244.97149 -10289651.30146  22624089.418    22624092.987
  21091388.797   -21791749.00449 -16961275.03547  21091388.516    21091392.604
 04  5 22  1 46  0.0000000  0  7G16G13G20G 4G11G25G 1
  22218134.337   -12383165.51049  -9629817.98046  22218134.126    22218138.093
  23926479.657    -9594373.34249  -7430759.11445  23926479.893    23926484.686
  20285569.820   -28376860.53949 -22097765.11048  20285569.352    20285572.573
  24575972.142    -5559325.04649  -4320702.68345  24575972.268    24575977.824
  24136247.999    -8645501.47249  -6712733.34545  24136247.773    24136253.341
  22639430.214   -13834628.63649 -10226833.38946  22639430.239    22639433.790
  21084298.516   -21829008.69649 -16990308.55247  21084298.214    21084302.319
 04  5 22  1 46 30.0000000  0  7G16G13G20G 4G11G25G 1
  22205321.417   -12450497.71549  -9682284.59446  22205321.206    22205325.158
  23911261.978    -9674342.28749  -7493072.48845  23911262.238    23911267.006
  20283375.408   -28388392.19649 -22106750.81448  20283374.952    20283378.179
  24567018.742    -5606375.05049  -4357365.00745  24567018.836    24567024.484
  24153154.089    -8556659.67949  -6643506.10845  24153153.929    24153159.502
  22654800.595   -13753856.82949 -10163894.36446  22654800.617    22654804.166
  21077243.023   -21866085.34449 -17019199.43347  21077242.729    21077246.858
 04  5 22  1 47  0.0000000  0  7G16G13G20G 4G11G25G 1
  22192585.587   -12517424.73349  -9734435.48646  22192585.373    22192589.369
  23896054.770    -9754256.46649  -7555343.20545  23896055.026    23896059.700
  20281283.035   -28399387.65949 -22115318.70348  20281282.570    20281285.827
  24558157.761    -5652939.89049  -4393649.31645  24558157.910    24558163.342
  24170064.982    -8467792.94949  -6574259.43745  24170064.702    24170070.479
  22670200.199   -13672931.51549 -10100835.69046  22670200.237    22670203.804
  21070222.473   -21902978.53749 -17047947.36247  21070222.189    21070226.288
 04  5 22  1 47 30.0000000  0  7G16G13G20G 4G11G25G 1
  22179927.188   -12583945.00349  -9786269.41846  22179926.936    22179930.926
  23880857.892    -9834116.45449  -7617571.66445  23880858.096    23880862.797
  20279292.667   -28409847.09949 -22123468.92248  20279292.208    20279295.482
  24549388.907    -5699019.68049  -4429555.61945  24549389.261    24549394.409
  24186979.867    -8378905.05149  -6504996.29245  24186979.582    24186985.541
  22685628.464   -13591855.64949 -10037659.72146  22685628.456    22685632.080
  21063236.673   -21939689.15449 -17076553.02347  21063236.355    21063240.487
 04  5 22  1 48  0.0000000  0  7G16G13G20G 4G11G25G 1
  22167347.074   -12650053.87449  -9837782.78346  22167346.815    22167350.827
  23865671.611    -9913920.01349  -7679756.16845  23865671.879    23865676.644
  20277404.882   -28419767.50249 -22131199.11548  20277404.425    20277407.703
  24540713.093    -5744610.91449  -4465081.17145  24540713.476    24540718.749
  24203898.609    -8289996.81549  -6435717.29945  24203898.340    24203904.325
  22701085.342   -13510629.14849  -9974366.37346  22701085.316    22701089.010
  21056286.011   -21976215.05049 -17105014.74547  21056285.707    21056289.833
 04  5 22  1 48 30.0000000  0  7G16G13G20G 4G11G25G 1
  22154845.584   -12715749.47149  -9888974.09046  22154845.291    22154849.348
  23850496.214    -9993667.49449  -7741896.98745  23850496.475    23850501.122
  20275619.825   -28429148.12749 -22138508.69848  20275619.361    20275622.623
  24532130.460    -5789712.90749  -4500225.57345  24532130.858    24532135.970
  24220820.540    -8201071.69349  -6366425.14545  24220820.195    24220826.410
  22716570.484   -13429254.17949  -9910957.33246  22716570.495    22716574.187
  21049370.439   -22012556.49949 -17133332.74647  21049370.144    21049374.252
 04  5 22  1 49  0.0000000  0  7G16G13G20G 4G11G25G 1
  22142422.896   -12781030.86949  -9939842.67746  22142422.640    22142426.654
  23835331.083   -10073360.50249  -7803995.35545  23835331.304    23835335.937
  20273937.251   -28437990.00949 -22145398.47948  20273936.796    20273940.075
  24523640.820    -5834326.13049  -4534989.09845  24523641.275    24523646.223
  24237744.960    -8112133.81849  -6297123.06745  24237744.679    24237750.797
  22732083.189   -13347734.48249  -9847435.51746  22732083.196    22732086.876
  21042489.714   -22048714.89349 -17161508.10447  21042489.408    21042493.526
 04  5 22  1 49 30.0000000  0  7G16G13G20G 4G11G25G 1
  22130079.869   -12845893.73049  -9990385.11746  22130079.645    22130083.607
  23820176.666   -10152997.03349  -7866049.70045  23820176.915    23820181.535
  20272357.808   -28446290.16849 -22151866.14748  20272357.359    20272360.646
  24515244.770    -5878447.72149  -4569369.53045  24515245.198    24515250.098
  24254671.578    -8023184.40549  -6227812.00145  24254671.370    24254677.466
  22747623.404   -13266070.13049  -9783800.96946  22747623.418    22747627.055
  21035644.213   -22084688.20249 -17189539.24047  21035643.927    21035648.030
 04  5 22  1 50  0.0000000  0  7G16G13G20G 4G11G25G 1
  22117816.910   -12910335.73849 -10040599.64446  22117816.704    22117820.676
  23805032.976   -10232577.23849  -7928060.15245  23805033.308    23805037.923
  20270881.486   -28454048.25949 -22157911.42648  20270881.041    20270884.301
  24506942.376    -5922076.78149  -4603366.16645  24506942.856    24506947.776
  24271599.766    -7934226.48949  -6158494.29845  24271599.601    24271605.704
  22763190.720   -13184263.51349  -9720055.58946  22763190.691    22763194.358
  21028833.910   -22120476.63249 -17217426.31347  21028833.611    21028837.723
 04  5 22  1 50 30.0000000  0  7G16G13G20G 4G11G25G 1
  22105634.511   -12974354.30349 -10090484.19146  22105634.328    22105638.283
  23789899.935   -10312100.86949  -7990026.52645  23789900.395    23789904.899
  20269508.537   -28461263.31249 -22163533.55048  20269508.072    20269511.330
  24498734.045    -5965212.01149  -4636978.01545  24498734.479    24498739.486
  24288529.172    -7845262.91249  -6089172.20445  24288528.861    24288535.071
  22778784.778   -13102316.24449  -9656200.61946  22778784.765    22778788.394
  21022058.816   -22156079.87149 -17245169.08647  21022058.532    21022062.640
 04  5 22  1 51  0.0000000  0  7G16G13G20G 4G11G25G 1
  22093533.174   -13037946.93949 -10140036.84647  22093532.995    22093536.947
  23774777.886   -10391567.52549  -8051948.49645  23774778.264    23774782.872
  20268239.104   -28467934.22149 -22168731.66748  20268238.640    20268241.894
  24490619.890    -6007852.28449  -4670204.20045  24490620.246    24490625.259
  24305459.122    -7756296.07249  -6019847.55945  24305458.890    24305465.061
  22794405.196   -13020230.51249  -9592237.70546  22794405.222    22794408.857
  21015319.053   -22191497.61549 -17272767.32547  21015318.768    21015322.872
 04  5 22  1 51 30.0000000  0  7G16G13G20G 4G11G25G 1
  22081513.402   -13101111.18349 -10189255.70047  22081513.226    22081517.130
  23759666.887   -10470976.84649  -8113825.80245  23759667.085    23759671.779
  20267073.405   -28474060.04449 -22173505.03848  20267072.947    20267076.181
  24482600.201    -6049996.38749  -4703043.73645  24482600.668    24482605.574
  24322389.093    -7667329.16549  -5950522.86945  24322388.821    24322394.979
  22810051.630   -12938007.86849  -9528168.15846  22810051.630    22810055.357
  21008614.619   -22226729.70049 -17300220.87947  21008614.339    21008618.420
 04  5 22  1 52  0.0000000  0  7G16G13G20G 4G11G25G 1
  22069575.548   -13163844.94349 -10238139.09947  22069575.341    22069579.241
  23744566.427   -10550329.58949  -8175659.01745  23744566.740    23744571.347
  20266011.502   -28479640.36849 -22177853.34648  20266011.042    20266014.272
  24474674.966    -6091643.69949  -4735496.17045  24474675.356    24474680.412
  24339318.650    -7578364.95749  -5881200.28445  24339318.380    24339324.530
  22825723.638   -12855650.75049  -9463993.80646  22825723.650    22825727.400
  21001945.489   -22261776.10449 -17327529.74947  21001945.196    21001949.252
 04  5 22  1 52 30.0000000  0  7G16G13G20G 4G11G25G 1
  22057720.455   -13226143.87249 -10286683.67447  22057720.258    22057724.111
  23729477.262   -10629623.48649  -8237446.37045  23729477.495    23729482.120
  20265053.931   -28484672.51749 -22181774.50448  20265053.485    20265056.680
  24466844.794    -6132791.24549  -4767559.20345  24466845.266    24466850.048
  24356247.356    -7489404.75549  -5811880.82445  24356247.091    24356253.329
  22841421.276   -12773159.14449  -9399714.66546  22841421.313    22841425.084
  20995312.108   -22296634.78949 -17354692.34847  20995311.808    20995315.843
 04  5 22  1 53  0.0000000  0  7G16G13G20G 4G11G25G 1
  22045948.094   -13288007.76349 -10334889.26347  22045947.878    22045951.736
  23714398.862   -10708860.24249  -8299189.21645  23714399.163    23714403.722
  20264200.390   -28489158.04449 -22185269.72548  20264199.946    20264203.142
  24459109.549    -6173440.38449  -4799233.82645  24459109.922    24459114.849
  24373174.493    -7400453.14849  -5742568.05145  24373174.182    24373180.361
  22857143.760   -12690537.09649  -9335333.87746  22857143.788    22857147.569
  20988714.079   -22331307.68849 -17381710.17947  20988713.786    20988717.803
 04  5 22  1 53 30.0000000  0  7G16G13G20G 4G11G25G 1
  22034259.429   -13349432.07249 -10382752.32847  22034259.210    22034263.050
  23699331.660   -10788037.82849  -8360885.93545  23699332.054    23699336.670
  20263451.431   -28493093.86449 -22188336.60348  20263450.975    20263454.180
  24451469.697    -6213587.77649  -4830517.47845  24451470.040    24451475.157
  24390099.682    -7311511.04649  -5673262.68345  24390099.355    24390105.731
  22872891.061   -12607784.43349  -9270851.31246  22872891.097    22872894.862
  20982151.802   -22365792.45249 -17408581.41047  20982151.519    20982155.536
 04  5 22  1 54  0.0000000  0  7G16G13G20G 4G11G25G 1
  22022654.722   -13410414.96849 -10430271.41447  22022654.494    22022658.329
  23684275.919   -10867156.52149  -8422536.79045  23684276.207    23684280.706
  20262807.085   -28496479.95549 -22190975.12248  20262806.621    20262809.836
  24443925.435    -6253232.89649  -4861409.75245  24443925.813    24443931.116
  24407022.474    -7222581.65249  -5603967.23845  24407022.080    24407028.532
  22888662.799   -12524903.55149  -9206268.83846  22888662.809    22888666.597
  20975625.291   -22400089.53049 -17435306.39847  20975624.997    20975629.048
 04  5 22  1 54 30.0000000  0  7G16G13G20G 4G11G25G 1
  22011134.491   -13470954.10849 -10477444.73047  22011134.229    22011138.079
  23669231.226   -10946216.14749  -8484141.61545  23669231.582    23669235.989
  20262267.467   -28499315.77149 -22193184.85948  20262267.014    20262270.222
  24436477.007    -6292375.09149  -4891910.19845  24436477.289    24436482.404
  24423942.215    -7133668.13649  -5534684.15145  24423941.937    24423948.365
  22904458.505   -12441896.43449  -9141587.99946  22904458.533    22904462.375
  20969134.526   -22434198.65149 -17461884.92547  20969134.240    20969138.289
 04  5 22  1 55  0.0000000  0  7G16G13G20G 4G11G25G 1
  21999698.855   -13531048.44249 -10524271.44347  21999698.606    21999702.471
  23654197.705   -11025217.75849  -8545701.23345  23654198.020    23654202.431
  20261832.537   -28501601.44149 -22194965.91248  20261832.076    20261835.283
  24429124.178    -6331014.23249  -4922018.60145  24429124.359    24429129.490
  24440858.275    -7044774.13549  -5465416.29745  24440858.005    24440864.475
  22920277.680   -12358766.29249  -9076811.29146  22920277.722    22920281.588
  20962679.339   -22468120.74649 -17488317.71847  20962679.059    20962683.115
 04  5 22  1 55 30.0000000  0  7G16G13G20G 4G11G25G 1
  21988349.020   -13590691.97249 -10570746.87947  21988348.773    21988352.635
  23639175.999   -11104157.42449  -8607212.60145  23639176.329    23639180.609
  20261503.016   -28503333.10749 -22196315.27348  20261502.554    20261505.779
  24421867.988    -6369146.32249  -4951731.91745  24421868.212    24421873.092
  24457770.816    -6955898.81549  -5396163.00145  24457770.547    24457777.180
  22936120.659   -12275511.26449  -9011937.27046  22936120.674    22936124.545
  20956260.471   -22501852.09649 -17514601.87747  20956260.193    20956264.228
 04  5 22  1 56  0.0000000  0  7G16G13G20G 4G11G25G 1
  21977084.669   -13649886.49749 -10616872.44047  21977084.401    21977088.267
  23624165.241   -11183039.32349  -8668678.94245  23624165.500    23624169.846
  20261278.306   -28504513.96049 -22197235.42748  20261277.839    20261281.075
  24414707.595    -6406774.17849  -4981052.30145  24414707.899    24414712.882
  24474678.519    -6867049.25849  -5326929.77645  24474678.243    24474684.795
  22951986.278   -12192137.20249  -8946970.50746  22951986.271    22951990.122
  20949877.216   -22535396.44349 -17540740.31947  20949876.932    20949880.936
 04  5 22  1 56 30.0000000  0  7G16G13G20G 4G11G25G 1
  21965906.824   -13708626.34149 -10662643.71147  21965906.589    21965910.425
  23609166.188   -11261859.84749  -8730097.44945  23609166.364    23609170.749
  20261159.180   -28505140.14349 -22197723.37248  20261158.692    20261161.939
  24407643.937    -6443893.73649  -5009976.62345  24407644.209    24407649.386
  24491581.389    -6778224.74049  -5257716.06045  24491581.160    24491587.501
  22967874.736   -12108642.75649  -8881909.95546  22967874.741    22967878.612
  20943530.202   -22568750.16349 -17566730.21947  20943529.936    20943533.930
 04  5 22  1 57  0.0000000  0  7G16G13G20G 4G11G25G 1
  21954815.601   -13766910.88849 -10708060.19147  21954815.358    21954819.200
  23594178.420   -11340620.25549  -8791469.12245  23594178.640    23594183.074
  20261145.360   -28505212.71049 -22197779.92748  20261144.881    20261148.127
  24400676.934    -6480505.57549  -5038505.33245  24400677.343    24400682.313
  24508478.759    -6689429.55049  -5188525.20845  24508478.393    24508485.055
  22983785.428   -12025031.55149  -8816758.40746  22983785.476    22983789.305
  20937219.159   -22601914.83149 -17592572.81247  20937218.885    20937222.891
 04  5 22  1 57 30.0000000  0  7G16G13G20G 4G11G25G 1
  21943811.663   -13824736.65649 -10753119.19247  21943811.406    21943815.259
  23579202.497   -11419319.39449  -8852793.06345  23579202.718    23579207.058
  20261237.236   -28504729.87049 -22197403.69848  20261236.768    20261240.009
  24393806.757    -6516608.03449  -5066637.13145  24393807.198    24393812.200
  24525370.161    -6600665.48349  -5119358.60045  24525369.869    24525376.326
  22999718.238   -11941304.23849  -8751516.38746  22999718.276    22999722.134
  20930944.354   -22634889.05749 -17618267.00747  20930944.079    20930948.090
 04  5 22  1 58  0.0000000  0  7G16G13G20G 4G11G25G 1
  21932895.479   -13882101.23549 -10797818.82347  21932895.253    21932899.093
  23564238.225   -11497956.76349  -8914068.88145  23564238.417    23564242.756
  20261434.923   -28503691.03349 -22196594.22848  20261434.461    20261437.691
  24387033.768    -6552199.89649  -5094371.00945  24387034.168    24387039.482
  24542255.116    -6511934.92249  -5050218.12945  24542254.750    24542261.433
  23015672.775   -11857462.57049  -8686185.25446  23015672.801    23015676.715
  20924705.927   -22667672.23049 -17643812.32747  20924705.648    20924709.636
 04  5 22  1 58 30.0000000  0  7G16G13G20G 4G11G25G 1
  21922067.412   -13939002.93949 -10842157.76447  21922067.179    21922071.017
  23549285.741   -11576532.46949  -8975296.64645  23549285.919    23549290.285
  20261738.463   -28502096.03149 -22195351.37948  20261738.011    20261741.238
  24380358.217    -6587281.19249  -5121707.11645  24380358.518    24380363.473
  24559133.106    -6423241.21049  -4981106.33845  24559132.845    24559139.416
  23031648.661   -11773508.91049  -8620766.85946  23031648.691    23031652.608
  20918503.774   -22700264.80649 -17669209.12747  20918503.481    20918507.458
 04  5 22  1 59  0.0000000  0  7G16G13G20G 4G11G25G 1
  21911327.960   -13995438.91449 -10886133.81347  21911327.743    21911331.575
  23534344.930   -11655046.21149  -9036476.11745  23534345.192    23534349.549
  20262147.979   -28499943.95049 -22193674.44548  20262147.537    20262150.780
  24373779.841    -6621850.29549  -5148644.06345  24373780.182    24373785.028
  24576003.668    -6334586.61249  -4912025.05045  24576003.596    24576010.065
  23047645.574   -11689444.63749  -8555262.25246  23047645.627    23047649.501
  20912337.999   -22732666.05549 -17694456.84047  20912337.710    20912341.689
 04  5 22  1 59 30.0000000  0  7G16G13G20G 4G11G25G 1
  21900677.579   -14051406.90749 -10929745.19347  21900677.347    21900681.190
  23519416.111   -11733497.58849  -9097606.98945  23519416.397    23519420.699
  20262663.665   -28497233.88249 -22191562.71748  20262663.220    20262666.498
  24367299.122    -6655906.45849  -5175181.31445  24367299.458    24367304.473
  24592866.313    -6245973.90949  -4842976.39745  24592866.134    24592872.825
  23063663.336   -11605271.01649  -8489672.46446  23063663.348    23063667.271
  20906208.756   -22764875.40549 -17719555.02447  20906208.463    20906212.443
 04  5 22  2  0  0.0000000  0  7G16G13G20G 4G11G25G 1
  21890116.594   -14106905.37549 -10972990.72047  21890116.338    21890120.118
  23504499.076   -11811886.65049  -9158689.30445  23504499.424    23504503.649
  20263285.453   -28493966.30849 -22189016.56048  20263285.000    20263288.285
  24360916.167    -6689449.47049  -5201318.71245  24360916.438    24360921.544
  24609720.365    -6157405.96149  -4773962.63745  24609720.294    24609727.052
  23079701.386   -11520990.59349  -8423999.45546  23079701.435    23079705.337
  20900115.952   -22796893.20749 -17744503.94347  20900115.651    20900119.647
 04  5 22  2  0 30.0000000  0  7G16G13G20G 4G11G25G 1
  21879645.447   -14161931.41849 -11015868.11347  21879645.217    21879648.964
  23489594.130   -11890212.31349  -9219722.21945  23489594.463    23489598.715
  20264013.663   -28490139.65649 -22186034.76348  20264013.206    20264016.507
  24354631.011    -6722477.77049  -5227055.03645  24354631.339    24354636.573
  24626565.436    -6068884.95249  -4704985.44245  24626565.523    24626572.162
  23095759.589   -11436604.44749  -8358244.06546  23095759.608    23095763.561
  20894059.804   -22828718.33249 -17769302.73447  20894059.504    20894063.511
 04  5 22  2  1  0.0000000  0  7G16G13G20G 4G11G25G 1
  21869264.781   -14216482.13949 -11058375.13947  21869264.533    21869268.267
  23474701.361   -11968474.11049  -9280705.37545  23474701.632    23474705.964
  20264848.392   -28485752.97949 -22182616.58548  20264847.948    20264851.240
  24348444.150    -6754990.22249  -5252389.43645  24348444.482    24348449.495
  24643401.205    -5980412.84649  -4636046.36045  24643401.307    24643407.881
  23111837.598   -11352113.93349  -8292407.34446  23111837.608    23111841.634
  20888040.462   -22860350.08349 -17793950.84847  20888040.171    20888044.188
 04  5 22  2  1 30.0000000  0  7G16G13G20G 4G11G25G 1
  21858974.924   -14270555.76949 -11100510.38647  21858974.647    21858978.367
  23459820.746   -12046671.88949  -9341638.63545  23459821.044    23459825.330
  20265789.757   -28480806.21749 -22178761.98048  20265789.316    20265792.624
  24342355.342    -6786986.35849  -5277321.45745  24342355.758    24342360.846
  24660227.107    -5891992.67049  -4567147.72145  24660227.329    24660233.904
  23127935.065   -11267521.06549  -8226490.86546  23127935.124    23127939.122
  20882057.985   -22891788.34649 -17818448.18247  20882057.682    20882061.702
 04  5 22  2  2  0.0000000  0  7G16G13G20G 4G11G25G 1
  21848776.091   -14324150.64749 -11142272.60447  21848775.817    21848779.550
  23444952.365   -12124805.84849  -9402522.16745  23444952.557    23444956.849
  20266837.677   -28475299.36049 -22174470.92948  20266837.230    20266840.539
  24336365.052    -6818466.00249  -5301851.06645  24336365.475    24336370.472
  24677042.574    -5803627.69349  -4498292.11945  24677042.579    24677049.428
  23144051.614   -11182828.12149  -8160496.42446  23144051.687    23144055.672
  20876112.254   -22923033.30349 -17842794.88647  20876111.948    20876115.937
 04  5 22  2  2 30.0000000  0  7G16G13G20G 4G11G25G 1
  21838669.138   -14377263.07049 -11183658.87347  21838668.854    21838672.555
  23430096.310   -12202874.43349  -9463354.76345  23430096.552    23430100.825
  20267992.560   -28469230.54949 -22169741.99248  20267992.131    20267995.420
  24330473.313    -6849427.20149  -5325976.64945  24330473.614    24330478.937
  24693847.355    -5715319.19749  -4429480.51045  24693847.366    24693854.347
  23160187.244   -11098035.37649  -8094424.19946  23160187.307    23160191.281
  20870203.684   -22954083.10749 -17866989.52447  20870203.389    20870207.358
 04  5 22  2  3  0.0000000  0  7G16G13G20G 4G11G25G 1
  21828653.829   -14429893.53649 -11224669.58647  21828653.577    21828657.288
  23415252.311   -12280879.71949  -9524138.02545  23415252.558    23415256.883
  20269253.937   -28462601.97549 -22164576.87148  20269253.508    20269256.792
  24324679.869    -6879871.74749  -5349699.67445  24324680.195    24324685.481
  24710640.374    -5627072.19249  -4360716.83145  24710640.379    24710647.345
  23176341.037   -11013146.91049  -8028277.38646  23176341.143    23176345.010
  20864331.813   -22984939.92049 -17891033.78248  20864331.524    20864335.493
 04  5 22  2  3 30.0000000  0  7G16G13G20G 4G11G25G 1
  21818731.393   -14482036.28049 -11265300.26447  21818731.127    21818734.815
  23400421.146   -12358817.89049  -9584869.00945  23400421.276    23400425.728
  20270622.621   -28455409.62749 -22158972.45648  20270622.190    20270625.461
  24318985.443    -6909795.35749  -5373016.75945  24318985.846    24318991.243
  24727421.871    -5538885.89049  -4292000.47745  24727421.771    24727428.839
  23192513.287   -10928161.34649  -7962054.91746  23192513.387    23192517.273
  20858497.335   -23015600.05549 -17914924.79748  20858497.053    20858501.026
 04  5 22  2  4  0.0000000  0  6G16G13G20G 4G25G 1
  21808901.892   -14533690.46149 -11305550.23647  21808901.632    21808905.299
  23385602.469   -12436689.73449  -9645548.27545  23385602.664    23385607.126
  20272098.385   -28447654.54349 -22152929.54548  20272097.939    20272101.231
  24313390.182    -6939198.67849  -5395928.43045  24313390.490    24313395.842
  23208703.538   -10843081.34649  -7895758.85946  23208703.599    23208707.495
  20852700.207   -23046064.14249 -17938663.03648  20852699.936    20852703.896
 04  5 22  2  4 30.0000000  0  6G16G13G20G 4G25G 1
  21799166.064   -14584852.34649 -11345416.61047  21799165.821    21799169.481
  23370796.833   -12514493.42249  -9706174.44945  23370797.064    23370801.438
  20273681.584   -28439334.72549 -22146446.59048  20273681.143    20273684.408
  24307894.464    -6968079.63149  -5418433.06745  24307894.684    24307899.945
  23224911.747   -10757906.91349  -7829389.21546  23224911.798    23224915.651
  20846940.796   -23076330.14649 -17962246.92948  20846940.523    20846944.454
 04  5 22  2  5  0.0000000  0  6G16G13G20G 4G25G 1
  21789523.914   -14635522.06849 -11384899.46047  21789523.697    21789527.334
  23356004.007   -12592230.51049  -9766748.70545  23356004.205    23356008.497
  20275371.942   -28430451.93849 -22139524.94948  20275371.482    20275374.764
  24302497.731    -6996439.59849  -5440531.72745  24302497.971    24302503.272
  23241137.175   -10672641.91249  -7762948.98246  23241137.205    23241141.059
  20841218.708   -23106399.94149 -17985677.92748  20841218.415    20841222.355
 04  5 22  2  5 30.0000000  0  6G16G13G20G 4G25G 1
  21779975.327   -14685700.11549 -11423999.20747  21779975.097    21779978.737
  23341223.231   -12669903.58049  -9827273.08945  23341223.367    23341227.680
  20277168.976   -28421008.46049 -22132166.41148  20277168.518    20277171.818
  24297199.804    -7024280.41149  -5462225.88045  24297200.108    24297205.302
  23257379.044   -10587290.44449  -7696441.38046  23257379.092    23257382.927
  20835533.546   -23136275.81349 -18008957.82348  20835533.260    20835537.185
 04  5 22  2  6  0.0000000  0  6G16G13G20G 4G25G 1
  21770521.468   -14735380.34649 -11462711.03347  21770521.212    21770524.858
  23326455.560   -12747508.12349  -9887744.09145  23326455.671    23326459.974
  20279073.547   -28410999.87649 -22124367.52648  20279073.090    20279076.399
  24292001.429    -7051597.92549  -5483512.25845  24292001.707    24292006.943
  23273637.814   -10501850.09949  -7629864.52346  23273637.896    23273641.716
  20829886.086   -23165953.36449 -18032083.18048  20829885.800    20829889.720
 04  5 22  2  6 30.0000000  0  6G16G13G20G 4G25G 1
  21761162.639   -14784561.02349 -11501033.61247  21761162.391    21761166.038
  23311700.999   -12825043.96649  -9948161.56045  23311701.075    23311705.332
  20281085.669   -28400426.14849 -22116128.26948  20281085.217    20281088.527
  24286902.857    -7078391.62849  -5504390.46745  24286903.127    24286908.282
  23289913.188   -10416322.67549  -7563219.83946  23289913.198    23289917.094
  20824276.479   -23195432.06249 -18055053.58248  20824276.174    20824280.124
 04  5 22  2  7  0.0000000  0  6G16G13G20G 4G25G 1
  21751898.600   -14833243.56449 -11538968.02347  21751898.384    21751902.017
  23296958.808   -12902514.32249 -10008527.99845  23296958.892    23296963.092
  20283204.711   -28389290.57349 -22107451.20648  20283204.260    20283207.579
  24281903.322    -7104664.48749  -5524862.85045  24281903.627    24281908.745
  23306204.104   -10330713.95149  -7496511.75446  23306204.142    23306208.013
  20818704.015   -23224715.34749 -18077871.71348  20818703.721    20818707.673
 04  5 22  2  7 30.0000000  0  6G16G13G20G 4G25G 1
  21742730.906   -14881420.06149 -11576508.10247  21742730.681    21742734.318
  23282230.241   -12979912.83749 -10068838.44545  23282230.408    23282234.622
  20285431.812   -28377587.06449 -22098331.59848  20285431.358    20285434.676
  24277004.048    -7130410.15449  -5544924.39845  24277004.329    24277009.494
  23322511.259   -10245019.37349  -7429736.80846  23322511.272    23322515.147
  20813169.937   -23253796.92049 -18100532.67248  20813169.653    20813173.630
 04  5 22  2  8  0.0000000  0  6G16G13G20G 4G25G 1
  21733658.916   -14929093.65449 -11613656.32547  21733658.681    21733662.284
  23267514.533   -13057244.18549 -10129096.55745  23267514.664    23267518.859
  20287766.096   -28365320.37849 -22088773.16048  20287765.632    20287768.994
  24272204.334    -7155633.20749  -5564578.74745  24272204.623    24272209.741
  23338833.515   -10159245.43549  -7362900.01746  23338833.522    23338837.447
  20807673.398   -23282681.30749 -18123039.98348  20807673.118    20807677.087
 04  5 22  2  8 30.0000000  0  6G16G13G20G 4G25G 1
  21724683.610   -14976259.05149 -11650408.54747  21724683.375    21724686.965
  23252812.277   -13134504.70749 -10189299.49346  23252812.443    23252816.576
  20290208.148   -28352487.10349 -22078773.22148  20290207.692    20290211.072
  24267504.562    -7180330.00949  -5583823.00845  24267504.835    24267510.006
  23355171.162   -10073390.67149  -7296000.22446  23355171.202    23355175.089
  20802215.087   -23311364.82049 -18145390.76648  20802214.806    20802218.802
 04  5 22  2  9  0.0000000  0  6G16G13G20G 4G25G 1
  21715805.267   -15022914.97649 -11686763.77747  21715805.031    21715808.611
  23238123.497   -13211694.71549 -10249447.48046  23238123.652    23238127.713
  20292758.006   -28339087.58049 -22068332.04748  20292757.546    20292760.951
  24262904.960    -7204500.71349  -5602657.32545  24262905.160    24262910.436
  23371523.851    -9987456.99349  -7229038.97746  23371523.850    23371527.791
  20796795.002   -23339847.60349 -18167585.13548  20796794.719    20796798.724
 04  5 22  2  9 30.0000000  0  6G16G13G20G 4G25G 1
  21707023.829   -15069061.51649 -11722722.08447  21707023.600    21707027.178
  23223447.715   -13288815.86449 -10309541.80846  23223447.882    23223451.976
  20295415.254   -28325123.87349 -22057451.25048  20295414.787    20295418.197
  24258405.208    -7228146.92149  -5621082.94545  24258405.365    24258410.686
  23387890.719    -9901448.67949  -7162019.54646  23387890.730    23387894.714
  20791412.765   -23368131.40149 -18189624.45348  20791412.495    20791416.518
 04  5 22  2 10  0.0000000  0  6G16G13G20G 4G25G 1
  21698340.389   -15114693.15149 -11758279.17047  21698340.152    21698343.742
  23208785.824   -13365864.21049 -10369579.41246  23208786.031    23208790.077
  20298180.567   -28310592.11349 -22046127.80848  20298180.112    20298183.479
  24254006.046    -7251264.69249  -5639096.79345  24254006.271    24254011.496
  23404272.271    -9815363.13549  -7094939.94046  23404272.299    23404276.283
  20786069.192   -23396212.05649 -18211505.47048  20786068.904    20786072.912
 04  5 22  2 10 30.0000000  0  6G16G13G20G 4G25G 1
  21689754.593   -15159811.70549 -11793436.44047  21689754.366    21689757.957
  23194137.297   -13442842.60349 -10429562.52446  23194137.512    23194141.468
  20301053.279   -28295496.05049 -22034364.65448  20301052.814    20301056.178
  24249706.961    -7273857.29149  -5656701.42845  24249707.187    24249712.346
  23420667.481    -9729205.80049  -7027804.39246  23420667.500    23420671.575
  20780763.698   -23424092.71049 -18233230.63948  20780763.417    20780767.413
 04  5 22  2 11  0.0000000  0  6G16G13G20G 4G25G 1
  21681267.211   -15204412.80349 -11828190.51447  21681267.001    21681270.604
  23179502.567   -13519748.57549 -10489489.19946  23179502.754    23179506.684
  20304033.839   -28279833.06849 -22022159.74648  20304033.380    20304036.754
  24245508.140    -7295922.03449  -5673894.72445  24245508.334    24245513.532
  23437076.491    -9642975.83049  -6960612.27646  23437076.499    23437080.692
  20775496.739   -23451770.56849 -18254797.78348  20775496.453    20775500.479
 04  5 22  2 11 30.0000000  0  6G16G13G20G 4G25G 1
  21672878.782   -15248494.09349 -11862539.53547  21672878.589    21672882.201
  23164881.810   -13596580.83649 -10549358.43646  23164882.005    23164885.904
  20307122.416   -28263602.47549 -22009512.54948  20307121.952    20307125.319
  24241410.092    -7317457.72349  -5690675.77245  24241410.251    24241415.421
  23453499.164    -9556674.23449  -6893364.32246  23453499.180    23453503.387
  20770268.601   -23479244.57749 -18276206.08948  20770268.312    20770272.327
 04  5 22  2 12  0.0000000  0  6G16G13G20G 4G25G 1
  21664589.218   -15292055.86149 -11896483.74147  21664589.017    21664592.625
  23150274.730   -13673341.46649 -10609171.86546  23150274.948    23150278.855
  20310318.587   -28246806.56649 -21996424.84748  20310318.129    20310321.507
  24237412.266    -7338466.76549  -5707046.45745  24237412.359    24237417.668
  23469934.796    -9470304.60749  -6826063.34346  23469934.792    23469938.989
  20765078.906   -23506516.65049 -18297457.04848  20765078.615    20765082.620
 04  5 22  2 12 30.0000000  0  6G16G13G20G 4G25G 1
  21656399.368   -15335093.83149 -11930019.79147  21656399.147    21656402.734
  23135681.810   -13750027.27249 -10668926.99746  23135682.050    23135685.971
  20313622.876   -28229442.50349 -21982894.43048  20313622.432    20313625.801
  24233515.172    -7358946.02849  -5723004.32145  24233515.326    24233520.669
  23486383.586    -9383865.64449  -6758708.35246  23486383.556    23486387.819
  20759928.247   -23533583.53449 -18318548.12348  20759927.941    20759931.959
 04  5 22  2 13  0.0000000  0  6G16G13G20G 4G25G 1
  21648308.783   -15377609.91649 -11963149.16947  21648308.578    21648312.156
  23121102.463   -13826641.98449 -10728626.71846  23121102.714    23121106.580
  20317034.528   -28211514.18749 -21968924.33648  20317034.070    20317037.447
  24229718.121    -7378899.09349  -5738552.17745  24229718.334    24229723.669
  23502844.472    -9297363.37849  -6691304.03946  23502844.429    23502848.731
  20754815.971   -23560448.65749 -18339481.98348  20754815.680    20754819.693
 04  5 22  2 13 30.0000000  0  6G16G13G20G 4G25G 1
  21640318.625   -15419598.42549 -11995867.46847  21640318.409    21640321.968
  23106537.553   -13903180.93349 -10788267.40146  23106537.817    23106541.721
  20320554.299   -28193017.72949 -21954511.52748  20320553.833    20320557.202
  24226022.095    -7398321.86249  -5753686.79745  24226022.374    24226027.626
  23519317.836    -9210795.21049  -6623848.36246  23519317.825    23519322.126
  20749742.936   -23587107.58849 -18360255.17848  20749742.642    20749746.632
 04  5 22  2 14  0.0000000  0  6G16G13G20G 4G25G 1
  21632428.922   -15461058.97449 -12028174.34647  21632428.721    21632432.261
  23091986.960   -13979644.63449 -10847849.45646  23091987.190    23091991.100
  20324181.931   -28173954.46149 -21939657.04248  20324181.472    20324184.847
  24222426.857    -7417215.30949  -5768408.97045  24222427.133    24222432.288
  23535803.335    -9124163.55249  -6556343.21746  23535803.332    23535807.638
  20744709.040   -23613560.94849 -18380868.18448  20744708.767    20744712.763
 04  5 22  2 14 30.0000000  0  6G16G13G20G 4G25G 1
  21624640.406   -15501987.68849 -12060066.81947  21624640.193    21624643.750
  23077451.152   -14056030.63549 -10907370.96646  23077451.403    23077455.298
  20327917.815   -28154322.36649 -21924359.31748  20327917.356    20327920.741
  24218932.485    -7435577.11449  -5782716.86045  24218932.882    24218938.096
  23552301.013    -9037467.97949  -6488788.25846  23552300.982    23552305.309
  20739714.755   -23639806.07049 -18401318.91948  20739714.465    20739718.464
 04  5 22  2 15  0.0000000  0  6G16G13G20G 4G25G 1
  21616952.492   -15542387.97449 -12091547.53447  21616952.265    21616955.799
  23062929.147   -14132343.95049 -10966835.82446  23062929.397    23062933.316
  20331760.888   -28134126.85849 -21908622.56748  20331760.425    20331763.816
  24215538.572    -7453412.49949  -5796614.57245  24215538.891    24215544.197
  23568809.521    -8950715.29649  -6421188.79646  23568809.503    23568813.852
  20734759.158   -23665847.85849 -18421611.21048  20734758.865    20734762.872
 04  5 22  2 15 30.0000000  0  6G16G13G20G 4G25G 1
  21609366.331   -15582253.28649 -12122611.38247  21609366.117    21609369.642
  23048422.027   -14208578.94049 -11026239.66146  23048422.260    23048426.217
  20335712.136   -28113362.90749 -21892442.88248  20335711.680    20335715.072
  24212245.791    -7470716.17349  -5810097.95145  24212246.021    24212251.355
  23585329.493    -8863902.33649  -6353542.37946  23585329.416    23585333.810
  20729843.239   -23691681.00049 -18441740.92348  20729842.949    20729846.962
 04  5 22  2 16  0.0000000  0  6G16G13G20G 4G25G 1
  21601881.899   -15621584.12849 -12153258.77147  21601881.689    21601885.198
  23033929.452   -14284737.67949 -11085584.07646  23033929.682    23033933.687
  20339771.068   -28092033.12149 -21875822.28948  20339770.630    20339774.002
  24209053.736    -7487490.49449  -5823168.86545  24209054.020    24209059.311
  23601860.241    -8777032.68049  -6285851.80546  23601860.163    23601864.622
  20724966.727   -23717307.11649 -18461709.32048  20724966.424    20724970.472
 04  5 22  2 16 30.0000000  0  6G16G13G20G 4G25G 1
  21594499.849   -15660376.91549 -12183486.88647  21594499.619    21594503.136
  23019451.855   -14360817.58749 -11144867.06346  23019452.105    23019456.118
  20343938.032   -28070135.53149 -21858759.24848  20343937.595    20343940.998
  24205962.875    -7503733.16849  -5835825.50445  24205963.220    24205968.389
  23618401.910    -8690105.75149  -6218116.57546  23618401.861    23618406.296
  20720130.137   -23742723.49749 -18481514.28348  20720129.843    20720133.887
 04  5 22  2 17  0.0000000  0  6G16G13G20G 4G25G 1
  21587219.775   -15698633.77549 -12213297.39947  21587219.559    21587223.064
  23004988.706   -14436821.62449 -11204090.92346  23004988.958    23004992.973
  20348212.350   -28047673.92549 -21841256.71348  20348211.896    20348215.330
  24202972.318    -7519447.88149  -5848070.72645  24202972.761    24202977.882
  23634953.526    -8603126.62249  -6150340.67046  23634953.492    23634957.864
  20715332.817   -23767933.54049 -18501158.46348  20715332.524    20715336.596
 04  5 22  2 17 30.0000000  0  7G16G13G20G 4G27G25G 1
  21580040.958   -15736358.47049 -12242693.24147  21580040.749    21580044.230
  22990539.045   -14512754.85849 -11263259.61346  22990539.301    22990543.289
  20352592.880   -28024654.14149 -21823319.24248  20352592.433    20352595.860
  24200081.561    -7534640.11749  -5859908.85645  24200081.802    24200086.949
  24825358.831    -2993628.77959  -2317463.53845  24825358.573    24825367.618
  23651513.762    -8516102.11549  -6082529.41046  23651513.748    23651518.179
  20710573.805   -23792942.15749 -18520645.69348  20710573.528    20710577.586
 04  5 22  2 18  0.0000000  0  7G16G13G20G 4G27G25G 1
  21572966.234   -15773536.36549 -12271662.99947  21572966.016    21572969.462
  22976105.411   -14588604.04749 -11322362.80446  22976105.703    22976109.612
  20357082.104   -28001063.20149 -21804936.70548  20357081.656    20357085.100
  24197292.493    -7549296.88749  -5871329.70645  24197292.803    24197297.936
  24809194.933    -3078569.18449  -2383650.70345  24809194.673    24809203.734
  23668084.679    -8429021.11849  -6014674.13746  23668084.686    23668089.146
  20705855.698   -23817735.90149 -18539965.48748  20705855.425    20705859.460
 04  5 22  2 18 30.0000000  0  7G16G13G20G 4G27G25G 1
  21565995.072   -15810169.90349 -12300208.58247  21565994.853    21565998.326
  22961687.223   -14664371.97049 -11381402.67846  22961687.495    22961691.435
  20361679.260   -27976905.13549 -21786112.25348  20361678.803    20361682.247
  24194604.502    -7563421.84849  -5882336.16745  24194604.873    24194610.101
  24793056.885    -3163374.31449  -2449732.45845  24793056.664    24793065.594
  23684665.436    -8341888.75449  -5946778.83846  23684665.457    23684669.890
  20701177.866   -23842317.95049 -18559120.32448  20701177.593    20701181.634
 04  5 22  2 19  0.0000000  0  7G16G13G20G 4G27G25G 1
  21559127.787   -15846257.65149 -12328328.87947  21559127.547    21559131.033
  22947284.430   -14740058.71549 -11440379.28546  22947284.725    22947288.645
  20366384.171   -27952180.74149 -21766846.51648  20366383.716    20366387.169
  24192017.983    -7577015.24949  -5892928.43945  24192018.205    24192023.503
  24776944.664    -3248043.84349  -2515708.53545  24776944.309    24776953.428
  23701255.682    -8254706.46449  -5878844.65146  23701255.751    23701260.209
  20696540.379   -23866687.97849 -18578109.94748  20696540.093    20696544.155
 04  5 22  2 19 30.0000000  0  7G16G13G20G 4G27G25G 1
  21552365.010   -15881795.94749 -12356021.03147  21552364.778    21552368.307
  22932897.568   -14815661.87949 -11499290.76846  22932897.876    22932901.763
  20371197.228   -27926887.98849 -21747137.89848  20371196.784    20371200.248
  24189532.519    -7590075.45549  -5903105.20345  24189532.855    24189538.153
  24760858.779    -3332575.04549  -2581576.83945  24760858.575    24760867.489
  23717855.635    -8167473.44549  -5810870.90946  23717855.729    23717860.160
  20691943.741   -23890843.48049 -18596932.40248  20691943.456    20691947.515
 04  5 22  2 20  0.0000000  0  7G16G13G20G 4G27G25G 1
  21545706.053   -15916788.92249 -12383288.26047  21545705.818    21545709.345
  22918525.692   -14891186.29749 -11558140.88946  22918525.995    22918529.833
  20376117.331   -27901032.72849 -21726990.95748  20376116.878    20376120.346
  24187147.764    -7602607.41249  -5912870.37445  24187148.066    24187153.362
  24744798.263    -3416972.54149  -2647340.93145  24744798.023    24744806.963
  23734463.810    -8080197.06649  -5742863.41246  23734463.882    23734468.317
  20687386.980   -23914789.32049 -18615591.49148  20687386.710    20687390.753
 04  5 22  2 20 30.0000000  0  7G16G13G20G 4G27G25G 1
  21539152.177   -15951229.70649 -12410125.19947  21539151.926    21539155.481
  22904169.997   -14966625.61749 -11616924.72046  22904170.293    22904174.131
  20381145.423   -27874609.91549 -21706401.77248  20381144.967    20381148.455
  24184864.358    -7614606.10649  -5922219.99245  24184864.767    24184870.188
  24728764.383    -3501230.38249  -2712996.19345  24728764.153    24728773.079
  23751081.058    -7992873.13149  -5674818.83846  23751081.108    23751085.576
  20682871.294   -23938519.41549 -18634082.46848  20682871.026    20682875.057
 04  5 22  2 21  0.0000000  0  7G16G13G20G 4G27G25G 1
  21532702.883   -15985120.73149 -12436533.75947  21532702.640    21532706.182
  22889829.820   -15041983.61249 -11675645.16446  22889830.091    22889833.893
  20386280.694   -27847623.93249 -21685373.75948  20386280.232    20386283.719
  24182681.863    -7626075.69749  -5931157.36245  24182682.187    24182687.447
  24712756.365    -3585351.95949  -2778545.28345  24712756.205    24712765.174
  23767706.426    -7905506.80649  -5606741.25046  23767706.449    23767710.898
  20678395.981   -23962037.41549 -18652408.17148  20678395.695    20678399.738
 04  5 22  2 21 30.0000000  0  7G16G13G20G 4G27G25G 1
  21526358.923   -16018458.49049 -12462511.20747  21526358.672    21526362.211
  22875505.559   -15117257.75049 -11734300.27946  22875505.838    22875509.589
  20391523.471   -27820073.11849 -21663905.60848  20391523.002    20391526.501
  24180600.464    -7637014.28049  -5939680.92645  24180600.618    24180605.884
  24696774.889    -3669334.65849  -2843986.15845  24696774.719    24696783.629
  23784339.905    -7818097.37149  -5538630.01945  23784339.965    23784344.355
  20673961.516   -23985340.63849 -18670566.52148  20673961.234    20673965.262
 04  5 22  2 22  0.0000000  0  7G16G13G20G 4G27G25G 1
  21520120.202   -16051242.87249 -12488057.44347  21520119.951    21520123.496
  22861197.213   -15192448.49849 -11792890.41646  22861197.453    22861201.152
  20396873.448   -27791958.80949 -21641998.36948  20396872.999    20396876.477
  24178619.644    -7647422.98049  -5947791.60045  24178619.859    24178625.198
  24680819.793    -3753178.68349  -2909319.00945  24680819.624    24680828.527
  23800981.174    -7730647.43849  -5470487.25545  23800981.244    23800985.614
  20669567.853   -24008429.45349 -18688557.80248  20669567.566    20669571.594
 04  5 22  2 22 30.0000000  0  7G16G13G20G 4G27G25G 1
  21513987.156   -16083472.04249 -12513171.05947  21513986.907    21513990.434
  22846904.803   -15267555.23249 -11851415.08246  22846905.066    22846908.740
  20402330.583   -27763281.43449 -21619652.37448  20402330.141    20402333.626
  24176739.827    -7657301.81549  -5955489.39745  24176740.021    24176745.219
  24664891.164    -3836883.51549  -2974543.38445  24664891.002    24664899.832
  23817629.756    -7643158.47649  -5402314.09445  23817629.838    23817634.169
  20665215.080   -24031303.33749 -18706381.60048  20665214.809    20665218.835
 04  5 22  2 23  0.0000000  0  7G16G13G20G 4G27G25G 1
  21507960.050   -16115144.51049 -12537850.87647  21507959.829    21507963.324
  22832628.622   -15342576.91249 -11909873.47746  22832628.891    22832632.508
  20407894.820   -27734041.27649 -21596867.84948  20407894.369    20407897.864
  24174960.844    -7666650.81649  -5962774.35045  24174961.032    24174966.287
  24648989.249    -3920448.05149  -3039658.44045  24648989.070    24648997.729
  23834285.573    -7555631.59049  -5334111.37245  23834285.678    23834290.033
  20660903.353   -24053961.54549 -18724037.34148  20660903.094    20660907.116
 04  5 22  2 23 30.0000000  0  7G16G13G20G 4G27G25G 1
  21502039.370   -16146257.87149 -12562095.02247  21502039.128    21502042.615
  22818368.956   -15417511.78049 -11968264.22346  22818369.221    22818372.812
  20413566.303   -27704237.48849 -21573644.13748  20413565.852    20413569.360
  24173282.688    -7675468.99449  -5969645.65345  24173283.004    24173288.207
  24633114.347    -4003870.66449  -3104662.91445  24633114.210    24633122.681
  23850948.556    -7468067.12249  -5265879.34845  23850948.622    23850952.984
  20656633.050   -24076402.16749 -18741523.53448  20656632.781    20656636.796
 04  5 22  2 24  0.0000000  0  7G16G13G20G 4G27G25G 1
  21496225.220   -16176811.37949 -12585902.91947  21496224.993    21496228.475
  22804125.738   -15492360.16949 -12026587.59246  22804126.022    22804129.583
  20419344.819   -27673871.29849 -21549982.19448  20419344.382    20419347.881
  24171705.409    -7683757.14549  -5976103.95745  24171705.737    24171711.021
  24617266.409    -4087151.25349  -3169556.71145  24617266.242    24617274.777
  23867618.415    -7380466.66149  -5197619.28445  23867618.491    23867622.740
  20652404.128   -24098625.40249 -18758840.32348  20652403.848    20652407.870
 04  5 22  2 24 30.0000000  0  7G16G13G20G 4G27G25G 1
  21490517.676   -16206804.60749 -12609274.23647  21490517.464    21490520.904
  22789898.986   -15567121.98949 -12084843.51346  22789899.261    22789902.843
  20425230.106   -27642943.89049 -21525882.96048  20425229.658    20425233.173
  24170229.095    -7691516.28949  -5982150.06545  24170229.248    24170234.467
  24601445.430    -4170290.09149  -3234340.07445  24601445.334    24601453.756
  23884294.695    -7292832.35849  -5129332.84245  23884294.796    23884299.037
  20648216.543   -24120631.30249 -18775987.76848  20648216.277    20648220.275
 04  5 22  2 25  0.0000000  0  7G16G13G20G 4G27G25G 1
  21484916.879   -16236236.91849 -12632208.48347  21484916.662    21484920.103
  22775688.672   -15641797.53949 -12143032.20946  22775688.959    22775692.542
  20431221.987   -27611456.50249 -21501347.35448  20431221.530    20431225.075
  24168853.097    -7698747.64549  -5987784.88745  24168853.190    24168858.494
  24585651.509    -4253287.33349  -3299013.09945  24585651.328    24585659.725
  23900977.006    -7205166.52949  -5061021.83345  23900977.038    23900981.348
  20644070.266   -24142420.05749 -18792966.01248  20644069.988    20644073.993
 04  5 22  2 25 30.0000000  0  7G16G13G20G 4G27G25G 1
  21479423.517   -16265104.60449 -12654702.75247  21479423.285    21479426.734
  22761495.345   -15716383.81649 -12201151.33046  22761495.615    22761499.181
  20437320.780   -27579407.13249 -21476373.84048  20437320.338    20437323.873
  24167577.623    -7705448.99849  -5993006.71945  24167577.944    24167583.202
  24569885.050    -4336139.79749  -3363573.30745  24569884.963    24569893.318
  23917665.579    -7117467.76649  -4992685.18045  23917665.595    23917669.905
  20639965.900   -24163988.49549 -18809772.57548  20639965.629    20639969.642
 04  5 22  2 26  0.0000000  0  7G16G13G20G 4G27G25G 1
  21474037.669   -16293407.33249 -12676756.80147  21474037.443    21474040.886
  22747318.988   -15790880.90749 -12259200.96646  22747319.259    22747322.804
  20443526.245   -27546797.31249 -21450963.61648  20443525.802    20443529.320
  24166402.856    -7711621.13949  -5997816.17045  24166403.337    24166408.694
  24554146.214    -4418847.53449  -3428020.74045  24554146.119    24554154.327
  23934360.017    -7029738.27549  -4924324.55745  23934360.067    23934364.236
  20635903.404   -24185336.87649 -18826407.66748  20635903.142    20635907.160
 04  5 22  2 26 30.0000000  0  7G16G13G20G 4G27G25G 1
  21468759.563   -16321143.83349 -12698369.62547  21468759.327    21468762.773
  22733159.695   -15865288.28749 -12317180.68746  22733159.971    22733163.500
  20449838.214   -27513627.71249 -21425117.19148  20449837.752    20449841.303
  24165328.919    -7717265.00849  -6002213.99145  24165329.390    24165334.692
  24538434.862    -4501410.41549  -3492355.30045  24538434.766    24538443.052
  23951059.991    -6941979.38949  -4855941.04245  23951060.016    23951064.296
  20631882.906   -24206464.73049 -18842870.91848  20631882.635    20631886.671
 04  5 22  2 27  0.0000000  0  7G16G13G20G 4G27G25G 1
  21463589.158   -16348314.22049 -12719541.32147  21463588.947    21463592.386
  22719017.326   -15939606.55049 -12375090.97346  22719017.602    22719021.104
  20456256.373   -27479900.16149 -21398836.01048  20456255.929    20456259.466
  24164355.438    -7722381.74349  -6006201.05745  24164355.765    24164361.037
  24522751.028    -4583828.87049  -3556577.31445  24522750.964    24522759.105
  23967765.031    -6854193.85549  -4787536.76145  23967765.042    23967769.314
  20627904.256   -24227372.75549 -18859162.87948  20627903.989    20627908.025
 04  5 22  2 27 30.0000000  0  7G16G13G20G 4G27G25G 1
  21458527.164   -16374915.20749 -12740269.33747  21458526.961    21458530.346
  22704892.520   -16013832.77849 -12432929.54446  22704892.800    22704896.293
  20462780.969   -27445613.24749 -21372118.95248  20462780.522    20462784.077
  24163482.934    -7726970.06949  -6009776.39845  24163482.689    24163487.831
  24507095.119    -4666100.12749  -3620684.62345  24507095.151    24507103.201
  23984475.249    -6766380.87149  -4719111.10045  23984475.313    23984479.617
  20623967.959   -24248058.05849 -18875281.29148  20623967.684    20623971.723
 04  5 22  2 28  0.0000000  0  7G16G13G20G 4G27G25G 1
  21453573.228   -16400948.11049 -12760554.68947  21453573.041    21453576.423
  22690784.802   -16087969.10749 -12490698.05846  22690785.076    22690788.595
  20469411.407   -27410770.12449 -21344968.49248  20469410.962    20469414.513
  24162710.106    -7731032.67749  -6012942.06645  24162709.564    24162714.881
  24491466.943    -4748226.38649  -3684678.95445  24491466.820    24491474.993
  24001190.074    -6678543.94849  -4650666.78845  24001190.092    24001194.473
  20620073.660   -24268522.68449 -18891227.74848  20620073.380    20620077.421
 04  5 22  2 28 30.0000000  0  7G16G13G20G 4G27G25G 1
  21448727.948   -16426410.00849 -12780395.10147  21448727.765    21448731.149
  22676694.685   -16162013.04649 -12548394.57846  22676694.961    22676698.493
  20476147.898   -27375369.69449 -21317383.75948  20476147.438    20476151.002
  24162037.257    -7734568.23449  -6015697.04745  24162036.800    24162042.024
  24475866.699    -4830205.05149  -3748558.25745  24475866.621    24475874.743
  24017909.529    -6590682.70549  -4582203.51645  24017909.617    24017914.046
  20616221.837   -24288764.13449 -18907000.29948  20616221.567    20616225.584
 04  5 22  2 29  0.0000000  0  7G16G13G20G 4G27G25G 1
  21443991.611   -16451299.44649 -12799789.44147  21443991.444    21443994.814
  22662622.387   -16235963.46049 -12606018.21046  22662622.643    22662626.156
  20482990.391   -27339412.13649 -21289364.89948  20482989.951    20482993.512
  24161464.503    -7737576.82049  -6018041.40345  24161464.346    24161469.537
  24460294.884    -4912035.06349  -3812321.74345  24460294.700    24460302.763
  24034633.501    -6502797.92449  -4513721.90845  24034633.560    24034637.960
  20612412.696   -24308781.34449 -18922598.11048  20612412.414    20612416.444
 04  5 22  2 29 30.0000000  0  7G16G13G20G 4G27G25G 1
  21439364.362   -16475615.74649 -12818737.17947  21439364.207    21439367.573
  22648567.919   -16309820.01349 -12663568.71946  22648568.163    22648571.643
  20489938.705   -27302898.54249 -21260912.77148  20489938.261    20489941.839
  24160991.489    -7740059.39249  -6019975.88445  24160991.903    24160997.189
  24444751.301    -4993716.47649  -3875969.42745  24444751.191    24444759.192
  24051361.647    -6414891.26149  -4445223.24045  24051361.649    24051366.089
  20608646.218   -24328574.21049 -18938021.11548  20608645.951    20608649.964
 04  5 22  2 30  0.0000000  0  7G16G13G20G 4G27G25G 1
  21434846.423   -16499357.62949 -12837237.32147  21434846.255    21434849.628
  22634531.420   -16383581.88849 -12721045.44846  22634531.730    22634535.193
  20496992.729   -27265829.42849 -21232027.76948  20496992.297    20496995.874
  24160618.510    -7742016.04449  -6021500.55045  24160619.491    24160624.813
  24429236.181    -5075248.29549  -3939500.56045  24429236.112    24429244.061
  24068093.753    -6326963.61449  -4376708.23845  24068093.745    24068098.267
  20604922.698   -24348141.41049 -18953268.27548  20604922.429    20604926.434
 04  5 22  2 30 30.0000000  0  7G16G13G20G 4G27G25G 1
  21430437.880   -16522524.57949 -12855289.46447  21430437.697    21430441.053
  22620513.000   -16457248.90749 -12778448.26546  22620513.295    22620516.787
  20504152.227   -27228206.02049 -21202710.84348  20504151.791    20504155.386
  24160345.783    -7743447.61749  -6022616.07645  24160347.079    24160352.395
  24413749.560    -5156630.67349  -4002915.23645  24413749.394    24413757.290
  24084829.478    -6239016.80949  -4308178.30446  24084829.469    24084834.029
  20601242.097   -24367483.13949 -18968339.74548  20601241.827    20601245.828
 04  5 22  2 31  0.0000000  0  7G16G13G20G 4G27G25G 1
  21426139.096   -16545114.82149 -12872892.23247  21426138.893    21426142.262
  22606512.964   -16530819.62749 -12835776.04346  22606513.236    22606516.704
  20511417.207   -27190028.29949 -21172961.99248  20511416.782    20511420.368
  24160172.927    -7744354.15349  -6023322.48445  24160174.539    24160179.847
  24398291.527    -5237862.17049  -4066212.35545  24398291.325    24398299.355
  24101568.808    -6151051.29649  -4239633.79946  24101568.781    24101573.436
  20597604.689   -24386597.85849 -18983234.32848  20597604.425    20597608.423
 04  5 22  2 31 30.0000000  0  7G16G13G20G 4G27G25G 1
  21421949.893   -16567129.24049 -12890046.29647  21421949.653    21421953.055
  22592530.914   -16604295.39249 -12893029.83846  22592531.186    22592534.631
  20518787.136   -27151299.16249 -21142783.47748  20518786.700    20518790.326
  24160099.583    -7744737.95249  -6023621.55345  24160101.571    24160106.899
  24382862.040    -5318944.25149  -4129393.04745  24382861.726    24382869.757
  24118311.132    -6063069.84849  -4171076.87745  24118311.101    24118315.779
  20594010.227   -24405486.80449 -18997952.98848  20594009.954    20594013.953
 04  5 22  2 32  0.0000000  0  7G16G13G20G 4G27G25G 1
  21417870.793   -16588564.87849 -12906749.36947  21417870.567    21417873.956
  22578567.550   -16677673.18449 -12950207.28446  22578567.813    22578571.246
  20526262.213   -27112017.25749 -21112174.22348  20526261.795    20526265.438
  24160125.950    -7744597.79449  -6023512.36345  24160128.181    24160133.666
  24367461.485    -5399874.32849  -4192455.30545  24367461.188    24367469.087
  24135056.512    -5975072.28949  -4102507.39545  24135056.528    24135061.207
  20590459.235   -24424147.25449 -19012493.60248  20590458.982    20590462.969
 04  5 22  2 32 30.0000000  0  7G16G13G20G 4G27G25G 1
  21413901.880   -16609421.56949 -12923001.31447  21413901.674    21413905.050
  22564622.862   -16750952.88649 -13007308.30446  22564623.127    22564626.536
  20533842.232   -27072184.11449 -21081135.43648  20533841.797    20533845.452
  24160251.799    -7743935.03449  -6022995.94645  24160254.304    24160259.832
  24352089.768    -5480652.36449  -4255399.09445  24352089.579    24352097.403
  24151804.712    -5887060.17649  -4033926.58945  24151804.674    24151809.422
  20586951.759   -24442579.13249 -19026856.09948  20586951.490    20586955.483
 04  5 22  2 33  0.0000000  0  7G16G13G20G 4G27G25G 1
  21410043.294   -16629698.57649 -12938801.55647  21410043.096    21410046.429
  22550696.835   -16824134.28449 -13064332.71846  22550697.127    22550700.480
  20541526.929   -27031800.89649 -21049668.01548  20541526.497    20541530.148
  24160477.410    -7742750.24149  -6022072.77245  24160479.908    24160485.306
  24336747.071    -5561278.28749  -4318224.34645  24336746.831    24336754.770
  24168555.382    -5799034.99449  -3965335.57445  24168555.328    24168560.062
  20583487.825   -24460782.28049 -19041040.36148  20583487.548    20583491.534
 04  5 22  2 33 30.0000000  0  7G16G13G20G 4G27G25G 1
  21406295.044   -16649395.65249 -12954149.91047  21406294.850    21406298.165
  22536789.575   -16897217.38249 -13121280.53846  22536789.846    22536793.194
  20549316.016   -26990869.16349 -21017773.17648  20549315.595    20549319.252
  24160802.511    -7741045.01949  -6020744.04545  24160804.463    24160809.716
  24321433.357    -5641752.21149  -4380931.15745  24321433.122    24321440.998
  24185308.153    -5710998.76349  -3896735.97145  24185308.170    24185312.956
  20580067.380   -24478756.69349 -19055046.39448  20580067.106    20580071.086
 04  5 22  2 34  0.0000000  0  7G16G13G20G 4G27G25G 1
  21402657.621   -16668510.31949 -12969044.42947  21402657.419    21402660.741
  22522901.509   -16970199.34849 -13178149.56246  22522901.779    22522905.137
  20557209.601   -26949388.14849 -20985450.32548  20557209.160    20557212.836
  24161227.019    -7738818.07349  -6019008.76945  24161228.239    24161233.563
  24306148.867    -5722071.95449  -4443517.82945  24306148.674    24306156.393
  24202063.210    -5622950.69349  -3828127.12545  24202063.180    24202067.989
  20576690.983   -24496499.80549 -19068872.19548  20576690.723    20576694.692
 04  5 22  2 34 30.0000000  0  7G16G13G20G 4G27G25G 1
  21399130.972   -16687042.84149 -12983485.33847  21399130.780    21399134.079
  22509032.521   -17043081.15249 -13234940.53246  22509032.791    22509036.171
  20565207.304   -26907359.92149 -20952701.07748  20565206.864    20565210.557
  24161750.589    -7736071.34549  -6016868.47445  24161750.928    24161756.279
  24290893.659    -5802238.08349  -4505984.80345  24290893.454    24290901.160
  24218819.979    -5534893.20449  -3759510.92945  24218819.959    24218824.711
  20573358.494   -24514012.14549 -19082518.16548  20573358.220    20573362.188
 04  5 22  2 35  0.0000000  0  7G16G13G20G 4G27G25G 1
  21395715.113   -16704993.02549 -12997472.47847  21395714.955    21395718.258
  22495182.673   -17115862.40649 -13291653.14846  22495182.949    22495186.326
  20573308.845   -26864786.17149 -20919526.74848  20573308.425    20573312.105
  24162372.588    -7732806.43549  -6014324.39745  24162372.228    24162377.488
  24275667.634    -5882250.75149  -4568332.20645  24275667.485    24275675.108
  24235578.322    -5446827.67249  -3690888.47545  24235578.378    24235583.182
  20570069.937   -24531293.68149 -19095984.29748  20570069.667    20570073.637
 04  5 22  2 35 30.0000000  0  7G16G13G20G 4G27G25G 1
  21392410.542   -16722358.70549 -13011004.14847  21392410.352    21392413.651
  22481352.375   -17188541.05849 -13348285.82946  22481352.624    22481355.997
  20581514.246   -26821666.46149 -20885926.99448  20581513.824    20581517.511
  24163092.739    -7729022.35349  -6011375.77345  24163092.199    24163097.548
  24260471.176    -5962108.10649  -4630558.57445  24260471.035    24260478.686
  24252338.140    -5358754.25749  -3622259.87345  24252338.265    24252342.998
  20566825.677   -24548342.29849 -19109268.93448  20566825.413    20566829.380
 04  5 22  2 36  0.0000000  0  7G16G13G20G 4G27G25G 1
  21389217.383   -16739138.75449 -13024079.48847  21389217.153    21389220.487
  22467541.804   -17261115.86849 -13404837.58746  22467542.034    22467545.418
  20589823.516   -26778001.09249 -20851902.05248  20589823.082    20589826.800
  24163911.089    -7724719.72649  -6008023.10045  24163911.022    24163916.363
  24245304.471    -6041809.15249  -4692663.14345  24245304.325    24245311.900
  24269099.334    -5270673.67549  -3553625.70245  24269099.363    24269104.036
  20563625.996   -24565156.71049 -19122371.06848  20563625.718    20563629.710
 04  5 22  2 36 30.0000000  0  7G16G13G20G 4G27G25G 1
  21386135.931   -16755331.67449 -13036697.33347  21386135.746    21386139.051
  22453751.300   -17333585.07349 -13461307.06646  22453751.541    22453754.923
  20598236.523   -26733790.40549 -20817452.19348  20598236.088    20598239.813
  24164828.078    -7719898.22549  -6004266.12945  24164828.747    24164833.892
  24230167.731    -6121352.71749  -4754645.00645  24230167.494    24230175.145
  24285861.882    -5182586.17749  -3484986.12145  24285861.878    24285866.480
  20560471.186   -24581735.40149 -19135289.53248  20560470.912    20560474.914
 04  5 22  2 37  0.0000000  0  7G16G13G20G 4G27G25G 1
  21383166.039   -16770938.47349 -13048858.45247  21383165.852    21383169.116
  22439980.728   -17405949.60949 -13517694.98246  22439980.955    22439984.368
  20606752.826   -26689037.08649 -20782579.49648  20606752.392    20606756.119
  24165844.242    -7714560.24249  -6000106.67745  24165844.634    24165849.694
  24215060.745    -6200739.77349  -4816504.91245  24215060.603    24215068.222
  24302625.247    -5094494.38649  -3416343.19945  24302625.303    24302629.828
  20557361.012   -24598079.51249 -19148025.20248  20557360.725    20557364.723
 04  5 22  2 37 30.0000000  0  7G16G13G20G 4G27G25G 1
  21380307.488   -16785960.06849 -13060563.56847  21380307.301    21380310.551
  22426229.843   -17478210.63749 -13574002.23546  22426230.104    22426233.531
  20615371.822   -26643743.98749 -20747286.19548  20615371.385    20615375.129
  24166958.393    -7708708.55249  -5995546.90945  24166958.133    24166963.214
  24199983.264    -6279971.77049  -4878243.97945  24199983.150    24199990.697
  24319388.793    -5006401.21749  -3347699.20545  24319388.887    24319393.423
  20554295.223   -24614190.08249 -19160578.87948  20554294.948    20554298.940
 04  5 22  2 38  0.0000000  0  7G16G13G20G 4G27G25G 1
  21377560.973   -16800393.11349 -13071810.07147  21377560.773    21377563.993
  22412499.348   -17550364.71249 -13630226.15546  22412499.599    22412503.013
  20624093.844   -26597909.39949 -20711570.96348  20624093.417    20624097.172
  24168170.167    -7702341.44449  -5990585.54945  24168169.675    24168174.839
  24184935.914    -6359045.54249  -4939859.76845  24184935.798    24184943.308
  24336152.954    -4918305.08849  -3279052.88145  24336153.052    24336157.622
  20551274.567   -24630063.79349 -19172948.00048  20551274.309    20551278.296
 04  5 22  2 38 30.0000000  0  7G16G13G20G 4G27G25G 1
  21374926.601   -16814236.81449 -13082597.35247  21374926.406    21374929.618
  22398789.435   -17622410.59449 -13686365.76346  22398789.691    22398793.079
  20632918.735   -26551534.36149 -20675434.59448  20632918.298    20632922.058
  24169478.805    -7695459.40849  -5985222.97345  24169479.248    24169484.378
  24169918.835    -6437960.45249  -5001351.76845  24169918.704    24169926.201
  24352917.510    -4830207.06449  -3210405.10245  24352917.516    24352922.182
  20548299.134   -24645699.69849 -19185131.81648  20548298.869    20548302.843
 04  5 22  2 39  0.0000000  0  7G16G13G20G 4G27G25G 1
  21372404.424   -16827490.81949 -13092925.12647  21372404.232    21372407.455
  22385100.206   -17694347.85549 -13742420.74546  22385100.478    22385103.859
  20641846.267   -26504620.06149 -20638878.02148  20641845.827    20641849.582
  24170886.384    -7688063.49549  -5979459.95845  24170886.783    24170891.823
  24154931.993    -6516716.19849  -5062719.75245  24154931.879    24154939.395
  24369682.126    -4742108.27549  -3141756.72045  24369682.191    24369686.806
  20545369.116   -24661097.15049 -19197129.83148  20545368.847    20545372.836
 04  5 22  2 39 30.0000000  0  7G16G13G20G 4G27G25G 1
  21369994.300   -16840155.83249 -13102793.94247  21369994.131    21369997.345
  22371431.538   -17766176.93049 -13798391.42746  22371431.810    22371435.179
  20650875.895   -26457169.11149 -20601903.27448  20650875.456    20650879.219
  24172391.692    -7680156.23649  -5973298.44945  24172391.392    24172396.580
  24139975.205    -6595313.79349  -5123964.51545  24139975.143    24139982.618
  24386446.327    -4654011.23249  -3073109.72045  24386446.324    24386451.023
  20542484.332   -24676256.81149 -19208942.55548  20542484.064    20542488.050
 04  5 22  2 40  0.0000000  0  7G16G13G20G 4G27G25G 1
  21367696.590   -16852230.51249 -13112202.76947  21367696.402    21367699.604
  22357783.779   -17837896.25249 -13854276.58646  22357784.048    22357787.414
  20660007.588   -26409181.85849 -20564510.63348  20660007.155    20660010.922
  24173993.322    -7671737.68049  -5966738.58045  24173993.412    24173998.548
  24125048.758    -6673751.96949  -5185085.04845  24125048.647    24125056.166
  24403210.237    -4565916.28149  -3004464.34745  24403210.339    24403214.964
  20539645.034   -24691177.30149 -19220568.91148  20539644.770    20539648.763
 04  5 22  2 40 30.0000000  0  7G16G13G20G 4G27G25G 1
  21365511.247   -16863714.43549 -13121151.25247  21365511.064    21365514.282
  22344157.103   -17909505.09149 -13910075.64046  22344157.342    22344160.696
  20669241.129   -26360659.49649 -20526701.02348  20669240.672    20669244.431
  24175692.231    -7662808.80749  -5959781.04145  24175692.537    24175697.746
  24110152.781    -6752030.34149  -5246081.05945  24110152.589    24110160.128
  24419973.578    -4477824.46349  -2935821.37945  24419973.744    24419978.373
  20536851.436   -24705857.77049 -19232008.23048  20536851.174    20536855.191
 04  5 22  2 41  0.0000000  0  7G16G13G20G 4G27G25G 1
  21363438.556   -16874606.32149 -13129638.41747  21363438.369    21363441.604
  22330551.686   -17981001.91549 -13965787.42346  22330551.950    22330555.272
  20678576.362   -26311602.63549 -20488474.93348  20678575.890    20678579.647
  24177488.491    -7653369.77249  -5952425.96545  24177488.664    24177493.975
  24095287.470    -6830147.69549  -5306951.60945  24095287.320    24095294.800
  24436736.276    -4389736.00249  -2867181.03645  24436736.420    24436741.034
  20534103.808   -24720296.75449 -19243259.38148  20534103.526    20534107.553
 04  5 22  2 41 30.0000000  0  7G16G13G20G 4G27G25G 1
  21361478.291   -16884907.48849 -13137665.28847  21361478.116    21361481.361
  22316967.413   -18052387.48849 -14021412.51746  22316967.695    22316970.993
  20688012.789   -26262014.09449 -20449834.55348  20688012.337    20688016.093
  24179380.972    -7643423.39549  -5944675.59245  24179381.412    24179386.752
  24080452.534    -6908105.22349  -5367697.61345  24080452.330    24080459.823
  24453497.811    -4301653.64049  -2798545.48845  24453497.856    24453502.552
  20531401.898   -24734495.22249 -19254323.11948  20531401.616    20531405.675
 04  5 22  2 42  0.0000000  0  7G16G13G20G 4G27G25G 1
  21359630.938   -16894615.38249 -13145229.85847  21359630.715    21359633.965
  22303404.886   -18123659.05849 -14076948.76346  22303405.174    22303408.450
  20697550.515   -26211893.13649 -20410779.28848  20697550.064    20697553.813
  24181370.784    -7632968.66349  -5936529.06245  24181370.985    24181376.250
  24065648.476    -6985900.62349  -5428317.28045  24065648.289    24065655.627
  24470258.381    -4213576.45449  -2729913.94845  24470258.403    24470263.204
  20528746.271   -24748450.61149 -19265197.44048  20528746.015    20528750.073
 04  5 22  2 42 30.0000000  0  7G16G13G20G 4G27G25G 1
  21357896.135   -16903732.04649 -13152333.73347  21357895.887    21357899.138
  22289863.712   -18194818.22649 -14132397.43446  22289864.008    22289867.234
  20707188.909   -26161243.18349 -20371311.81548  20707188.462    20707192.213
  24183456.504    -7622009.08749  -5927989.16645  24183456.561    24183461.828
  24050874.837    -7063536.05449  -5488812.30445  24050874.696    24050881.994
  24487017.301    -4125508.08149  -2661289.28145  24487017.361    24487022.020
  20526136.580   -24762164.53549 -19275883.61448  20526136.302    20526140.372
 04  5 22  2 43  0.0000000  0  7G16G13G20G 4G27G25G 1
  21356274.489   -16912253.69949 -13158973.96647  21356274.259    21356277.503
  22276344.815   -18265860.49049 -14187755.00346  22276345.097    22276348.305
  20716928.311   -26110062.40549 -20331430.72048  20716927.869    20716931.628
  24185638.380    -7610542.18149  -5919053.95345  24185638.650    24185643.901
  24036132.398    -7141007.58649  -5549179.61145  24036132.232    24036139.493
  24503775.006    -4037446.01949  -2592669.53945  24503775.089    24503779.764
  20523573.689   -24775632.69549 -19286378.28348  20523573.426    20523577.484
 04  5 22  2 43 30.0000000  0  7G16G13G20G 4G27G25G 1
  21354765.616   -16920182.80249 -13165152.47147  21354765.374    21354768.617
  22262847.699   -18336788.30649 -14243023.39246  22262847.971    22262851.112
  20726767.896   -26058355.10149 -20291139.34848  20726767.457    20726771.215
  24187916.381    -7598572.21249  -5909726.73845  24187916.444    24187921.719
  24021420.676    -7218317.73949  -5609421.16345  24021420.487    24021427.709
  24520530.814    -3949393.90649  -2524057.53645  24520530.799    24520535.617
  20521057.124   -24788857.36549 -19296683.22248  20521056.848    20521060.895
 04  5 22  2 44  0.0000000  0  7G16G13G20G 4G27G25G 1
  21353369.653   -16927518.69149 -13170868.72547  21353369.430    21353372.637
  22249372.683   -18407599.89849 -14298201.21946  22249372.930    22249376.072
  20736707.535   -26006122.03149 -20250438.27547  20736707.096    20736710.882
  24190289.632    -7586099.62949  -5900007.87945  24190289.971    24190295.132
  24006739.848    -7295465.61549  -5669536.27645  24006739.630    24006746.866
  24537284.637    -3861352.35149  -2455453.72945  24537284.671    24537289.454
  20518587.111   -24801837.30349 -19306797.45448  20518586.848    20518590.873
 04  5 22  2 44 30.0000000  0  7G16G13G20G 4G27G25G 1
  21352086.978   -16934259.17449 -13176121.02847  21352086.738    21352089.956
  22235920.157   -18478293.05049 -14353286.75746  22235920.453    22235923.591
  20746747.274   -25953362.87749 -20209327.27247  20746746.826    20746750.619
  24192759.154    -7573123.92449  -5889896.96745  24192759.162    24192764.372
  23992090.293    -7372449.14449  -5729523.31845  23992090.032    23992097.271
  24554036.541    -3773320.72249  -2386857.68645  24554036.584    24554041.350
  20516164.126   -24814570.15049 -19316719.14448  20516163.855    20516167.875
 04  5 22  2 45  0.0000000  0  7G16G13G20G 4G27G25G 1
  21350917.244   -16940406.10449 -13180910.82847  21350917.008    21350920.221
  22222490.004   -18548868.83549 -14408280.84446  22222490.290    22222493.406
  20756886.523   -25900080.82449 -20167808.81647  20756886.067    20756889.873
  24195323.444    -7559648.12749  -5879396.38445  24195323.496    24195328.831
  23977471.691    -7449270.00349  -5789383.61445  23977471.482    23977478.696
  24570785.906    -3685302.36149  -2318271.94645  24570785.939    24570790.618
  20513787.921   -24827057.26649 -19326449.36048  20513787.650    20513791.652
 04  5 22  2 45 30.0000000  0  7G16G13G20G 4G27G25G 1
  21349860.872   -16945957.11049 -13185236.27147  21349860.659    21349863.866
  22209082.789   -18619324.11949 -14463181.02446  22209083.072    22209086.207
  20767125.379   -25846275.48849 -20125882.60347  20767124.929    20767128.721
  24197983.086    -7545671.60949  -5868505.62445  24197983.125    24197988.463
  23962884.530    -7525925.85149  -5849115.31445  23962884.281    23962891.459
  24587532.976    -3597296.01649  -2249695.61345  24587532.975    24587537.762
  20511459.017   -24839295.68249 -19335985.78248  20511458.753    20511462.765
 04  5 22  2 46  0.0000000  0  7G16G13G20G 4G27G25G 1
  21348917.729   -16950913.17149 -13189098.12147  21348917.522    21348920.745
  22195698.426   -18689659.27149 -14517987.60046  22195698.708    22195701.868
  20777463.362   -25791949.17249 -20083550.43547  20777462.912    20777466.688
  24200737.351    -7531196.60449  -5857226.44145  24200737.738    24200742.974
  23948328.568    -7602417.52049  -5908719.09245  23948328.278    23948335.434
  24604277.441    -3509303.60349  -2181130.10545  24604277.413    24604282.223
  20509177.325   -24851285.85549 -19345328.76748  20509177.062    20509181.081
 04  5 22  2 46 30.0000000  0  7G16G13G20G 4G27G25G 1
  21348087.792   -16955274.30249 -13192496.38247  21348087.606    21348090.818
  22182336.971   -18759873.97949 -14572700.31546  22182337.258    22182340.418
  20787900.062   -25737104.00149 -20040813.96547  20787899.617    20787903.382
  24203586.698    -7516224.76449  -5845560.11345  24203586.845    24203592.171
  23933803.933    -7678744.89849  -5968194.84545  23933803.623    23933810.744
  24621018.847    -3421326.56149  -2112576.60745  24621018.853    24621023.777
  20506942.991   -24863027.33249 -19354477.96448  20506942.729    20506946.742
 04  5 22  2 47  0.0000000  0  7G16G13G20G 4G27G25G 1
  21347371.323   -16959039.45449 -13195430.24847  21347371.112    21347374.321
  22168998.812   -18829966.31849 -14627317.68346  22168999.091    22169002.279
  20798435.441   -25681740.26249 -19997673.43547  20798435.003    20798438.762
  24206530.189    -7500756.28749  -5833506.79245  24206530.418    24206535.803
  23919310.726    -7754906.80249  -6027541.67445  23919310.416    23919317.544
  24637757.412    -3333364.82249  -2044035.03545  24637757.425    24637762.295
  20504756.299   -24874518.50549 -19363432.12548  20504756.043    20504760.055
 04  5 22  2 47 30.0000000  0  7G16G13G20G 4G27G25G 1
  21346768.224   -16962208.77149 -13197899.83047  21346768.000    21346771.197
  22155684.137   -18899935.36249 -14681838.98146  22155684.419    22155687.631
  20809069.251   -25625859.53049 -19954130.04847  20809068.811    20809072.556
  24209567.823    -7484792.64849  -5821067.64645  24209568.145    24209573.535
  23904849.016    -7830902.79349  -6086759.21745  23904848.778    23904855.818
  24654492.900    -3245419.73449  -1975506.42145  24654492.810    24654497.766
  20502617.389   -24885758.69749 -19372190.72048  20502617.133    20502621.137
 04  5 22  2 48  0.0000000  0  7G16G13G20G 4G27G25G 1
  21346278.413   -16964782.63349 -13199905.41547  21346278.189    21346281.367
  22142392.899   -18969781.08749 -14736264.18946  22142393.180    22142396.370
  20819800.959   -25569464.09049 -19910185.57247  20819800.522    20819804.265
  24212699.308    -7468335.96649  -5808244.29845  24212699.837    24212705.089
  23890418.828    -7906733.54149  -6145847.99345  23890418.558    23890425.575
  24671224.761    -3157492.97349  -1906992.12845  24671224.716    24671229.900
  20500526.193   -24896748.08249 -19380753.87448  20500525.931    20500529.927
 04  5 22  2 48 30.0000000  0  7G16G13G20G 4G27G25G 1
  21345902.153   -16966759.78949 -13201446.04247  21345901.940    21345905.103
  22129125.596   -19039501.11549 -14790591.44946  22129125.895    22129129.043
  20830630.578   -25512554.29249 -19865840.30447  20830630.125    20830633.862
  24215925.026    -7451386.13849  -5795036.67945  24215925.264    24215930.568
  23876020.386    -7982397.42649  -6204806.75745  23876020.105    23876027.055
  24687953.315    -3069584.42649  -1838492.00145  24687953.226    24687958.330
  20498483.114   -24907484.49349 -19389119.90748  20498482.846    20498486.834
 04  5 22  2 49  0.0000000  0  7G16G13G20G 4G27G25G 1
  21345639.400   -16968140.47049 -13202521.87647  21345639.182    21345642.359
  22115882.340   -19109094.72949 -14844820.21046  22115882.633    22115885.771
  20841557.732   -25455131.80149 -19821095.53247  20841557.280    20841561.026
  24219243.994    -7433944.64249  -5781445.92945  24219244.297    24219249.594
  23861653.718    -8057894.20549  -6263635.30845  23861653.521    23861660.318
  24704678.147    -2981694.92849  -1770006.75145  24704678.087    24704683.261
  20496488.267   -24917967.47349 -19397288.45648  20496488.007    20496491.988
 04  5 22  2 49 30.0000000  0  7G16G13G20G 4G27G25G 1
  21345489.952   -16968925.70249 -13203133.72547  21345489.735    21345492.912
  22102663.052   -19178562.55949 -14898950.95446  22102663.325    22102666.445
  20852581.897   -25397199.59349 -19775953.57847  20852581.438    20852585.206
  24222655.908    -7416014.51149  -5767474.46045  24222656.354    24222661.597
  23847318.629    -8133225.22549  -6322334.69345  23847318.415    23847325.159
  24721398.995    -2893826.69149  -1701538.06245  24721398.881    24721404.023
  20494541.558   -24928197.45949 -19405259.86548  20494541.304    20494545.295
 04  5 22  2 50  0.0000000  0  7G16G13G20G 4G27G25G 1
  21345453.945   -16969114.72549 -13203280.99647  21345453.740    21345456.956
  22089468.007   -19247902.71949 -14952982.21446  22089468.299    22089471.431
  20863702.912   -25338758.32949 -19730414.95947  20863702.449    20863706.228
  24226160.917    -7397595.94649  -5753122.37245  24226161.258    24226166.627
  23833015.398    -8208389.05649  -6380903.81145  23833015.147    23833021.887
  24738115.801    -2805979.82949  -1633086.01545  24738115.848    24738120.775
  20492643.315   -24938172.82749 -19413032.87348  20492643.048    20492647.059
 04  5 22  2 50 30.0000000  0  7G16G13G20G 4G27G25G 1
  21345531.454   -16968707.35849 -13202963.55147  21345531.216    21345534.443
  22076297.602   -19317113.75649 -15006912.86247  22076297.857    22076300.987
  20874920.530   -25279809.32249 -19684480.70047  20874920.084    20874923.877
  24229758.561    -7378690.17249  -5738390.64945  24229759.057    24229764.339
  23818744.059    -8283385.10449  -6439342.19345  23818743.907    23818750.506
  24754828.370    -2718154.96249  -1564651.10945  24754828.389    24754833.146
  20490793.704   -24947892.50849 -19420606.64948  20490793.439    20490797.454
 04  5 22  2 51  0.0000000  0  7G16G13G20G 4G27G25G 1
  21345722.591   -16967702.85649 -13202180.80547  21345722.364    21345725.551
  22063152.004   -19386194.19249 -15060741.73647  22063152.268    22063155.394
  20886234.613   -25220353.50749 -19638151.52147  20886234.161    20886237.968
  24233448.954    -7359297.93449  -5723279.85145  24233449.292    24233454.503
  23804504.761    -8358212.60249  -6497649.24545  23804504.584    23804511.211
  24771536.663    -2630352.44649  -1496233.61545  24771536.682    24771541.542
  20488993.013   -24957355.15049 -19427980.13448  20488992.765    20488996.762
 04  5 22  2 51 30.0000000  0  7G16G13G20G 4G27G25G 1
  21346027.109   -16966102.55149 -13200933.80047  21346026.893    21346030.036
  22050031.129   -19455144.49749 -15114469.22347  22050031.421    22050034.554
  20897644.605   -25160393.73449 -19591429.64947  20897644.152    20897647.979
  24237231.096    -7339421.86249  -5707792.03545  24237231.533    24237236.832
  23790297.379    -8432872.45349  -6555825.65845  23790297.140    23790303.759
  24788240.384    -2542573.87449  -1427834.76345  24788240.458    24788245.062
  20487241.150   -24966561.14949 -19435153.64448  20487240.908    20487244.894
 04  5 22  2 52  0.0000000  0  7G16G13G20G 4G27G25G 1
  21346445.133   -16963905.86049 -13199222.07247  21346444.904    21346448.057
  22036935.410   -19523962.85549 -15168093.89147  22036935.707    22036938.875
  20909150.334   -25099930.78449 -19544315.68547  20909149.877    20909153.721
  24241105.394    -7319062.69949  -5691927.80445  24241105.891    24241111.250
  23776122.219    -8507363.37849  -6613870.45745  23776121.923    23776128.549
  24804939.476    -2454819.78249  -1359454.95545  24804939.568    24804944.189
  20485538.412   -24975509.00549 -19442126.00348  20485538.157    20485542.163
 04  5 22  2 52 30.0000000  0  7G16G13G20G 4G27G25G 1
  21346976.387   -16961113.76649 -13197046.38847  21346976.206    21346979.380
  22023864.839   -19592649.22349 -15221615.69647  22023865.096    22023868.273
  20920751.278   -25038967.49349 -19496811.85347  20920750.826    20920754.661
  24245071.170    -7298222.87149  -5675689.01045  24245071.566    24245076.939
  23761978.920    -8581686.41049  -6671784.41945  23761978.605    23761985.197
  24821633.496    -2367092.15649  -1291095.79745  24821633.491    24821638.112
  20483884.779   -24984198.96649 -19448897.40048  20483884.542    20483888.548
 04  5 22  2 53  0.0000000  0  7G16G13G20G 4G27G25G 1
  21347621.304   -16957724.61849 -13194405.48247  21347621.129    21347624.311
  22010819.820   -19661201.06349 -15275032.67747  22010820.087    22010823.236
  20932447.458   -24977503.82749 -19448918.13747  20932446.998    20932450.823
  24249128.121    -7276902.22849  -5659075.56345  24249128.648    24249134.134
  23747868.009    -8655839.52449  -6729565.98646  23747867.683    23747874.251
  24838322.664    -2279390.16349  -1222756.58845  24838322.867    24838327.146
  20482280.705   -24992628.51149 -19455465.88448  20482280.462    20482284.461
 04  5 22  2 53 30.0000000  0  7G16G13G20G 4G27G25G 1
  21348379.711   -16953739.25949 -13191299.98647  21348379.524    21348382.699
  21997800.476   -19729618.02149 -15328344.55347  21997800.730    21997803.872
  20944238.434   -24915542.04049 -19400636.25847  20944237.976    20944241.808
  24253276.502    -7255102.85449  -5642089.06745  24253276.986    24253282.500
  23733789.322    -8729822.99749  -6787215.36246  23733789.030    23733795.616
  24855006.733    -2191715.13049  -1154438.40245  24855006.996    24855011.257
  20480726.160   -25000797.57149 -19461831.38548  20480725.899    20480729.934
 04  5 22  2 54  0.0000000  0  7G16G13G20G 4G27G25G 1
  21349251.481   -16949158.05649 -13187730.20647  21349251.261    21349254.443
  21984807.028   -19797898.89649 -15381550.40147  21984807.285    21984810.415
  20956123.842   -24853083.95749 -19351967.65647  20956123.388    20956127.198
  24257515.396    -7232826.30949  -5624730.79445  24257516.121    24257521.681
  23719742.911    -8803636.62549  -6844732.40246  23719742.664    23719749.209
  24871685.381    -2104068.26049  -1086142.15045  24871685.521    24871690.067
  20479221.362   -25008705.31749 -19467993.27548  20479221.100    20479225.133
 04  5 22  2 54 30.0000000  0  7G16G13G20G 4G27G25G 1
  21350236.622   -16943981.00949 -13183696.12247  21350236.419    21350239.600
  21971839.649   -19866042.63149 -15434649.37047  21971839.902    21971843.072
  20968103.398   -24790131.11849 -19302913.52647  20968102.954    20968106.780
  24261845.198    -7210074.14349  -5607001.85745  24261845.744    24261851.187
  23705728.929    -8877280.12949  -6902116.87346  23705728.776    23705735.183
  24888358.542    -2016450.20649  -1017868.39145  24888358.668    24888363.301
  20477766.452   -25016350.86549 -19473950.84448  20477766.178    20477770.221
 04  5 22  2 55  0.0000000  0  7G16G13G20G 4G27G25G 1
  21351334.995   -16938209.08549 -13179198.49747  21351334.759    21351337.926
  21958898.457   -19934048.87449 -15487641.20947  21958898.731    21958901.892
  20980176.644   -24726685.92449 -19253475.74847  20980176.196    20980180.039
  24266264.770    -7186848.50449  -5588904.00345  24266265.413    24266270.922
  23691747.275    -8950753.83049  -6959369.04946  23691747.115    23691753.554
  24905026.049    -1928862.17149   -949617.96945  24905026.180    24905030.799
  20476361.493   -25023734.19449 -19479704.08448  20476361.210    20476365.232
 04  5 22  2 55 30.0000000  0  6G16G13G20G 4G27G 1
  21352545.944   -16931845.46149 -13174239.80847  21352545.720    21352548.880
  21945983.059   -20001919.65349 -15540527.49947  21945983.312    21945986.445
  20992342.627   -24662753.30549 -19203658.16347  20992342.174    20992346.036
  24270774.113    -7163153.99149  -5570440.79145  24270774.413    24270779.847
  23677797.374    -9024060.73149  -7016491.25246  23677797.222    23677803.673
  20475005.945   -25030857.63049 -19485254.81048  20475005.658    20475009.669
 04  5 22  2 56  0.0000000  0  6G16G13G20G 4G27G 1
  21353869.769   -16924888.37249 -13168818.67847  21353869.564    21353872.735
  21933094.013   -20069652.12649 -15593306.01947  21933094.255    21933097.352
  21004601.467   -24598332.90349 -19153460.48047  21004601.007    21004604.886
  24275372.253    -7138990.37849  -5551612.05345  24275372.620    24275378.190
  23663879.715    -9097198.31249  -7073481.49746  23663879.547    23663885.957
  20473700.406   -25037718.37149 -19490600.83748  20473700.122    20473704.100
 04  5 22  2 56 30.0000000  0  6G16G13G20G 4G27G 1
  21355307.335   -16917333.83049 -13162932.00947  21355307.129    21355310.305
  21920232.275   -20137240.84649 -15645972.52947  21920232.539    21920235.588
  21016953.555   -24533422.26549 -19102880.79347  21016953.106    21016957.013
  24280060.262    -7114354.78549  -5532415.52345  24280060.734    24280066.179
  23649995.118    -9170162.03749  -7130336.26146  23649994.950    23650001.370
  20472445.850   -25044311.26049 -19495738.15548  20472445.561    20472449.538
 04  5 22  2 57  0.0000000  0  6G16G13G20G 4G27G 1
  21356858.184   -16909183.97849 -13156581.45347  21356857.975    21356861.133
  21907397.807   -20204686.36049 -15698527.44647  21907398.074    21907401.084
  21029398.285   -24468024.82749 -19051921.77747  21029397.841    21029401.772
  24284837.468    -7089250.48249  -5512853.77545  24284837.996    24284843.354
  23636143.284    -9242953.57049  -7187056.84546  23636143.069    23636149.510
  20471242.079   -25050637.00849 -19500667.30948  20471241.804    20471245.772
 04  5 22  2 57 30.0000000  0  6G16G13G20G 4G27G 1
  21358522.310   -16900438.92649 -13149767.11347  21358522.083    21358525.249
  21894590.795   -20271987.56649 -15750969.91747  21894591.060    21894594.051
  21041935.263   -24402142.48849 -19000584.92647  21041934.822    21041938.779
  24289703.672    -7063679.05349  -5492928.03245  24289704.038    24289709.507
  23622324.318    -9315572.39549  -7243642.86246  23622324.126    23622330.536
  20470089.293   -25056694.87449 -19505387.72948  20470089.032    20470092.978
 04  5 22  2 58  0.0000000  0  6G16G13G20G 4G27G 1
  21360299.566   -16891099.44149 -13142489.57447  21360299.333    21360302.473
  21881811.371   -20339143.73249 -15803299.35847  21881811.627    21881814.607
  21054564.176   -24335777.29349 -18948871.82147  21054563.739    21054567.727
  24294658.254    -7037642.58649  -5472639.91845  24294658.617    24294664.142
  23608538.203    -9388018.70949  -7300094.44546  23608538.019    23608544.453
  20468987.592   -25062484.34249 -19509898.99848  20468987.325    20468991.298
 04  5 22  2 58 30.0000000  0  6G16G13G20G 4G27G 1
  21362189.689   -16881166.57149 -13134749.65547  21362189.494    21362192.592
  21869059.620   -20406154.57449 -15855515.56847  21869059.885    21869062.829
  21067284.454   -24268931.85049 -18896784.49547  21067284.033    21067288.020
  24299700.826    -7011143.54449  -5451991.35645  24299701.317    24299706.790
  23594784.820    -9460292.94549  -7356411.94646  23594784.651    23594790.992
  20467936.983   -25068005.39549 -19514201.11248  20467936.722    20467940.675
 04  5 22  2 59  0.0000000  0  6G16G13G20G 4G27G 1
  21364192.871   -16870639.87449 -13126547.02147  21364192.627    21364195.735
  21856335.927   -20473017.94449 -15907616.86947  21856336.183    21856339.122
  21080095.991   -24201607.05649 -18844323.65447  21080095.554    21080099.537
  24304831.378    -6984182.55549  -5430982.85545  24304831.815    24304837.278
  23581064.398    -9532394.17649  -7412594.64546  23581064.219    23581070.512
  20466937.776   -25073256.28349 -19518292.71548  20466937.504    20466941.492
 04  5 22  2 59 30.0000000  0  6G16G13G20G 4G27G 1
  21366308.746   -16859520.76249 -13117882.75847  21366308.522    21366311.608
  21843640.293   -20539733.91349 -15959603.31347  21843640.542    21843643.495
  21092998.121   -24133805.97649 -18791491.67347  21092997.681    21093001.668
  24310049.339    -6956762.45349  -5409616.59245  24310049.822    24310055.142
  23567376.714    -9604323.04549  -7468643.01746  23567376.555    23567382.810
  20465989.951   -25078237.28849 -19522174.01448  20465989.690    20465993.651
 04  5 22  3  0  0.0000000  0  6G16G13G20G 4G27G 1
  21368537.152   -16847810.18949 -13108757.62147  21368536.930    21368540.043
  21830972.817   -20606301.79649 -16011474.36847  21830973.082    21830976.018
  21105990.464   -24065530.93649 -18738290.36747  21105990.017    21105993.996
  24315354.308    -6928885.51849  -5387894.37445  24315354.610    24315360.014
  23553721.744    -9676079.90549  -7524557.36146  23553721.608    23553727.877
  20465093.548   -25082947.99849 -19525844.69048  20465093.271    20465097.251
 04  5 22  3  0 30.0000000  0  6G16G13G20G 4G27G 1
  21370878.158   -16835507.97549 -13099171.46647  21370877.939    21370881.052
  21818333.850   -20672719.79049 -16063228.62547  21818334.132    21818337.088
  21119072.760   -23996783.05649 -18684720.61447  21119072.320    21119076.301
  24320745.951    -6900552.79949  -5365816.97645  24320746.038    24320751.510
  23540099.693    -9747663.93349  -7580337.04046  23540099.548    23540105.770
  20464248.823   -25087386.91949 -19529303.58148  20464248.546    20464252.533
 04  5 22  3  1  0.0000000  0  6G16G13G20G 4G27G 1
  21373331.791   -16822614.15249 -13089124.32947  21373331.550    21373334.654
  21805723.711   -20738986.27649 -16114864.83347  21805723.981    21805726.960
  21132244.723   -23927563.99349 -18630783.72347  21132244.282    21132248.263
  24326223.989    -6871765.43949  -5343385.33145  24326224.155    24326229.676
  23526510.740    -9819074.36249  -7635981.44746  23526510.536    23526516.712
  20463456.053   -25091552.78149 -19532549.70848  20463455.784    20463459.783
 04  5 22  3  1 30.0000000  0  6G16G13G20G 4G27G 1
  21375897.765   -16809129.94349 -13078617.14247  21375897.494    21375900.608
  21793142.486   -20805100.91249 -16166382.70847  21793142.741    21793145.760
  21145505.906   -23857876.10949 -18576481.50447  21145505.461    21145509.471
  24331788.042    -6842525.88149  -5320601.30745  24331788.283    24331793.838
  23512954.670    -9890311.57449  -7691490.87746  23512954.511    23512960.638
  20462715.325   -25095445.38349 -19535582.89848  20462715.057    20462719.096
 04  5 22  3  2  0.0000000  0  6G16G13G20G 4G27G 1
  21378576.027   -16795055.48149 -13067650.01847  21378575.790    21378578.878
  21780590.478   -20871062.10149 -16217781.02247  21780590.731    21780593.759
  21158855.926   -23787721.26849 -18521815.42347  21158855.469    21158859.521
  24337437.916    -6812835.64949  -5297466.12145  24337438.222    24337443.685
  23499431.663    -9961374.99849  -7746864.88246  23499431.473    23499437.577
  20462026.775   -25099063.60349 -19538402.28548  20462026.494    20462030.537
 04  5 22  3  2 30.0000000  0  6G16G13G20G 4G27G 1
  21381366.313   -16780392.20549 -13056224.08347  21381366.118    21381369.223
  21768067.736   -20936869.41749 -16269059.42747  21768068.000    21768071.017
  21172294.334   -23717102.09849 -18466787.53547  21172293.896    21172297.940
  24343173.067    -6782697.61149  -5273981.98745  24343173.441    24343178.783
  23485941.641   -10032265.38649  -7802104.04446  23485941.461    23485947.502
  20461390.497   -25102407.25649 -19541007.73048  20461390.224    20461394.252
 04  5 22  3  3  0.0000000  0  6G16G13G20G 4G27G 1
  21384268.966   -16765138.74949 -13044338.26247  21384268.749    21384271.815
  21755574.844   -21002519.91149 -16320215.64047  21755575.109    21755578.128
  21185821.133   -23646018.47149 -18411397.72747  21185820.681    21185824.743
  24348993.652    -6752111.19149  -5250148.46545  24348993.892    24348999.280
  23472484.873   -10102980.64349  -7857206.75846  23472484.697    23472490.725
  20460806.972   -25105473.70149 -19543397.16248  20460806.688    20460810.719
 04  5 22  3  3 30.0000000  0  6G16G13G20G 4G27G 1
  21387283.388   -16749298.00949 -13031994.81847  21387283.142    21387286.212
  21743111.575   -21068014.62049 -16371250.45747  21743111.847    21743114.852
  21199435.464   -23574474.93049 -18355649.55147  21199435.007    21199439.076
  24354898.592    -6721080.73649  -5225968.94345  24354898.914    24354904.235
  23459061.079   -10173522.65249  -7912174.46746  23459060.950    23459066.924
  20460275.917   -25108264.36749 -19545571.69948  20460275.636    20460279.675
 04  5 22  3  4  0.0000000  0  6G16G13G20G 4G27G 1
  21390409.486   -16732870.06849 -13019193.81447  21390409.278    21390412.341
  21730678.241   -21133352.00949 -16422162.68647  21730678.514    21730681.550
  21213137.018   -23502472.82649 -18299544.05047  21213136.561    21213140.632
  24360887.643    -6689607.54649  -5201444.42945  24360887.948    24360893.412
  23445670.387   -10243890.76649  -7967006.67146  23445670.190    23445676.264
  20459797.626   -25110777.78949 -19547530.20748  20459797.347    20459801.394
 04  5 22  3  4 30.0000000  0  6G16G13G20G 4G27G 1
  21393647.670   -16715853.23849 -13005933.94647  21393647.426    21393650.472
  21718275.599   -21198528.35849 -16472949.44147  21718275.860    21718278.892
  21226925.893   -23430011.91849 -18243081.04547  21226925.435    21226929.492
  24366961.206    -6657691.11049  -5176574.50545  24366961.534    24366966.981
  23432313.207   -10314082.61549  -8021701.51946  23432313.037    23432319.126
  20459372.676   -25113010.94549 -19549270.33048  20459372.391    20459376.427
 04  5 22  3  5  0.0000000  0  6G16G13G20G 4G27G 1
  21396997.291   -16698250.72549 -12992217.68947  21396997.047    21397000.111
  21705903.365   -21263544.75049 -16523611.54647  21705903.646    21705906.674
  21240801.216   -23357096.67349 -18186264.00547  21240800.770    21240804.838
  24373118.123    -6625335.79949  -5151362.62645  24373118.531    24373124.082
  23418989.236   -10384100.42249  -8076260.75446  23418989.041    23418995.130
  20459000.766   -25114965.39549 -19550793.27348  20459000.489    20459004.503
 04  5 22  3  5 30.0000000  0  6G16G13G20G 4G27G 1
  21400458.369   -16680062.67649 -12978045.17947  21400458.131    21400461.184
  21693561.863   -21328399.71049 -16574147.85747  21693562.150    21693565.149
  21254762.784   -23283728.44249 -18129093.99047  21254762.334    21254766.410
  24379358.563    -6592542.85349  -5125809.72045  24379358.931    24379364.467
  23405698.483   -10453943.28849  -8130683.67446  23405698.272    23405704.342
  20458682.170   -25116639.56049 -19552097.81448  20458681.879    20458685.899
 04  5 22  3  6  0.0000000  0  6G16G13G20G 4G27G 1
  21404030.492   -16661290.89149 -12963417.81247  21404030.278    21404033.335
  21681251.099   -21393093.12049 -16624558.29347  21681251.412    21681254.387
  21268809.898   -23209910.39349 -18071573.45847  21268809.450    21268813.533
  24385681.479    -6559315.44149  -5099918.26945  24385681.815    24385687.468
  23392440.819   -10523612.39149  -8184971.20446  23392440.611    23392446.688
  20458416.826   -25118033.91449 -19553184.32548  20458416.553    20458420.563
 04  5 22  3  6 30.0000000  0  6G16G13G20G 4G27G 1
  21407714.089   -16641933.56249 -12948334.16747  21407713.858    21407716.911
  21668971.799   -21457621.36749 -16674840.02547  21668972.093    21668975.041
  21282942.665   -23135642.40549 -18013702.32147  21282942.216    21282946.283
  24392087.296    -6525652.86949  -5073687.75845  24392087.538    24392093.394
  23379216.743   -10593104.93349  -8239121.15346  23379216.515    23379222.548
  20458205.344   -25119145.17149 -19554050.23948  20458205.079    20458209.091
 04  5 22  3  7  0.0000000  0  6G16G13G20G 4G27G 1
  21411508.508   -16621993.89149 -12932796.76247  21411508.231    21411511.305
  21656723.748   -21521985.39749 -16724993.80347  21656724.032    21656726.949
  21297160.258   -23060928.56949 -17955483.78047  21297159.803    21297163.879
  24398575.194    -6491559.61549  -5047121.62645  24398575.358    24398581.088
  23366025.881   -10662423.11049  -8293135.22846  23366025.687    23366031.712
  20458047.501   -25119974.64349 -19554696.59048  20458047.239    20458051.254
 04  5 22  3  7 30.0000000  0  6G16G13G20G 4G27G 1
  21415413.686   -16601471.98249 -12916805.65447  21415413.438    21415416.491
  21644507.311   -21586183.21549 -16775018.06047  21644507.569    21644510.499
  21311462.446   -22985770.40549 -17896919.01247  21311461.972    21311466.043
  24405144.767    -6457036.78249  -5020220.76745  24405144.930    24405150.541
  23352868.374   -10731565.97849  -8347012.70746  23352868.156    23352874.167
  20457943.569   -25120520.81949 -19555122.17848  20457943.301    20457947.333
 04  5 22  3  8  0.0000000  0  6G16G13G20G 4G27G 1
  21419429.559   -16580368.32849 -12900361.24347  21419429.327    21419432.381
  21632322.656   -21650213.77549 -16824911.98347  21632322.925    21632325.856
  21325848.773   -22910169.91749 -17838009.57747  21325848.312    21325852.375
  24411795.415    -6422086.43949  -4992986.79545  24411795.835    24411801.421
  23339744.210   -10800533.48249  -8400753.54546  23339743.982    23339749.928
  20457893.709   -25120782.83249 -19555326.34148  20457893.435    20457897.490
 04  5 22  3  8 30.0000000  0  6G16G13G20G 4G27G 1
  21423556.125   -16558682.88349 -12883463.48747  21423555.911    21423558.971
  21620170.420   -21714074.19049 -16874673.32447  21620170.697    21620173.588
  21340319.093   -22834128.17149 -17778756.31047  21340318.625    21340322.669
  24418527.566    -6386709.12549  -4965420.09545  24418527.875    24418533.574
  23326653.719   -10869324.16949  -8454356.60346  23326653.454    23326659.465
  20457898.282   -25120758.70249 -19555307.53748  20457898.002    20457902.047
 04  5 22  3  9  0.0000000  0  6G16G13G20G 4G27G 1
  21427792.987   -16536417.88049 -12866114.12547  21427792.788    21427795.821
  21608050.429   -21777765.16149 -16924302.62647  21608050.688    21608053.557
  21354872.671   -22757648.87849 -17719162.09547  21354872.200    21354876.231
  24425340.215    -6350908.50049  -4937523.55345  24425340.618    24425346.179
  23313596.518   -10937939.57949  -8507823.08446  23313596.313    23313602.274
  20457957.212   -25120449.12449 -19555066.30948  20457956.941    20457960.989
 04  5 22  3  9 30.0000000  0  6G16G13G20G 4G27G 1
  21432140.053   -16513573.97949 -12848313.66947  21432139.878    21432142.880
  21595963.012   -21841284.97649 -16973798.55647  21595963.266    21595966.113
  21369509.174   -22680733.85749 -17659228.35247  21369508.687    21369512.719
  24432233.166    -6314686.44749  -4909298.63745  24432233.487    24432239.161
  23300572.865   -11006379.11149  -8561152.50846  23300572.649    23300578.658
  20458070.660   -25119852.84549 -19554601.67348  20458070.383    20458074.433
 04  5 22  3 10  0.0000000  0  6G16G13G20G 4G27G 1
  21436597.107   -16490152.22049 -12830062.94447  21436596.903    21436599.889
  21583908.345   -21904632.51449 -17023160.25047  21583908.601    21583911.459
  21384228.105   -22603385.32849 -17598956.81847  21384227.647    21384231.683
  24439205.854    -6278045.02649  -4880746.93445  24439206.120    24439211.831
  23287582.636   -11074642.93649  -8614345.02846  23287582.443    23287588.405
  20458238.847   -25118969.08449 -19553913.03048  20458238.576    20458242.623
 04  5 22  3 10 30.0000000  0  6G16G13G20G 4G27G 1
  21441163.636   -16466155.05049 -12811363.83847  21441163.392    21441166.389
  21571886.415   -21967807.86849 -17072387.77347  21571886.674    21571889.535
  21399028.949   -22525606.67449 -17538350.10847  21399028.491    21399032.529
  24446257.656    -6240987.50949  -4851871.03245  24446257.927    24446263.650
  23274625.612   -11142732.04449  -8667401.39546  23274625.432    23274631.433
  20458461.629   -25117798.34249 -19553000.75948  20458461.372    20458465.401
 04  5 22  3 11  0.0000000  0  6G16G13G20G 4G27G 1
  21445840.089   -16441579.84749 -12792214.32047  21445839.894    21445842.879
  21559898.132   -22030806.65049 -17121477.70847  21559898.403    21559901.283
  21413911.782   -22447397.05949 -17477407.58847  21413911.318    21413915.337
  24453388.867    -6203512.77749  -4822669.99345  24453389.171    24453395.057
  23261702.517   -11210643.08749  -8720319.02246  23261702.368    23261708.307
  20458739.817   -25116336.55149 -19551861.69448  20458739.549    20458743.568
 04  5 22  3 11 30.0000000  0  6G16G13G20G 4G27G 1
  21450626.004   -16416429.85549 -12772616.91047  21450625.791    21450628.799
  21547943.340   -22093629.33149 -17170430.42147  21547943.609    21547946.504
  21428875.820   -22368760.53849 -17416132.40847  21428875.358    21428879.399
  24460598.702    -6165625.21749  -4793147.27945  24460598.910    24460604.772
  23248812.927   -11278378.08149  -8773099.45646  23248812.762    23248818.693
  20459073.098   -25114585.02049 -19550496.85748  20459072.819    20459076.851
 04  5 22  3 12  0.0000000  0  6G16G13G20G 4G27G 1
  21455521.176   -16390705.17049 -12752571.68847  21455521.022    21455524.035
  21536022.415   -22156274.03449 -17219244.45747  21536022.692    21536025.596
  21443920.775   -22289698.88349 -17354525.95947  21443920.323    21443924.403
  24467886.807    -6127325.90249  -4763303.73045  24467887.124    24467893.002
  23235956.976   -11345936.32949  -8825742.16846  23235956.812    23235962.707
  20459461.817   -25112542.29149 -19548905.11448  20459461.559    20459465.573
 04  5 22  3 12 30.0000000  0  6G16G13G20G 4G27G 1
  21460525.511   -16364407.12249 -12732079.68747  21460525.338    21460528.367
  21524135.657   -22218739.29049 -17267918.66147  21524135.921    21524138.812
  21459046.256   -22210214.06249 -17292589.77447  21459045.812    21459049.880
  24475252.910    -6088616.94349  -4733140.96745  24475253.224    24475259.176
  23223134.703   -11413317.49849  -8878246.89846  23223134.538    23223140.373
  20459906.118   -25110207.35949 -19547085.68148  20459905.842    20459909.880
 04  5 22  3 13  0.0000000  0  6G16G13G20G 4G27G 1
  21465638.310   -16337538.98449 -12711143.47047  21465638.138    21465641.172
  21512282.701   -22281026.82249 -17316454.38647  21512282.976    21512285.871
  21474251.303   -22130311.05249 -17230327.72547  21474250.855    21474254.951
  24482696.068    -6049503.18849  -4702662.79545  24482696.362    24482702.371
  23210345.691   -11480524.02249  -8930615.54646  23210345.532    23210351.329
  20460405.722   -25107581.87049 -19545039.83948  20460405.466    20460409.485
 04  5 22  3 13 30.0000000  0  6G16G13G20G 4G27G 1
  21470859.995   -16310098.53149 -12689761.28447  21470859.863    21470862.885
  21500464.579   -22343131.40649 -17364847.55447  21500464.868    21500467.755
  21489536.159   -22049988.64049 -17167738.86247  21489535.714    21489539.838
  24490216.429    -6009983.13449  -4671868.03445  24490216.695    24490222.770
  23197590.536   -11547552.42849  -8982845.40946  23197590.392    23197596.154
  20460961.428   -25104661.60549 -19542764.30048  20460961.161    20460965.169
 04  5 22  3 14  0.0000000  0  6G16G13G20G 4G27G 1
  21476190.205   -16282088.49049 -12667935.26547  21476190.033    21476193.008
  21488681.156   -22405053.47549 -17413098.50647  21488681.445    21488684.328
  21504900.084   -21969250.75849 -17104826.26147  21504899.658    21504903.752
  24497813.479    -5970060.84949  -4640759.80845  24497813.607    24497819.672
  23184868.999   -11614404.43449  -9034937.80446  23184868.839    23184874.581
  20461573.102   -25101447.42049 -19540259.73048  20461572.838    20461576.823
 04  5 22  3 14 30.0000000  0  6G16G13G20G 4G27G 1
  21481628.484   -16253510.13749 -12645666.40847  21481628.288    21481631.280
  21476932.731   -22466791.92049 -17461206.37047  21476933.019    21476935.886
  21520342.647   -21888099.77849 -17041591.76647  21520342.217    21520346.315
  24505486.633    -5929738.35149  -4609339.76145  24505486.805    24505492.764
  23172181.059   -11681079.90549  -9086892.65846  23172180.873    23172186.556
  20462240.806   -25097938.57749 -19537525.55348  20462240.536    20462244.529
 04  5 22  3 15  0.0000000  0  6G16G13G20G 4G27G 1
  21487174.666   -16224364.80949 -12622955.75447  21487174.459    21487177.456
  21465219.455   -22528345.63449 -17509170.29547  21465219.738    21465222.586
  21535863.347   -21806538.15049 -16978037.29447  21535862.902    21535867.021
  24513235.330    -5889018.26249  -4577609.89045  24513235.800    24513241.852
  23159526.621   -11747579.04149  -9138710.10946  23159526.453    23159532.079
  20462964.682   -25094134.45349 -19534561.29748  20462964.415    20462968.419
 04  5 22  3 15 30.0000000  0  6G16G13G20G 4G27G 1
  21492828.731   -16194652.57049 -12599803.35747  21492828.524    21492831.540
  21453541.780   -22589712.23749 -17556988.41747  21453542.042    21453544.884
  21551461.911   -21724567.25149 -16914163.90347  21551461.474    21551465.597
  24521059.715    -5847901.64149  -4545571.06445  24521060.172    24521066.218
  23146905.974   -11813900.77549  -9190389.32346  23146905.800    23146911.424
  20463745.112   -25090033.14549 -19531365.47148  20463744.864    20463748.863
 04  5 22  3 16  0.0000000  0  6G16G13G20G 4G27G 1
  21498590.202   -16164375.56449 -12576210.87947  21498590.006    21498593.040
  21441899.795   -22650891.17749 -17604660.29347  21441900.052    21441902.912
  21567137.746   -21642190.31049 -16849974.10947  21567137.302    21567141.439
  24528958.977    -5806391.50049  -4513225.57145  24528959.285    24528965.276
  23134319.032   -11880045.65049  -9241930.73046  23134318.805    23134324.420
  20464582.113   -25085634.70249 -19527938.11248  20464581.865    20464585.864
 04  5 22  3 16 30.0000000  0  6G16G13G20G 4G27G 1
  21504459.091   -16133534.15249 -12552178.60947  21504458.913    21504461.951
  21430293.882   -22711880.67049 -17652184.55047  21430294.156    21430297.006
  21582890.569   -21559408.89549 -16785469.14947  21582890.116    21582894.270
  24536932.655    -5764489.53149  -4480574.76045  24536932.985    24536939.075
  23121765.752   -11946013.21249  -9293333.96146  23121765.575    23121771.143
  20465475.947   -25080937.56949 -19524278.00448  20465475.686    20465479.698
 04  5 22  3 17  0.0000000  0  6G16G13G20G 4G27G 1
  21510435.041   -16102130.11949 -12527707.93047  21510434.886    21510437.925
  21418724.223   -22772679.48949 -17699560.24047  21418724.496    21418727.366
  21598719.803   -21476225.82049 -16720651.20847  21598719.358    21598723.503
  24544980.500    -5722198.46149  -4447620.75245  24544980.764    24544987.015
  23109246.155   -12011803.82749  -9344599.32246  23109245.992    23109251.587
  20466426.677   -25075941.51449 -19520384.97048  20466426.408    20466430.421
 04  5 22  3 17 30.0000000  0  6G16G13G20G 4G27G 1
  21516517.797   -16070164.92549 -12502799.98447  21516517.675    21516520.709
  21407191.005   -22833286.56349 -17746786.52347  21407191.300    21407194.212
  21614625.014   -21392643.51749 -16655522.18047  21614624.557    21614628.732
  24553101.961    -5679520.56649  -4414365.32245  24553102.141    24553108.349
  23096760.286   -12077417.33649  -9395726.67846  23096760.146    23096765.722
  20467434.426   -25070645.82549 -19516258.45948  20467434.160    20467438.164
 04  5 22  3 18  0.0000000  0  6G16G13G20G 4G27G 1
  21522707.156   -16037639.72849 -12477455.66747  21522707.000    21522710.012
  21395694.560   -22893700.59649 -17793862.37947  21395694.859    21395697.819
  21630605.784   -21308664.25449 -16590083.83847  21630605.304    21630609.509
  24561296.404    -5636458.04249  -4380810.19745  24561296.687    24561302.929
  23084308.078   -12142853.95749  -9446716.20246  23084307.916    23084313.474
  20468499.325   -25065049.57449 -19511897.74548  20468499.063    20468503.065
 04  5 22  3 18 30.0000000  0  6G16G13G20G 4G27G 1
  21529002.900   -16004555.34849 -12451675.62447  21529002.722    21529005.729
  21384235.281   -22953919.59549 -17840786.25647  21384235.572    21384238.530
  21646661.670   -21224290.15649 -16524337.82547  21646661.198    21646665.401
  24569563.844    -5593012.65049  -4346956.71645  24569564.233    24569570.245
  23071889.676   -12208112.82749  -9497567.21946  23071889.513    23071895.067
  20469621.694   -25059151.52749 -19507301.86548  20469621.456    20469625.430
 04  5 22  3 19  0.0000000  0  6G16G13G20G 4G27G 1
  21535404.597   -15970914.29349 -12425461.81547  21535404.390    21535407.370
  21372813.105   -23013943.51949 -17887558.12147  21372813.389    21372816.332
  21662792.012   -21139524.77549 -16458286.91847  21662791.541    21662795.743
  24577903.328    -5549188.05449  -4312807.74445  24577903.751    24577909.768
  23059504.878   -12273195.12249  -9548280.64746  23059504.707    23059510.261
  20470801.447   -25052951.88849 -19502470.98448  20470801.209    20470805.184
 04  5 22  3 19 30.0000000  0  6G16G13G20G 4G27G 1
  21541912.201   -15936716.59249 -12398814.24847  21541912.005    21541914.959
  21361428.551   -23073769.78449 -17934175.96647  21361428.841    21361431.767
  21678996.580   -21054369.31449 -16391932.05847  21678996.113    21679000.330
  24586314.944    -5504985.44949  -4278364.23145  24586315.328    24586321.309
  23047153.862   -12338099.90849  -9598855.76046  23047153.688    23047159.256
  20472038.949   -25046448.77549 -19497403.62548  20472038.712    20472042.671
 04  5 22  3 20  0.0000000  0  6G16G13G20G 4G27G 1
  21548525.475   -15901963.80249 -12371734.14947  21548525.266    21548528.196
  21350081.882   -23133396.86549 -17980638.60647  21350082.166    21350085.063
  21695274.921   -20968826.27749 -16325275.18847  21695274.434    21695278.665
  24594798.129    -5460407.13949  -4243627.95945  24594798.335    24594804.324
  23034836.622   -12402827.17349  -9649292.54046  23034836.475    23034842.010
  20473334.361   -25039641.46449 -19492099.22848  20473334.116    20473338.071
 04  5 22  3 20 30.0000000  0  6G16G13G20G 4G27G 1
  21555243.893   -15866658.40749 -12344223.44047  21555243.665    21555246.614
  21338773.185   -23192824.50849 -18026945.83447  21338773.455    21338776.344
  21711626.343   -20882899.08549 -16258318.97047  21711625.874    21711630.101
  24603351.984    -5415456.54049  -4208601.59045  24603352.174    24603358.261
  23022553.005   -12467377.87149  -9699591.72746  23022552.858    23022558.368
  20474687.563   -25032530.36649 -19486558.10948  20474687.309    20474691.281
 04  5 22  3 21  0.0000000  0  6G16G13G20G 4G27G 1
  21562067.454   -15830800.38649 -12316282.12447  21562067.201    21562070.150
  21327503.033   -23252049.72349 -18073095.33347  21327503.307    21327506.137
  21728050.637   -20796588.77949 -16191064.22947  21728050.184    21728054.434
  24611976.448    -5370134.53749  -4173285.83145  24611976.723    24611982.896
  23010303.264   -12531750.54649  -9749752.20246  23010303.109    23010308.612
  20476099.017   -25025113.20349 -19480778.50748  20476098.762    20476102.727
 04  5 22  3 21 30.0000000  0  6G16G13G20G 4G27G 1
  21568995.634   -15794392.54149 -12287912.36747  21568995.365    21568998.331
  21316271.183   -23311073.38249 -18119087.78047  21316271.453    21316274.267
  21744547.136   -20709899.35249 -16123514.06247  21744546.674    21744550.942
  24620671.133    -5324445.25249  -4137683.86445  24620671.204    24620677.367
  22998087.044   -12595946.89749  -9799775.27146  22998086.886    22998092.387
  20477568.538   -25017390.75349 -19474761.01248  20477568.284    20477572.254
 04  5 22  3 22  0.0000000  0  6G16G13G20G 4G27G 1
  21576028.316   -15757435.51249 -12259114.67347  21576028.047    21576031.027
  21305078.250   -23369892.60549 -18164920.92447  21305078.511    21305081.325
  21761115.451   -20622832.35049 -16055669.68547  21761115.014    21761119.260
  24629435.173    -5278389.79149  -4101796.56845  24629435.307    24629441.429
  22985904.616   -12659965.89949  -9849660.14546  22985904.430    22985909.950
  20479096.500   -25009361.16649 -19468504.19348  20479096.257    20479100.210
 04  5 22  3 22 30.0000000  0  7G16G13G20G 4G27G 3G 1
  21583165.639   -15719928.31149 -12229888.28347  21583165.406    21583168.407
  21293925.034   -23428503.12249 -18210591.42947  21293925.282    21293928.120
  21777755.678   -20535387.58749 -15987530.94947  21777755.224    21777759.490
  24638269.102    -5231968.05149  -4065623.87345  24638269.351    24638275.248
  22973756.427   -12723804.79749  -9899404.68746  22973756.220    22973761.757
  24571773.341    -3007087.58459  -2104368.76345  24571773.216    24571779.328
  20480683.623   -25001020.86749 -19462005.26048  20480683.378    20480687.328
 04  5 22  3 23  0.0000000  0  7G16G13G20G 4G27G 3G 1
  21590407.323   -15681872.75149 -12200234.58847  21590407.122    21590410.145
  21282811.567   -23486904.64449 -18256099.07847  21282811.816    21282814.637
  21794467.153   -20447568.20849 -15919100.30447  21794466.735    21794470.982
  24647171.897    -5185183.21149  -4029168.24145  24647172.347    24647178.269
  22961642.424   -12787464.22349  -9949009.37446  22961642.206    22961647.758
  24557190.528    -3083719.92949  -2164082.09645  24557190.460    24557196.552
  20482329.884   -24992369.77649 -19455264.15048  20482329.608    20482333.561
 04  5 22  3 23 30.0000000  0  7G16G13G20G 4G27G 3G 1
  21597752.398   -15643274.17049 -12170157.76247  21597752.177    21597755.208
  21271737.419   -23545099.65249 -18301445.80647  21271737.673    21271740.475
  21811248.718   -20359380.56349 -15850382.69247  21811248.287    21811252.553
  24656142.898    -5138041.39349  -3992434.44145  24656143.147    24656149.320
  22949561.777   -12850948.24849  -9998477.38046  22949561.599    22949567.087
  24542628.495    -3160243.62149  -2223710.93645  24542628.453    24542634.535
  20484034.662   -24983411.03749 -19448283.31348  20484034.388    20484038.342
 04  5 22  3 24  0.0000000  0  7G16G13G20G 4G27G 3G 1
  21605200.660   -15604133.33549 -12139658.40647  21605200.441    21605203.461
  21260703.005   -23603085.73749 -18346629.74347  21260703.271    21260706.058
  21828100.086   -20270826.37349 -15781379.47147  21828099.641    21828103.900
  24665181.335    -5090544.09449  -3955423.64045  24665181.660    24665187.746
  22937514.729   -12914255.67249 -10047807.77346  22937514.519    22937520.002
  24528087.866    -3236654.52949  -2283251.69345  24528087.679    24528093.950
  20485798.319   -24974142.90749 -19441061.39248  20485798.047    20485802.016
 04  5 22  3 24 30.0000000  0  7G16G13G20G 4G27G 3G 1
  21612752.004   -15564450.81849 -12108736.95147  21612751.793    21612754.810
  21249708.844   -23660860.28849 -18391648.85947  21249709.103    21249711.903
  21845020.890   -20181907.03849 -15712091.71447  21845020.437    21845024.687
  24674287.022    -5042692.81749  -3918137.01945  24674287.406    24674293.573
  22925501.469   -12977385.71449 -10096999.95246  22925501.256    22925506.725
  24513569.239    -3312948.73149  -2342701.64845  24513569.160    24513575.818
  20487621.184   -24964563.64149 -19433597.02748  20487620.915    20487624.883
 04  5 22  3 25  0.0000000  0  7G16G13G20G 4G27G 3G 1
  21620406.641   -15524225.53649 -12077392.57847  21620406.394    21620409.446
  21238755.711   -23718419.37149 -18436500.07247  21238755.985    21238758.763
  21862011.192   -20092622.57849 -15642519.44647  21862010.735    21862014.966
  24683460.390    -4994487.42849  -3880574.44845  24683460.646    24683466.839
  22913522.442   -13040335.68249 -10146051.81846  22913522.229    22913527.653
  24499074.196    -3389120.63349  -2402056.27345  24499074.123    24499080.642
  20489503.909   -24954669.87349 -19425887.59248  20489503.632    20489507.626
 04  5 22  3 25 30.0000000  0  7G16G13G20G 4G27G 3G 1
  21628163.302   -15483463.62949 -12045630.04947  21628163.095    21628166.152
  21227842.971   -23775766.20949 -18481185.89547  21227843.230    21227846.017
  21879069.662   -20002979.92249 -15572668.05847  21879069.196    21879073.445
  24692699.742    -4945934.87049  -3842741.38545  24692699.989    24692706.232
  22901576.785   -13103110.25549 -10194967.00646  22901576.589    22901581.967
  24484601.989    -3465171.83249  -2461316.74845  24484601.813    24484608.254
  20491445.704   -24944465.50849 -19417936.12948  20491445.448    20491449.436
 04  5 22  3 26  0.0000000  0  7G16G13G20G 4G27G 3G 1
  21636021.985   -15442165.89749 -12013450.00047  21636021.794    21636024.852
  21216971.021   -23832898.46349 -18525704.51347  21216971.286    21216974.086
  21896195.919   -19912980.96149 -15502539.03647  21896195.469    21896199.707
  24702004.875    -4897036.89049  -3804639.13545  24702005.009    24702011.394
  22889664.671   -13165708.62749 -10243744.88146  22889664.495    22889669.844
  24470153.681    -3541098.36849  -2520480.23545  24470153.585    24470160.011
  20493446.942   -24933948.92349 -19409741.37848  20493446.672    20493450.661
 04  5 22  3 26 30.0000000  0  7G16G13G20G 4G27G 3G 1
  21643982.557   -15400333.06649 -11980852.98447  21643982.323    21643985.358
  21206140.325   -23889814.01849 -18570054.27447  21206140.594    21206143.394
  21913389.683   -19822627.33849 -15432133.65647  21913389.226    21913393.477
  24711375.287    -4847795.31949  -3766269.17745  24711375.561    24711381.909
  22877786.242   -13228129.95049 -10292384.80246  22877786.058    22877791.406
  24455729.496    -3616896.64749  -2579543.65245  24455729.341    24455736.006
  20495507.923   -24923118.36249 -19401301.97148  20495507.655    20495511.630
 04  5 22  3 27  0.0000000  0  7G16G13G20G 4G27G 3G 1
  21652044.335   -15357968.00249 -11947841.24347  21652044.122    21652047.137
  21195350.947   -23946512.43949 -18614234.83847  21195351.234    21195354.030
  21930650.223   -19731922.78549 -15361454.82247  21930649.767    21930654.022
  24720810.312    -4798213.59649  -3727634.17545  24720810.599    24720817.022
  22865941.242   -13290375.49149 -10340887.75046  22865941.058    22865946.403
  24441330.404    -3692564.45549  -2638505.56045  24441330.070    24441336.809
  20497628.530   -24911974.41749 -19392618.36648  20497628.277    20497632.239
 04  5 22  3 27 30.0000000  0  7G16G13G20G 4G27G 3G 1
  21660207.465   -15315070.41649 -11914414.53747  21660207.241    21660210.257
  21184603.600   -24002990.06449 -18658243.35247  21184603.894    21184606.701
  21947977.407   -19640867.94249 -15290503.04047  21947976.962    21947981.209
  24730310.088    -4748292.38649  -3688734.59345  24730310.353    24730316.781
  22854130.041   -13352443.49449 -10389252.35746  22854129.905    22854135.222
  24426957.060    -3768096.92649  -2697361.90645  24426956.780    24426963.332
  20499809.310   -24900514.35049 -19383688.43548  20499809.038    20499813.012
 04  5 22  3 28  0.0000000  0  7G16G13G20G 4G27G 3G 1
  21668471.584   -15271642.47849 -11880574.58147  21668471.339    21668474.315
  21173898.341   -24059246.38749 -18702079.43147  21173898.625    21173901.432
  21965370.673   -19549465.91849 -15219280.72147  21965370.221    21965374.489
  24739873.770    -4698034.84849  -3649573.00445  24739874.100    24739880.715
  22842352.511   -13414334.35749 -10437478.93246  22842352.349    22842357.695
  24412609.857    -3843491.54249  -2756110.83145  24412609.712    24412616.115
  20502050.275   -24888737.95549 -19374512.01148  20502049.996    20502053.976
 04  5 22  3 28 30.0000000  0  7G16G13G20G 4G27G 3G 1
  21676836.248   -15227686.05249 -11846322.81847  21676835.979    21676838.934
  21163235.456   -24115280.32849 -18745742.24447  21163235.737    21163238.530
  21982829.453   -19457719.48649 -15147790.02347  21982828.994    21982833.288
  24749501.097    -4647443.45749  -3610151.22745  24749501.396    24749507.947
  22830608.672   -13476048.35249 -10485567.69446  22830608.539    22830613.872
  24398289.508    -3918745.21849  -2814749.99245  24398289.326    24398295.587
  20504351.546   -24876644.56949 -19365088.58648  20504351.273    20504355.262
 04  5 22  3 29  0.0000000  0  7G16G13G20G 4G27G 3G 1
  21685301.115   -15183202.72949 -11811660.48647  21685300.839    21685303.833
  21152615.248   -24171089.76049 -18789230.09747  21152615.529    21152618.314
  22000353.300   -19365631.17749 -15076032.94047  22000352.832    22000357.150
  24759191.509    -4596520.79549  -3570471.30845  24759191.828    24759198.336
  22818898.500   -13537585.44349 -10533518.60346  22818898.326    22818903.664
  24383996.454    -3993855.02149  -2873276.96945  24383996.240    24384002.686
  20506713.308   -24864233.42949 -19355417.55748  20506713.048    20506717.042
 04  5 22  3 29 30.0000000  0  7G16G13G20G 4G27G 3G 1
  21693865.896   -15138194.16149 -11776588.87447  21693865.679    21693868.655
  21142038.033   -24226673.37749 -18832541.99447  21142038.321    21142041.089
  22017941.740   -19273203.40849 -15004011.34047  22017941.276    22017945.614
  24768944.373    -4545269.09449  -3530535.02945  24768944.645    24768951.337
  22807222.009   -13598945.48149 -10581331.56446  22807221.839    22807227.142
  24369731.531    -4068817.60049  -2931689.27845  24369731.386    24369737.682
  20509135.713   -24851503.66349 -19345498.25048  20509135.451    20509139.440
 04  5 22  3 30  0.0000000  0  7G16G13G20G 4G27G 3G 1
  21702530.204   -15092662.92649 -11741109.98847  21702529.981    21702532.965
  21131503.955   -24282030.41549 -18875677.32947  21131504.224    21131506.986
  22035594.086   -19180439.68949 -14931727.95547  22035593.626    22035597.986
  24778759.262    -4493692.00849  -3490345.15245  24778759.543    24778766.204
  22795579.108   -13660129.27249 -10629007.18146  22795578.919    22795584.213
  24355494.996    -4143630.81549  -2989985.24045  24355494.832    24355501.095
  20511618.716   -24838455.22149 -19335330.62148  20511618.442    20511622.440
 04  5 22  3 30 30.0000000  0  7G16G13G20G 4G27G 3G 1
  21711293.909   -15046609.40749 -11705224.12747  21711293.674    21711296.688
  21121013.516   -24337158.06649 -18918633.92347  21121013.796    21121016.511
  22053310.160   -19087341.16249 -14859183.68647  22053309.691    22053314.089
  24788635.783    -4441790.50149  -3449902.50445  24788636.234    24788642.627
  22783969.910   -13721135.59949 -10676544.51246  22783969.726    22783975.016
  24341287.764    -4218290.26249  -3048161.28845  24341287.537    24341293.843
  20514162.786   -24825086.07249 -19324913.09448  20514162.531    20514166.525
 04  5 22  3 31  0.0000000  0  7G16G13G20G 4G27G 3G 1
  21720156.583   -15000035.68949 -11668932.92047  21720156.378    21720159.361
  21110566.916   -24392055.37149 -18961411.03747  21110567.198    21110569.884
  22071089.361   -18993910.99049 -14786381.00347  22071088.883    22071093.303
  24798573.480    -4389567.57949  -3409209.42445  24798574.035    24798580.428
  22772394.390   -13781965.10249 -10723944.07546  22772394.220    22772399.482
  24327110.175    -4292793.48649  -3106215.69345  24327110.082    24327116.199
  20516767.896   -24811395.90749 -19314245.42748  20516767.637    20516771.657
 04  5 22  3 31 30.0000000  0  7G16G13G20G 4G27G 3G 1
  21729117.734   -14952944.40849 -11632238.41647  21729117.535    21729120.528
  21100164.298   -24446721.47349 -19004007.98147  21100164.580    21100167.263
  22088931.020   -18900152.46349 -14713322.45547  22088930.542    22088934.986
  24808571.900    -4337026.85549  -3368268.67345  24808572.353    24808578.803
  22760852.427   -13842618.31949 -10771206.25346  22760852.270    22760857.504
  24312962.943    -4367137.64049  -3164146.08145  24312962.876    24312969.018
  20519434.153   -24797384.59949 -19303327.51748  20519433.892    20519437.903
 04  5 22  3 32  0.0000000  0  7G16G13G20G 4G27G 3G 1
  21738177.081   -14905337.01349 -11595141.73947  21738176.903    21738179.891
  21089805.977   -24501154.65549 -19046423.42347  21089806.281    21089808.947
  22106834.738   -18806067.99649 -14640009.92447  22106834.267    22106838.743
  24818630.236    -4284170.12649  -3327081.70545  24818630.679    24818637.190
  22749344.015   -13903095.06849 -10818330.92946  22749343.867    22749349.110
  24298846.322    -4441319.62349  -3221950.14445  24298846.189    24298852.398
  20522161.717   -24783051.22449 -19292158.64548  20522161.453    20522165.463
 04  5 22  3 32 30.0000000  0  7G16G13G20G 4G27G 3G 1
  21747334.375   -14857215.12149 -11557644.16347  21747334.184    21747337.177
  21079492.412   -24555352.88749 -19088655.79847  21079492.701    21079495.353
  22124800.032   -18711659.78349 -14566445.11847  22124799.570    22124804.069
  24828748.165    -4231000.13649  -3285650.60945  24828748.645    24828755.192
  22737869.159   -13963395.36849 -10865318.12346  22737869.061    22737874.285
  24284761.578    -4515335.97349  -3279625.16645  24284761.341    24284767.632
  20524950.724   -24768394.88249 -19280738.11448  20524950.463    20524954.457
 04  5 22  3 33  0.0000000  0  7G16G13G20G 4G27G 3G 1
  21756589.355   -14808579.96449 -11519746.63747  21756589.147    21756592.127
  21069223.914   -24609314.28249 -19130703.62547  21069224.180    21069226.837
  22142826.519   -18616930.09849 -14492629.83047  22142826.080    22142830.594
  24838925.383    -4177518.99949  -3243977.09045  24838925.850    24838932.228
  22726428.130   -14023518.59949 -10912167.34646  22726427.962    22726433.177
  24270708.733    -4589183.44249  -3337168.53645  24270708.567    24270714.678
  20527801.433   -24753414.35249 -19269064.96448  20527801.159    20527805.178
 04  5 22  3 33 30.0000000  0  7G16G13G20G 4G27G 3G 1
  21765941.438   -14759434.33249 -11481451.34247  21765941.213    21765944.215
  21059000.476   -24663038.60349 -19172566.70947  21059000.747    21059003.410
  22160913.511   -18521882.52949 -14418566.81746  22160913.089    22160917.611
  24849161.072    -4123730.12249  -3202063.77245  24849161.592    24849168.170
  22715020.498   -14083465.91249 -10958879.47746  22715020.309    22715025.494
  24256688.372    -4662859.68749  -3394578.51745  24256688.305    24256694.473
  20530713.764   -24738109.85349 -19257139.37648  20530713.493    20530717.516
 04  5 22  3 34  0.0000000  0  7G16G13G20G 4G27G 3G 1
  21775390.256   -14709780.28049 -11442759.87047  21775390.101    21775393.089
  21048822.545   -24716523.90449 -19214243.55847  21048822.813    21048825.483
  22179060.427   -18426520.01449 -14344258.40646  22179059.966    22179064.554
  24859454.930    -4069636.08949  -3159912.63945  24859455.458    24859462.034
  22703646.280   -14143237.34949 -11005454.57346  22703646.133    22703651.284
  24242701.724    -4736361.53849  -3451852.60645  24242701.617    24242707.795
  20533687.876   -24722480.73049 -19244960.83548  20533687.604    20533691.624
 04  5 22  3 34 30.0000000  0  7G16G13G20G 4G27G 3G 1
  21784935.682   -14659618.79349 -11403673.00547  21784935.513    21784938.490
  21038690.468   -24769768.15849 -19255732.57547  21038690.738    21038693.421
  22197267.042   -18330843.96449 -14269705.66646  22197266.592    22197271.157
  24869806.401    -4015239.09849  -3117525.45345  24869807.011    24869813.472
  22692305.758   -14202832.24249 -11051892.10646  22692305.574    22692310.736
  24228748.345    -4809685.59249  -3508988.15645  24228748.257    24228754.244
  20536724.064   -24706525.51149 -19232528.19548  20536723.792    20536727.803
 04  5 22  3 35  0.0000000  0  7G16G13G20G 4G27G 3G 1
  21794577.150   -14608952.64749 -11364192.88847  21794576.978    21794579.983
  21028604.389   -24822770.81449 -19297033.33347  21028604.670    21028607.343
  22215532.590   -18234857.94249 -14194911.39246  22215532.137    22215536.734
  24880214.860    -3960542.16249  -3074904.54845  24880215.545    24880222.152
  22680998.640   -14262251.32749 -11098192.63346  22680998.452    22681003.594
  24214829.585    -4882829.27049  -3565983.11745  24214829.513    24214835.545
  20539822.310   -24690244.04049 -19219841.32648  20539822.037    20539826.072
 04  5 22  3 35 30.0000000  0  7G16G13G20G 4G27G 3G 1
  21804314.426   -14557783.00049 -11324320.43747  21804314.227    21804317.227
  21018564.754   -24875529.30449 -19338143.83447  21018565.040    21018567.699
  22233856.704   -18138564.15349 -14119877.32046  22233856.242    22233860.851
  24890680.216    -3905547.52849  -3032051.67845  24890680.780    24890687.333
  22669725.094   -14321494.07749 -11144355.76046  22669724.916    22669730.011
  24200945.809    -4955788.93949  -3622834.80645  24200945.754    24200951.500
  20542982.859   -24673635.08149 -19206899.27848  20542982.609    20542986.627
 04  5 22  3 36  0.0000000  0  7G16G13G20G 4G27G 3G 1
  21814146.972   -14506112.48449 -11284057.69847  21814146.820    21814149.837
  21008571.790   -24928042.68349 -19379063.33447  21008572.068    21008574.696
  22252238.763   -18041965.94249 -14044606.02146  22252238.316    22252242.934
  24901201.428    -3850258.36949  -2988969.27345  24901201.996    24901208.614
  22658484.918   -14380561.32649 -11190382.13646  22658484.747    22658489.800
  24187097.384    -5028562.32149  -3679541.18345  24187097.321    24187103.234
  20546205.769   -24656698.58049 -19193702.00248  20546205.508    20546209.553
 04  5 22  3 36 30.0000000  0  7G16G13G20G 4G27G 3G 1
  21824074.650   -14453942.47949 -11243405.74847  21824074.477    21824077.460
  20998625.844   -24980308.99749 -19419790.30747  20998626.114    20998628.756
  22270678.424   -17945065.23249 -13969099.01246  22270677.960    22270682.588
  24911778.181    -3794676.78949  -2945659.02845  24911778.844    24911785.553
  22647278.266   -14439452.47049 -11236271.26746  22647278.066    22647283.156
  24173285.253    -5101145.68349  -3736099.67045  24173285.203    24173290.902
  20549491.244   -24639433.28549 -19180248.52048  20549490.983    20549495.018
 04  5 22  3 37  0.0000000  0  6G16G13G20G27G 3G 1
  21834097.518   -14401272.06249 -11202363.86347  21834097.329    21834100.307
  20988727.633   -25032324.19649 -19460321.62047  20988727.906    20988730.550
  22289175.562   -17847862.26549 -13893356.47846  22289175.105    22289179.719
  22636105.565   -14498165.00749 -11282021.24046  22636105.400    22636110.489
  24159510.208    -5173533.15249  -3792505.29445  24159510.109    24159516.016
  20552839.984   -24621835.69449 -19166536.11848  20552839.735    20552843.733
 04  5 22  3 37 30.0000000  0  6G16G13G20G27G 3G 1
  21844215.753   -14348100.33149 -11160931.34647  21844215.584    21844218.547
  20978878.207   -25084083.25349 -19500653.33547  20978878.495    20978881.119
  22307730.357   -17750356.32449 -13817377.85046  22307729.910    22307734.518
  22624967.487   -14556695.73049 -11327629.54746  22624967.351    22624972.423
  24145773.797    -5245718.37049  -3848753.53245  24145773.730    24145779.500
  20556252.659   -24603902.05749 -19152561.84848  20556252.393    20556256.380
 04  5 22  3 38  0.0000000  0  6G16G13G20G27G 3G 1
  21854427.193   -14294439.02249 -11119117.34447  21854427.005    21854429.941
  20969075.951   -25135594.44049 -19540791.90147  20969076.241    20969078.863
  22326340.401   -17652560.14149 -13741173.05646  22326339.926    22326344.560
  22613862.109   -14615054.64049 -11373103.96346  22613861.969    22613867.041
  24132074.628    -5317708.25349  -3904849.41045  24132074.602    24132080.378
  20559727.492   -24585641.69949 -19138332.99548  20559727.227    20559731.196
 04  5 22  3 38 30.0000000  0  6G16G13G20G27G 3G 1
  21864731.787   -14240288.00349 -11076921.75147  21864731.591    21864734.552
  20959321.474   -25186854.48249 -19580734.77347  20959321.773    20959324.393
  22345005.581   -17554474.47249 -13664742.70346  22345005.085    22345009.708
  22602789.762   -14673239.99649 -11418443.14646  22602789.645    22602794.677
  24118413.376    -5389497.70149  -3960789.16445  24118413.380    24118419.162
  20563265.047   -24567051.75249 -19123847.31548  20563264.798    20563268.747
 04  5 22  3 39  0.0000000  0  6G16G13G20G27G 3G 1
  21875129.121   -14185649.51349 -11034346.30447  21875128.943    21875131.906
  20949615.122   -25237861.70549 -19620480.64747  20949615.413    20949618.032
  22363725.283   -17456102.04049 -13588088.89846  22363724.785    22363729.372
  22591750.430   -14731251.90049 -11463647.16846  22591750.297    22591755.291
  24104790.851    -5461083.99849  -4016570.63045  24104790.821    24104796.660
  20566865.393   -24548131.88749 -19109104.56748  20566865.126    20566869.067
 04  5 22  3 39 30.0000000  0  6G16G13G20G27G 3G 1
  21885619.207   -14130523.69949 -10991391.13247  21885619.041    21885621.992
  20939957.470   -25288612.88049 -19660027.00347  20939957.769    20939960.364
  22382499.388   -17357443.62349 -13511212.23646  22382498.918    22382503.464
  22580744.447   -14789088.52549 -11508714.60746  22580744.296    22580749.264
  24091208.032    -5532462.09849  -4072189.82545  24091208.024    24091213.686
  20570529.011   -24528879.44849 -19094102.66348  20570528.749    20570532.675
 04  5 22  3 40  0.0000000  0  6G16G13G20G27G 3G 1
  21896201.531   -14074913.28449 -10948058.33647  21896201.375    21896204.287
  20930348.750   -25339107.05449 -19699373.10147  20930349.031    20930351.631
  22401327.187   -17258502.87349 -13434115.56346  22401326.734    22401331.278
  22569771.609   -14846750.95149 -11553646.29946  22569771.443    22569776.421
  24077665.243    -5603629.77149  -4127645.14145  24077665.270    24077670.733
  20574255.867   -24509294.56549 -19078841.71248  20574255.609    20574259.523
 04  5 22  3 40 30.0000000  0  6G16G13G20G27G 3G 1
  21906875.739   -14018820.02049 -10904349.30147  21906875.586    21906878.470
  20920789.268   -25389342.38849 -19738517.50547  20920789.539    20920792.141
  22420208.273   -17159282.07149 -13356800.69946  22420207.813    22420212.372
  22558831.992   -14904238.72049 -11598441.90446  22558831.836    22558836.771
  24064163.080    -5674583.47149  -4182933.61745  24064163.036    24064168.647
  20578046.211   -24489376.18949 -19063320.90048  20578045.965    20578049.888
 04  5 22  3 41  0.0000000  0  6G16G13G20G27G 3G 1
  21917641.602   -13962245.21149 -10860265.02747  21917641.403    21917644.291
  20911279.511   -25439316.48749 -19777458.35047  20911279.802    20911282.383
  22439142.309   -17059783.22249 -13279269.16646  22439141.855    22439146.414
  22547925.765   -14961551.13049 -11643100.86146  22547925.636    22547930.528
  24050702.319    -5745319.29249  -4238052.32145  24050702.204    24050707.906
  20581900.306   -24469122.78549 -19047539.02448  20581900.057    20581903.955
 04  5 22  3 41 30.0000000  0  6G16G13G20G27G 3G 1
  21928498.259   -13905192.78649 -10815808.58947  21928498.097    21928501.004
  20901819.351   -25489029.62749 -19816195.84947  20901819.651    20901822.227
  22458128.437   -16960010.71349 -13201524.38446  22458127.932    22458132.522
  22537052.530   -15018690.16249 -11687624.70946  22537052.363    22537057.275
  24037283.467    -5815836.18849  -4293000.55745  24037283.237    24037288.847
  20585817.954   -24448535.43649 -19031496.93248  20585817.695    20585821.592
 04  5 22  3 42  0.0000000  0  6G16G13G20G27G 3G 1
  21939445.795   -13847663.03849 -10770980.21947  21939445.628    21939448.594
  20892409.559   -25538478.31149 -19854727.28747  20892409.866    20892412.440
  22477166.356   -16859965.85849 -13123567.39546  22477165.872    22477170.456
  22526212.562   -15075654.30949 -11732012.29246  22526212.388    22526217.317
  24023907.199    -5886129.09149  -4347774.08645  24023907.056    24023912.851
  20589799.577   -24427611.92849 -19015192.90348  20589799.319    20589803.207
 04  5 22  3 42 30.0000000  0  6G16G13G20G27G 3G 1
  21950483.873   -13789657.54049 -10725781.13647  21950483.676    21950486.648
  20883050.503   -25587660.63049 -19893051.15847  20883050.795    20883053.367
  22496255.680   -16759650.88949 -13045399.92346  22496255.207    22496259.829
  22515405.913   -15132443.22749 -11776263.34247  22515405.779    22515410.699
  24010574.104    -5956194.64949  -4402370.65245  24010573.954    24010579.185
  20593845.366   -24406351.10849 -18998626.02548  20593845.118    20593848.982
 04  5 22  3 43  0.0000000  0  6G16G13G20G27G 3G 1
  21961611.885   -13731179.50249 -10680213.82047  21961611.663    21961614.658
  20873742.171   -25636576.19549 -19931167.17247  20873742.469    20873745.050
  22515395.682   -16659069.46749 -12967024.81446  22515395.236    22515399.854
  22504632.492   -15189057.94549 -11820378.64847  22504632.347    22504637.246
  23997284.461    -6026031.01449  -4456788.38345  23997284.325    23997289.942
  20597955.260   -24384753.45049 -18981796.67848  20597955.032    20597958.868
 04  5 22  3 43 30.0000000  0  6G16G13G20G27G 3G 1
  21972829.414   -13672231.09749 -10634280.00147  21972829.167    21972832.180
  20864484.952   -25685223.15049 -19969073.87647  20864485.238    20864487.851
  22534585.930   -16558224.36049 -12888444.25346  22534585.481    22534590.117
  22493892.144   -15245498.53049 -11864358.27647  22493891.983    22493896.872
  23984039.216    -6095634.90349  -4511025.12145  23984039.086    23984044.579
  20602129.391   -24362818.31249 -18964704.36348  20602129.143    20602133.003
 04  5 22  3 44  0.0000000  0  6G16G13G20G27G 3G 1
  21984136.070   -13612814.27849 -10587981.18547  21984135.839    21984138.798
  20855279.165   -25733599.81249 -20006769.95947  20855279.441    20855282.070
  22553825.851   -16457118.10549 -12809660.19646  22553825.401    22553830.028
  22483184.914   -15301765.04449 -11908202.25647  22483184.755    22483189.650
  23970838.799    -6165003.12849  -4565078.23845  23970838.725    23970844.090
  20606367.861   -24340545.00649 -18947348.53648  20606367.599    20606371.494
 04  5 22  3 44 30.0000000  0  6G16G13G20G27G 3G 1
  21995531.509   -13552930.56849 -10541318.54747  21995531.320    21995534.305
  20846125.206   -25781704.12549 -20044253.83347  20846125.498    20846128.110
  22573114.995   -16355752.99149 -12730674.43346  22573114.538    22573119.182
  22472510.920   -15357857.03049 -11951910.23447  22472510.755    22472515.627
  23957683.925    -6234132.23449  -4618944.93445  23957683.851    23957689.335
  20610670.893   -24317932.35049 -18929728.28948  20610670.650    20610674.535
 04  5 22  3 45  0.0000000  0  6G16G13G20G27G 3G 1
  22007015.100   -13492583.82349 -10494295.11347  22007014.931    22007017.905
  20837023.045   -25829536.15449 -20081525.53547  20837023.329    20837025.946
  22592452.593   -16254133.33149 -12651490.31246  22592452.111    22592456.783
  22461869.784   -15413776.36749 -11995483.69247  22461869.642    22461874.510
  23944574.755    -6303020.71949  -4672624.21945  23944574.696    23944580.198
  20615038.338   -24294981.25449 -18911844.31448  20615038.086    20615041.965
 04  5 22  3 45 30.0000000  0  6G16G13G20G27G 3G 1
  22018586.774   -13431774.25549 -10446911.03647  22018586.620    22018589.577
  20827973.495   -25877091.96649 -20118582.00047  20827973.774    20827976.372
  22611838.496   -16152259.81149 -12572108.39046  22611838.020    22611842.732
  22451261.880   -15469521.01649 -12038921.04147  22451261.755    22451266.626
  23931512.417    -6371663.43949  -4726111.96845  23931512.428    23931517.800
  20619470.693   -24271689.12049 -18893694.59948  20619470.438    20619474.330
 04  5 22  3 46  0.0000000  0  7G16G13G20G27G 3G 1G 8
  22030244.030   -13370515.23649 -10399176.74047  22030243.819    22030246.761
  20818974.574   -25924381.64549 -20155431.08847  20818974.844    20818977.430
  22631270.000   -16050146.63649 -12492539.71046  22631269.538    22631274.247
  22440685.041   -15525102.57149 -12082231.29647  22440684.897    22440689.742
  23918495.288    -6440068.78449  -4779414.72545  23918495.410    23918500.598
  20623965.857   -24248066.70449 -18875287.52348  20623965.606    20623969.506
  24860241.278    -4077157.92959  -3151522.56245  24860240.944    24860249.518
 04  5 22  3 46 30.0000000  0  7G16G13G20G27G 3G 1G 8
  22041989.006   -13308795.23549 -10351083.23147  22041988.759    22041991.677
  20810029.263   -25971389.47849 -20192060.55447  20810029.536    20810032.122
  22650749.188   -15947782.93849 -12412775.82046  22650748.753    22650753.429
  22430141.850   -15580507.29049 -12125403.75247  22430141.676    22430146.528
  23905526.435    -6508219.94449  -4832519.39345  23905526.448    23905531.882
  20628526.636   -24224099.57249 -18856611.83248  20628526.378    20628530.286
  24843223.925    -4166583.45949  -3221204.61345  24843223.684    24843232.198
 04  5 22  3 47  0.0000000  0  7G16G13G20G27G 3G 1G 8
  22053821.027   -13246617.55749 -10302633.10547  22053820.817    22053823.658
  20801137.716   -26018114.96749 -20228470.01947  20801137.992    20801140.545
  22670275.387   -15845172.25349 -12332819.47946  22670274.945    22670279.627
  22419632.096   -15635736.22849 -12168439.25047  22419631.942    22419636.764
  23892606.403    -6576114.93649  -4885424.52145  23892606.493    23892611.760
  20633152.989   -24199788.14449 -18837667.86948  20633152.716    20633156.624
  24826225.010    -4255912.85149  -3290811.76845  24826224.773    24826233.242
 04  5 22  3 47 30.0000000  0  7G16G13G20G27G 3G 1G 8
  22065739.728   -13183984.42649 -10253828.06047  22065739.506    22065742.327
  20792300.094   -26064556.79949 -20264658.45247  20792300.380    20792302.923
  22689847.984   -15742317.53149 -12252672.97846  22689847.525    22689852.227
  22409155.755   -15690789.74749 -12211338.05247  22409155.554    22409160.349
  23879735.766    -6643750.76849  -4938127.71745  23879735.763    23879740.954
  20637844.886   -24175132.00049 -18818455.29048  20637844.617    20637848.534
  24809244.441    -4345145.43849  -3360343.48045  24809244.307    24809252.671
 04  5 22  3 48  0.0000000  0  7G16G13G20G27G 3G 1G 8
  22077744.264   -13120900.25449 -10204671.56247  22077744.046    22077746.906
  20783516.436   -26110715.33149 -20300626.12947  20783516.721    20783519.253
  22709466.102   -15639223.71849 -12172340.16846  22709465.664    22709470.373
  22398712.364   -15745670.14049 -12254101.94447  22398712.174    22398716.929
  23866914.416    -6711126.46549  -4990628.10845  23866914.370    23866919.906
  20642602.072   -24150132.67449 -18798975.29448  20642601.824    20642605.747
  24792282.178    -4434282.73649  -3429800.95845  24792281.951    24792290.168
 04  5 22  3 48 30.0000000  0  7G16G13G20G27G 3G 1G 8
  22089834.163   -13057367.21949 -10155165.30747  22089833.976    22089836.816
  20774786.931   -26156589.08949 -20336371.90747  20774787.214    20774789.738
  22729129.127   -15535893.80449 -12091823.39646  22729128.682    22729133.441
  22388301.917   -15800377.33149 -12296730.87747  22388301.731    22388306.454
  23854143.274    -6778239.47649  -5042923.91045  23854143.232    23854148.495
  20647424.656   -24124789.82849 -18779227.61648  20647424.386    20647428.325
  24775337.874    -4523324.58549  -3499184.04445  24775337.661    24775346.008
 04  5 22  3 49  0.0000000  0  7G16G13G20G27G 3G 1G 8
  22102009.169   -12993387.06949 -10105310.65147  22102008.998    22102011.862
  20766112.083   -26202175.69049 -20371893.92647  20766112.360    20766114.896
  22748836.719   -15432329.84149 -12011124.24846  22748836.288    22748841.085
  22377924.448   -15854911.07949 -12339224.66847  22377924.256    22377928.977
  23841422.952    -6845085.96849  -5095012.02245  23841422.849    23841428.071
  20652312.882   -24099102.11349 -18759211.20748  20652312.592    20652316.552
  24758411.969    -4612269.87749  -3568491.91245  24758411.829    24758420.157
 04  5 22  3 49 30.0000000  0  7G16G13G20G27G 3G 1G 8
  22114268.604   -12928963.23249 -10055110.26347  22114268.431    22114271.313
  20757491.946   -26247474.71849 -20407191.85948  20757492.247    20757494.787
  22768588.092   -15328535.79149 -11930245.80546  22768587.635    22768592.472
  22367579.690   -15909272.86349 -12381584.46247  22367579.507    22367584.181
  23828753.216    -6911664.25649  -5146891.14545  23828753.207    23828758.415
  20657266.545   -24073070.34749 -18738926.71748  20657266.282    20657270.210
  24741504.376    -4701119.26249  -3637725.05445  24741504.193    24741512.369
 04  5 22  3 50  0.0000000  0  7G16G13G20G27G 3G 1G 8
  22126612.357   -12864096.38949 -10004564.68347  22126612.185    22126615.083
  20748927.134   -26292483.06149 -20442263.28648  20748927.426    20748929.996
  22788383.019   -15224512.92549 -11849189.07246  22788382.541    22788387.379
  22357268.043   -15963460.89949 -12423808.85947  22357267.836    22357272.491
  23816135.660    -6977969.56349  -5198557.51345  23816135.612    23816140.969
  20662286.134   -24046692.22349 -18718372.33248  20662285.867    20662289.817
  24724615.505    -4789870.58149  -3706881.77445  24724615.215    24724623.316
 04  5 22  3 50 30.0000000  0  7G16G13G20G27G 3G 1G 8
  22139039.240   -12798792.58349  -9953678.61147  22139039.102    22139042.010
  20740417.300   -26337202.58949 -20477109.65748  20740417.588    20740420.160
  22808220.295   -15120267.42949 -11767958.84446  22808219.848    22808224.649
  22346988.660   -16017479.19749 -12465900.99247  22346988.482    22346993.114
  23803570.104    -7044002.36249  -5250011.58845  23803570.032    23803575.338
  20667371.031   -24019970.94949 -18697550.55048  20667370.777    20667374.718
  24707744.595    -4878527.35049  -3775964.82745  24707744.304    24707752.249
 04  5 22  3 51  0.0000000  0  7G16G13G20G27G 3G 1G 8
  22151549.634   -12733050.24849  -9902450.82747  22151549.471    22151552.409
  20731963.369   -26381628.21649 -20511727.02448  20731963.650    20731966.224
  22828100.072   -15015798.62649 -11686554.63746  22828099.655    22828104.417
  22336742.251   -16071324.23949 -12507858.12947  22336742.075    22336746.711
  23791057.576    -7109756.23649  -5301248.34645  23791057.564    23791062.647
  20672522.043   -23992902.23249 -18676458.04748  20672521.791    20672525.719
  24690892.511    -4967085.30249  -3844970.87245  24690892.111    24690899.946
 04  5 22  3 51 30.0000000  0  7G16G13G20G27G 3G 1G 8
  22164142.716   -12666873.44849  -9850884.50747  22164142.484    22164145.443
  20723565.280   -26425760.42249 -20546115.74848  20723565.574    20723568.125
  22848021.429   -14911111.39949 -11604980.20246  22848020.984    22848025.773
  22326528.402   -16124998.12549 -12549681.90347  22326528.246    22326532.868
  23778598.010    -7175230.26749  -5352266.94845  23778598.028    23778603.399
  20677738.896   -23965487.60049 -18655095.98848  20677738.619    20677742.572
  24674058.881    -5055545.99449  -3913901.13145  24674058.445    24674066.252
 04  5 22  3 52  0.0000000  0  7G16G13G20G27G 3G 1G 8
  22176818.238   -12600263.19149  -9798980.42447  22176818.029    22176820.950
  20715223.775   -26469595.40849 -20580272.87548  20715224.069    20715226.593
  22867984.173   -14806206.70549 -11523236.30946  22867983.744    22867988.505
  22316347.466   -16178498.95749 -12591370.81547  22316347.304    22316351.940
  23766192.997    -7240419.59749  -5403063.81545  23766192.898    23766197.996
  20683021.993   -23937724.67749 -18633462.53848  20683021.742    20683025.681
  24657244.192    -5143907.18149  -3982753.84645  24657243.756    24657251.578
 04  5 22  3 52 30.0000000  0  7G16G13G20G27G 3G 1G 8
  22189575.554   -12533223.10349  -9746741.41347  22189575.307    22189578.239
  20706938.830   -26513133.24849 -20614198.46348  20706939.124    20706941.650
  22887987.443   -14701088.81749 -11441326.29646  22887986.977    22887991.785
  22306199.072   -16231828.88249 -12632926.55647  22306198.910    22306203.550
  23753842.320    -7305322.69149  -5453637.58645  23753842.297    23753847.457
  20688371.131   -23909614.65049 -18611558.61648  20688370.889    20688374.817
  24640448.297    -5232169.70849  -4051529.66645  24640447.823    24640455.690
 04  5 22  3 53  0.0000000  0  7G16G13G20G27G 3G 1G 8
  22202414.221   -12465755.40349  -9694169.18946  22202413.979    22202416.931
  20698710.758   -26556372.00849 -20647890.99148  20698711.041    20698713.575
  22908030.812   -14595760.45249 -11359252.27446  22908030.351    22908035.181
  22296083.255   -16284987.61449 -12674348.90347  22296083.083    22296087.743
  23741546.648    -7369936.69749  -5503986.10345  23741546.649    23741551.782
  20693786.521   -23881156.60149 -18589383.50248  20693786.280    20693790.223
  24623671.153    -5320333.43349  -4120228.50345  24623670.658    24623678.607
 04  5 22  3 53 30.0000000  0  7G16G13G20G27G 3G 1G 8
  22215333.840   -12397862.44549  -9641265.59146  22215333.585    22215336.532
  20690539.829   -26599310.37249 -20681349.44548  20690540.107    20690542.662
  22928113.747   -14490224.31549 -11277016.35946  22928113.298    22928118.095
  22285999.989   -16337975.41449 -12715638.06347  22285999.814    22286004.501
  23729306.479    -7434258.76949  -5554107.12145  23729306.443    23729311.562
  20699268.190   -23852350.31549 -18566937.03748  20699267.935    20699271.867
  24606912.957    -5408397.90349  -4188850.00345  24606912.559    24606920.215
 04  5 22  3 54  0.0000000  0  7G16G13G20G27G 3G 1G 8
  22228334.038   -12329545.91149  -9588031.94346  22228333.815    22228336.749
  20682426.533   -26641945.97949 -20714571.98548  20682426.834    20682429.380
  22948235.750   -14384482.56449 -11194620.22946  22948235.307    22948240.114
  22275949.341   -16390791.90549 -12756793.72647  22275949.151    22275953.819
  23717122.633    -7498285.03049  -5603997.67445  23717122.627    23717127.736
  20704816.308   -23823194.66549 -18544218.34048  20704816.084    20704819.988
  24590173.945    -5496361.56749  -4257392.95545  24590173.507    24590181.124
 04  5 22  3 54 30.0000000  0  7G16G13G20G27G 3G 1G 8
  22241414.399   -12260808.06849  -9534469.99546  22241414.179    22241417.122
  20674371.162   -26684277.23249 -20747557.36648  20674371.460    20674373.997
  22968396.268   -14278538.27549 -11112066.29146  22968395.860    22968400.636
  22265931.274   -16443436.98549 -12797815.82047  22265931.097    22265935.728
  23704995.545    -7562012.48349  -5653655.33545  23704995.513    23705000.888
  20710431.043   -23793689.05949 -18521226.95248  20710430.807    20710434.705
  24573454.063    -5584224.51649  -4325857.43345  24573453.563    24573461.117
 04  5 22  3 55  0.0000000  0  7G16G13G20G27G 3G 1G 8
  22254574.270   -12191652.62249  -9480582.64446  22254574.029    22254577.007
  20666373.848   -26726303.44449 -20780305.05548  20666374.147    20666376.678
  22988594.633   -14172395.27349 -11029357.49346  22988594.237    22988599.029
  22255945.599   -16495911.96849 -12838705.37247  22255945.410    22255950.030
  23692925.764    -7625439.38949  -5703078.82445  23692925.698    23692931.137
  20716112.252   -23763834.12049 -18497963.35648  20716112.014    20716115.900
  24556753.200    -5671987.13749  -4394243.73545  24556752.854    24556760.240
 04  5 22  3 55 30.0000000  0  7G16G13G20G27G 3G 1G 8
  22267813.281   -12122081.22149  -9426371.17646  22267813.024    22267816.026
  20658434.959   -26768022.49649 -20812813.40648  20658435.253    20658437.781
  23008830.357   -14066055.89149 -10946495.66046  23008829.918    23008834.738
  22245992.341   -16548216.58549 -12879462.18047  22245992.130    22245996.744
  23680913.926    -7688562.33249  -5752265.46345  23680913.755    23680919.125
  20721860.156   -23733628.80149 -18474426.74148  20721859.885    20721863.764
  24540071.713    -5759648.30249  -4462551.00145  24540071.352    24540078.629
 04  5 22  3 56  0.0000000  0  7G16G13G20G27G 3G 1G 8
  22281131.280   -12052094.51349  -9371836.08246  22281131.044    22281134.061
  20650555.117   -26809431.36449 -20845080.04348  20650555.408    20650557.902
  23029103.321   -13959521.07949 -10863481.55746  23029102.913    23029107.719
  22236071.764   -16600349.35049 -12920085.06947  22236071.558    22236076.143
  23668960.879    -7751376.66949  -5801211.63045  23668960.621    23668965.875
  20727675.069   -23703071.26149 -18450615.66548  20727674.799    20727678.657
  24523409.806    -5847206.43849  -4530777.99545  24523409.427    24523416.727
 04  5 22  3 56 30.0000000  0  7G16G13G20G27G 3G 1G 8
  22294527.071   -11981699.16149  -9316982.57846  22294526.841    22294529.868
  20642733.881   -26850532.15749 -20877106.62048  20642734.182    20642736.670
  23049412.129   -13852797.73549 -10780320.55846  23049411.734    23049416.509
  22226183.073   -16652314.53049 -12960577.39147  22226182.884    22226187.445
  23657066.114    -7813883.57349  -5849918.25445  23657065.934    23657071.095
  20733556.327   -23672165.02149 -18426532.87648  20733556.058    20733559.898
  24506766.872    -5934664.73749  -4598927.18945  24506766.628    24506773.786
 04  5 22  3 57  0.0000000  0  7G16G13G20G27G 3G 1G 8
  22308001.061   -11910893.17249  -9261809.08646  22308000.802    22308003.830
  20634972.380   -26891319.07449 -20908888.61348  20634972.676    20634975.143
  23069757.060   -13745884.55549 -10697011.60446  23069756.640    23069761.414
  22216327.082   -16704108.04249 -13000935.94347  22216326.887    22216331.455
  23645231.225    -7876076.11949  -5898379.95945  23645231.147    23645236.251
  20739504.805   -23640905.44549 -18402174.76748  20739504.540    20739508.377
  24490143.792    -6022018.90549  -4666995.26845  24490143.646    24490150.776
 04  5 22  3 57 30.0000000  0  7G16G13G20G27G 3G 1G 8
  22321552.345   -11839680.67049  -9206318.83946  22321552.101    22321555.107
  20627270.579   -26931792.37849 -20940426.23448  20627270.867    20627273.317
  23090137.215   -13638786.18249 -10613558.36146  23090136.871    23090141.561
  22206503.358   -16755731.77049 -13041162.20447  22206503.188    22206507.748
  23633456.420    -7937952.89749  -5946595.56045  23633456.280    23633461.430
  20745520.304   -23609293.72349 -18377542.25248  20745520.035    20745523.891
  24473540.315    -6109270.02349  -4734983.03545  24473540.061    24473547.152
 04  5 22  3 58  0.0000000  0  7G16G13G20G27G 3G 1G 8
  22335180.410   -11768064.83049  -9150514.29446  22335180.206    22335183.147
  20619628.638   -26971951.06449 -20971718.70148  20619628.918    20619631.366
  23110551.957   -13531506.00649 -10529963.48146  23110551.558    23110556.322
  22196711.828   -16807186.45949 -13081256.71947  22196711.636    22196716.230
  23621741.864    -7999511.48049  -5994563.19945  23621741.827    23621747.130
  20751602.733   -23577330.13749 -18352635.56348  20751602.495    20751606.361
  24456956.473    -6196418.62149  -4802890.94645  24456956.212    24456963.394
 04  5 22  3 58 30.0000000  0  7G16G13G20G27G 3G 1G 8
  22348885.008   -11696046.61349  -9094396.21146  22348884.829    22348887.753
  20612047.186   -27011791.87349 -21002763.46948  20612047.476    20612049.904
  23131001.020   -13424045.43649 -10446228.00846  23131000.631    23131005.505
  22186952.684   -16858470.90349 -13121218.57247  22186952.483    22186957.074
  23610088.949    -8060747.80649  -6042279.77745  23610088.956    23610094.032
  20757752.499   -23545012.89349 -18327453.28948  20757752.237    20757756.139
  24440392.488    -6283462.61049  -4870717.35645  24440392.119    24440399.382
 04  5 22  3 59  0.0000000  0  7G16G13G20G27G 3G 1G 8
  22362665.428   -11623629.89149  -9037967.60446  22362665.269    22362668.213
  20604526.225   -27051314.65749 -21033560.42848  20604526.513    20604528.967
  23151483.572   -13316408.88149 -10362355.37546  23151483.192    23151488.076
  22177225.639   -16909586.71649 -13161049.02447  22177225.456    22177230.054
  23598497.609    -8121660.50349  -6089744.15745  23598497.601    23598502.657
  20763969.374   -23512343.00549 -18301996.23248  20763969.103    20763973.037
  24423848.125    -6370403.25249  -4938463.24145  24423847.802    24423855.005
 04  5 22  3 59 30.0000000  0  7G16G13G20G27G 3G 1G 8
  22376521.349   -11550816.41149  -8981229.82846  22376521.177    22376524.173
  20597066.198   -27090517.20949 -21064107.85048  20597066.478    20597068.946
  23171999.297   -13208598.34649 -10278347.22346  23171998.899    23172003.789
  22167530.755   -16960533.47749 -13200747.75947  22167530.558    22167535.153
  23586968.565    -8182245.88149  -6136953.48445  23586968.602    23586973.526
  20770253.502   -23479319.53249 -18276263.66048  20770253.263    20770257.201
  24407323.699    -6457239.06749  -5006127.43445  24407323.461    24407330.583
 04  5 22  4  0  0.0000000  0  7G16G13G20G27G 3G 1G 8
  22390452.371   -11477608.52749  -8924184.73746  22390452.222    22390455.180
  20589667.454   -27129397.81849 -21094404.41048  20589667.740    20589670.191
  23192547.580   -13100616.39949 -10194205.50446  23192547.163    23192552.093
  22157868.072   -17011311.11649 -13240314.71647  22157867.897    22157872.466
  23575502.482    -8242501.16549  -6183905.58545  23575502.470    23575507.364
  20776605.070   -23445941.79249 -18250255.03348  20776604.806    20776608.769
  24390819.307    -6543969.59949  -5073709.56945  24390819.108    24390826.197
 04  5 22  4  0 30.0000000  0  7G16G13G20G27G 3G 1G 8
  22404457.968   -11404008.83349  -8866834.32746  22404457.807    22404460.778
  20582330.254   -27167954.97349 -21124448.92748  20582330.549    20582332.986
  23213127.947   -12992466.16949 -10109932.59046  23213127.537    23213132.468
  22148237.479   -17061920.01749 -13279750.18847  22148237.284    22148241.831
  23564099.703    -8302423.48149  -6230598.24845  23564099.663    23564104.510
  20783024.123   -23412209.59549 -18223970.20948  20783023.852    20783027.793
  24374334.969    -6630595.16749  -5141209.92645  24374334.759    24374341.881
 04  5 22  4  1  0.0000000  0  7G16G13G20G27G 3G 1G 8
  22418537.556   -11330020.46249  -8809181.05546  22418537.360    22418540.341
  20575054.764   -27206187.89349 -21154240.78948  20575055.056    20575057.469
  23233739.588   -12884151.13549 -10025531.32446  23233739.276    23233744.170
  22138638.819   -17112361.08349 -13319054.87347  22138638.629    22138643.169
  23552760.534    -8362010.72849  -6277029.78145  23552760.413    23552765.322
  20789510.497   -23378123.33549 -18197409.49348  20789510.222    20789514.168
  24357870.601    -6717115.81949  -5208628.53345  24357870.358    24357877.417
 04  5 22  4  1 30.0000000  0  7G16G13G20G27G 3G 1G 8
  22432690.742   -11255644.73349  -8751225.95746  22432690.581    22432693.593
  20567841.550   -27244093.51649 -21183777.61548  20567841.819    20567844.234
  23254382.363   -12775672.93149  -9941002.89746  23254381.975    23254386.923
  22129072.286   -17162633.30249 -13358227.99547  22129072.102    22129076.661
  23541486.045    -8421258.86449  -6323197.13045  23541485.907    23541490.628
  20796064.575   -23343681.50749 -18170571.70947  20796064.304    20796068.230
  24341426.479    -6803529.88049  -5275964.09245  24341426.221    24341433.381
 04  5 22  4  2  0.0000000  0  7G16G13G20G27G 3G 1G 8
  22446917.171   -11180884.50849  -8692971.23646  22446916.993    22446920.005
  20560690.808   -27281670.83449 -21213058.61948  20560691.090    20560693.495
  23275055.573   -12667034.77549  -9856349.77946  23275055.215    23275060.107
  22119537.792   -17212737.18849 -13397269.94247  22119537.633    22119542.185
  23530276.466    -8480165.61449  -6369098.45345  23530276.289    23530280.951
  20802686.286   -23308884.07249 -18143456.83547  20802686.040    20802689.974
  24325002.710    -6889837.33649  -5343216.58345  24325002.491    24325009.632
 04  5 22  4  2 30.0000000  0  7G16G13G20G27G 3G 1G 8
  22461216.375   -11105741.81549  -8634418.48146  22461216.164    22461219.181
  20553602.953   -27318917.60949 -21242082.05348  20553603.227    20553605.638
  23295758.682   -12558239.36549  -9771574.20746  23295758.361    23295763.226
  22110035.398   -17262672.49749 -13436180.52047  22110035.211    22110039.766
  23519132.278    -8538727.63749  -6414731.12445  23519132.144    23519136.842
  20809375.848   -23273730.28549 -18116064.27447  20809375.599    20809379.522
  24308599.278    -6976037.63049  -5410385.56245  24308599.077    24308606.095
 04  5 22  4  3  0.0000000  0  7G16G13G20G27G 3G 1G 8
  22475587.771   -11030219.76349  -8575570.12946  22475587.554    22475590.566
  20546578.141   -27355833.16949 -21270847.40248  20546578.420    20546580.838
  23316491.125   -12449290.12149  -9686678.68546  23316490.720    23316495.574
  22100564.899   -17312440.22749 -13474960.52347  22100564.708    22100569.259
  23508054.191    -8596942.80049  -6460093.52145  23508054.083    23508058.731
  20816133.132   -23238220.52549 -18088394.33647  20816132.881    20816136.825
  24292216.290    -7062130.75149  -5477471.04545  24292216.079    24292223.019
 04  5 22  4  3 30.0000000  0  7G16G13G20G27G 3G 1G 8
  22490030.704   -10954321.37749  -8516428.52846  22490030.506    22490033.555
  20539616.571   -27392416.25649 -21299353.69148  20539616.869    20539619.284
  23337252.175   -12340190.23549  -9601665.83346  23337251.767    23337256.663
  22091126.084   -17362041.22449 -13513610.60647  22091125.902    22091130.452
  23497042.542    -8654809.11149  -6505184.08645  23497042.436    23497047.123
  20822958.075   -23202355.18349 -18060447.33047  20822957.826    20822961.755
  24275853.591    -7148117.21449  -5544473.41545  24275853.356    24275860.319
 04  5 22  4  4  0.0000000  0  7G16G13G20G27G 3G 1G 8
  22504545.203   -10878046.96649  -8456993.91846  22504545.028    22504548.082
  20532719.026   -27428663.04849 -21327597.91848  20532719.314    20532721.733
  23358041.682   -12230940.55049  -9516536.24346  23358041.384    23358046.217
  22081719.482   -17411473.14049 -13552128.92647  22081719.294    22081723.837
  23486098.302    -8712321.38949  -6549998.82345  23486098.283    23486102.855
  20829851.221   -23166131.50649 -18032221.09847  20829850.974    20829854.894
  24259511.790    -7233994.07749  -5611390.37745  24259511.430    24259518.423
 04  5 22  4  4 30.0000000  0  7G16G13G20G27G 3G 1G 8
  22519130.616   -10801400.49549  -8397269.38946  22519130.371    22519133.410
  20525885.458   -27464573.64849 -21355580.18648  20525885.745    20525888.172
  23378858.958   -12121545.21849  -9431293.13346  23378858.594    23378863.509
  22072344.658   -17460737.88349 -13590516.98747  22072344.494    22072349.009
  23475221.467    -8769478.16949  -6594536.47145  23475221.481    23475226.235
  20836812.294   -23129550.70649 -18003716.58647  20836812.055    20836815.996
  24243190.439    -7319762.78149  -5678223.05545  24243190.079    24243197.106
 04  5 22  4  5  0.0000000  0  7G16G13G20G27G 3G 1G 8
  22533786.096   -10724385.21949  -8337257.47846  22533785.875    22533788.921
  20519116.071   -27500146.91749 -21383299.60248  20519116.361    20519118.765
  23399703.220   -12012007.96249  -9345939.48645  23399702.862    23399707.809
  22063001.507   -17509836.21449 -13628775.37847  22063001.342    22063005.838
  23464412.800    -8826277.65449  -6638795.76645  23464412.856    23464417.824
  20843841.264   -23092613.24449 -17974934.16147  20843841.049    20843844.992
  24226889.628    -7405423.61549  -5744971.67745  24226889.314    24226896.322
 04  5 22  4  5 30.0000000  0  7G16G13G20G27G 3G 1G 8
  22548511.553   -10647002.23949  -8276959.05146  22548511.390    22548514.398
  20512411.491   -27535379.72249 -21410753.71348  20512411.793    20512414.175
  23420574.251   -11902329.90849  -9260476.07845  23420573.884    23420578.936
  22053690.319   -17558766.75249 -13666903.01647  22053690.148    22053694.627
  23453672.922    -8882715.48849  -6682773.27145  23453672.949    23453677.847
  20850938.448   -23055317.29849 -17945872.39247  20850938.216    20850942.172
  24210609.790    -7490974.58249  -5811634.68845  24210609.474    24210616.468
 04  5 22  4  6  0.0000000  0  7G16G13G20G27G 3G 1G 8
  22563306.417   -10569254.79749  -8216376.63846  22563306.268    22563309.231
  20505771.800   -27570271.49349 -21437942.08748  20505772.080    20505774.484
  23441471.447   -11792514.62949  -9174905.76845  23441471.087    23441476.099
  22044410.823   -17607530.73049 -13704900.88147  22044410.642    22044415.066
  23443002.320    -8938790.00549  -6726467.66345  23443002.378    23443007.153
  20858103.793   -23017663.43949 -17916531.72847  20858103.535    20858107.503
  24194350.751    -7576416.12749  -5878212.44445  24194350.410    24194357.385
 04  5 22  4  6 30.0000000  0  7G16G13G20G27G 3G 1G 8
  22578170.176   -10491145.37249  -8155512.16446  22578169.958    22578172.925
  20499197.302   -27604820.57249 -21464863.43048  20499197.591    20499199.982
  23462394.159   -11682565.08549  -9089230.83545  23462393.792    23462398.779
  22035163.038   -17656128.13049 -13742768.94647  22035162.874    22035167.245
  23432401.417    -8994498.08749  -6769876.46945  23432401.346    23432406.311
  20865337.188   -22979651.52949 -17886912.05847  20865336.948    20865340.905
  24178112.680    -7661747.82049  -5944704.58845  24178112.262    24178119.225
 04  5 22  4  7  0.0000000  0  7G16G13G20G27G 3G 1G 8
  22593102.379   -10412675.95749  -8094367.15046  22593102.151    22593105.150
  20492688.410   -27639024.96349 -21491516.18948  20492688.697    20492691.079
  23483341.975   -11572483.86749  -9003453.27845  23483341.592    23483346.553
  22025946.940   -17704558.85449 -13780507.13647  22025946.775    22025951.125
  23421870.706    -9049836.82549  -6812997.53745  23421870.745    23421875.628
  20872638.903   -22941280.88649 -17857012.85147  20872638.633    20872642.587
  24161895.486    -7746969.44049  -6011110.96745  24161895.108    24161902.013
 04  5 22  4  7 30.0000000  0  7G16G13G20G27G 3G 1G 8
  22608102.345   -10333850.49749  -8032944.70746  22608102.096    22608105.104
  20486245.223   -27672884.10549 -21517899.91748  20486245.517    20486247.895
  23504314.097   -11462274.87649  -8917576.18445  23504313.622    23504318.638
  22016762.290   -17752824.41349 -13818116.63747  22016762.133    22016766.468
  23411410.596    -9104804.94949  -6855829.76745  23411410.608    23411415.368
  20880008.640   -22902552.51649 -17826834.90047  20880008.391    20880012.343
  24145699.164    -7832081.54749  -6077432.00945  24145698.731    24145705.643
 04  5 22  4  8  0.0000000  0  8G16G13G20G27G 3G19G 1G 8
  22623169.990   -10254669.56349  -7971245.27646  22623169.775    22623172.742
  20479868.394   -27706394.45949 -21544011.85848  20479868.682    20479871.076
  23525310.359   -11351939.06349  -8831600.24545  23525309.897    23525314.858
  22007609.489   -17800922.73049 -13855595.80747  22007609.289    22007613.611
  23401021.987    -9159397.55849  -6898369.42145  23401021.990    23401026.769
  24725327.757    -3722279.13359  -2884834.68545  24725327.042    24725331.053
  20887446.943   -22863463.99149 -17796376.30947  20887446.702    20887450.646
  24129524.125    -7917081.41249  -6143665.58645  24129523.689    24129530.536
 04  5 22  4  8 30.0000000  0  8G16G13G20G27G 3G19G 1G 8
  22638304.496   -10175137.15349  -7909271.97046  22638304.298    22638307.232
  20473557.959   -27739555.92149 -21569851.93648  20473558.241    20473560.629
  23546329.921   -11241480.53449  -8745528.69245  23546329.475    23546334.462
  21998488.135   -17848855.57449 -13892946.01547  21998487.934    21998492.273
  23390705.029    -9213613.41749  -6940615.48845  23390705.012    23390709.785
  24709362.903    -3806174.34449  -2950207.51145  24709362.275    24709366.130
  20894953.527   -22824016.70949 -17765638.16647  20894953.245    20894957.202
  24113370.197    -8001970.38649  -6209812.75445  24113369.832    24113376.617
 04  5 22  4  9  0.0000000  0  8G16G13G20G27G 3G19G 1G 8
  22653505.625   -10095254.65849  -7847025.85946  22653505.444    22653508.363
  20467314.390   -27772366.01149 -21595418.21748  20467314.673    20467317.055
  23567372.534   -11130901.07849  -8659362.91045  23567372.058    23567377.082
  21989398.409   -17896622.03049 -13930166.60047  21989398.237    21989402.608
  23380460.342    -9267448.80149  -6982565.09445  23380460.363    23380465.225
  24693403.301    -3890042.41449  -3015559.21145  24693402.563    24693406.652
  20902528.605   -22784209.30349 -17734619.40647  20902528.341    20902532.275
  24097237.543    -8086747.68949  -6275872.91445  24097237.210    24097244.021
 04  5 22  4  9 30.0000000  0  8G16G13G20G27G 3G19G 1G 8
  22668772.743   -10015025.42749  -7784509.56046  22668772.555    22668775.474
  20461137.885   -27804823.58349 -21620709.81448  20461138.179    20461140.542
  23588437.415   -11020204.43549  -8573105.78945  23588437.015    23588441.852
  21980340.124   -17944223.23249 -13967258.42547  21980339.977    21980344.333
  23370288.665    -9320901.59949  -7024216.56345  23370288.626    23370293.542
  24677449.310    -3973880.95649  -3080887.86645  24677448.548    24677452.521
  20910172.113   -22744042.40849 -17703320.52347  20910171.849    20910175.782
  24081126.053    -8171413.21949  -6341845.95145  24081125.764    24081132.647
 04  5 22  4 10  0.0000000  0  8G16G13G20G27G 3G19G 1G 8
  22684105.404    -9934451.79449  -7721724.91146  22684105.250    22684108.123
  20455028.749   -27836927.28749 -21645725.66648  20455029.038    20455031.393
  23609524.131   -10909393.06049  -8486759.29745  23609523.696    23609528.620
  21971313.345   -17991659.12349 -14004221.40347  21971313.177    21971317.532
  23360190.260    -9373969.37949  -7065568.04945  23360190.248    23360194.992
  24661501.556    -4057686.85049  -3146191.09945  24661500.958    24661504.832
  20917884.059   -22703515.75649 -17671741.30447  20917883.820    20917887.737
  24065036.029    -8255966.61249  -6407731.61545  24065035.812    24065042.610
 04  5 22  4 10 30.0000000  0  8G16G13G20G27G 3G19G 1G 8
  22699503.129    -9853536.24449  -7658673.81546  22699502.931    22699505.821
  20448987.249   -27868675.46649 -21670464.49148  20448987.541    20448989.878
  23630632.094   -10798470.13649  -8400325.85345  23630631.783    23630636.514
  21962317.968   -18038929.98749 -14041055.80547  21962317.784    21962322.132
  23350165.676    -9426649.38849  -7106617.34346  23350165.608    23350170.352
  24645560.612    -4141457.26149  -3211466.67345  24645559.934    24645563.739
  20925664.490   -22662629.28149 -17639881.71047  20925664.274    20925668.190
  24048967.327    -8340407.30249  -6473529.45745  24048967.207    24048974.023
 04  5 22  4 11  0.0000000  0  8G16G13G20G27G 3G19G 1G 8
  22714965.156    -9772282.60349  -7595359.29246  22714964.987    22714967.883
  20443013.566   -27900067.39149 -21694925.71048  20443013.846    20443016.164
  23651760.653   -10687439.21949  -8313808.26045  23651760.318    23651765.092
  21953353.761   -18086036.96749 -14077762.51447  21953353.570    21953357.925
  23340215.004    -9478939.99449  -7147363.23346  23340214.936    23340219.586
  24629626.757    -4225190.26149  -3276713.11845  24629625.936    24629629.847
  20933513.265   -22621383.81649 -17607742.38647  20933513.011    20933516.916
  24032920.003    -8424736.44349  -6539240.37845  24032919.827    24032926.607
 04  5 22  4 11 30.0000000  0  8G16G13G20G27G 3G19G 1G 8
  22730491.564    -9690690.58749  -7531781.11146  22730491.408    22730494.316
  20437108.440   -27931099.04749 -21719106.19948  20437108.724    20437111.034
  23672909.608   -10576300.65749  -8227206.83845  23672909.404    23672914.201
  21944421.240   -18132977.51649 -14114339.54447  21944421.073    21944425.401
  23330339.501    -9530835.99349  -7187801.61846  23330339.440    23330344.052
  24613701.044    -4308880.31049  -3341926.06845  24613700.190    24613704.123
  20941430.983   -22579776.14349 -17575320.82047  20941430.729    20941434.611
  24016894.503    -8508950.59649  -6604861.68645  24016894.380    24016901.101
 04  5 22  4 12  0.0000000  0  8G16G13G20G27G 3G19G 1G 8
  22746081.475    -9608764.93449  -7467942.93946  22746081.315    22746084.262
  20431271.815   -27961770.80649 -21743006.24848  20431272.095    20431274.401
  23694078.177   -10465059.39349  -8140525.31945  23694078.012    23694082.766
  21935519.977   -18179754.02249 -14150788.74447  21935519.816    21935524.114
  23320539.154    -9582337.02549  -7227932.20346  23320539.046    23320543.769
  24597783.654    -4392526.58949  -3407104.94245  24597782.850    24597786.740
  20949417.150   -22537808.63149 -17542618.85847  20949416.900    20949420.755
  24000890.492    -8593051.93449  -6670395.08845  24000890.330    24000897.042
 04  5 22  4 12 30.0000000  0  8G16G13G20G27G 3G19G 1G 8
  22761734.582    -9526507.16449  -7403845.96446  22761734.419    22761737.444
  20425504.139   -27992080.04349 -21766623.81648  20425504.428    20425506.738
  23715265.956   -10353716.97949  -8053765.02445  23715265.693    23715270.436
  21926650.076   -18226365.53949 -14187109.36447  21926649.916    21926654.191
  23310814.672    -9633439.23649  -7267752.09146  23310814.610    23310819.304
  24581875.344    -4476124.95149  -3472246.45545  24581874.533    24581878.337
  20957472.053   -22495479.78149 -17509635.33847  20957471.814    20957475.659
  23984908.161    -8677039.01249  -6735839.45845  23984908.004    23984914.678
 04  5 22  4 13  0.0000000  0  8G16G13G20G27G 3G19G 1G 8
  22777450.334    -9443920.41949  -7339492.65246  22777450.129    22777453.199
  20419805.632   -28022025.81749 -21789958.17148  20419805.933    20419808.237
  23736472.319   -10242276.87249  -7966928.60345  23736472.073    23736476.755
  21917811.449   -18272812.71449 -14223301.92147  21917811.275    21917815.554
  23301166.481    -9684140.54149  -7307259.54346  23301166.388    23301171.088
  24565976.625    -4559672.99349  -3537348.78245  24565975.829    24565979.689
  20965595.634   -22452790.08749 -17476370.64147  20965595.370    20965599.247
  23968947.595    -8760912.08449  -6801194.99645  23968947.373    23968953.970
 04  5 22  4 13 30.0000000  0  8G16G13G20G27G 3G19G 1G 8
  22793228.123    -9361007.31049  -7274885.04046  22793227.957    22793231.082
  20414176.498   -28051607.01249 -21813008.43348  20414176.800    20414179.104
  23757696.651   -10130742.22649  -7880018.52545  23757696.379    23757701.104
  21909004.009   -18319096.14849 -14259366.90947  21909003.802    21909008.112
  23291594.873    -9734438.94849  -7346453.05846  23291594.766    23291599.511
  24550088.036    -4643167.95349  -3602409.71945  24550087.249    24550091.054
  20973787.832   -22409739.84749 -17442825.00147  20973787.569    20973791.438
  23953008.638    -8844671.21049  -6866461.72745  23953008.458    23953015.115
 04  5 22  4 14  0.0000000  0  8G16G13G20G27G 3G19G 1G 8
  22809067.746    -9277769.59049  -7210024.47846  22809067.591    22809070.681
  20408617.265   -28080820.86649 -21835772.45248  20408617.568    20408619.878
  23778938.683   -10019114.70449  -7793036.05345  23778938.344    23778943.162
  21900227.780   -18365215.20749 -14295303.81447  21900227.608    21900231.883
  23282100.630    -9784330.74049  -7385329.73446  23282100.657    23282105.551
  24534210.257    -4726606.14149  -3667426.42045  24534209.500    24534213.159
  20982048.862   -22366327.85549 -17408997.48447  20982048.590    20982052.456
  23937091.718    -8928314.69649  -6931638.31345  23937091.586    23937098.134
 04  5 22  4 14 30.0000000  0  8G16G13G20G27G 3G19G 1G 8
  22824968.532    -9194210.60549  -7144913.58646  22824968.333    22824971.477
  20403128.079   -28109666.68149 -21858249.68148  20403128.388    20403130.675
  23800197.662    -9907398.18949  -7705984.22745  23800197.217    23800202.103
  21891482.730   -18411170.73149 -14331113.26347  21891482.542    21891486.806
  23272684.190    -9833814.16849  -7423888.18446  23272684.167    23272689.073
  24518343.725    -4809985.42249  -3732397.23745  24518342.905    24518346.626
  20990378.602   -22322554.82649 -17374888.63147  20990378.343    20990382.210
  23921196.688    -9011843.10649  -6996725.24245  23921196.480    23921203.124
 04  5 22  4 15  0.0000000  0  8G16G13G20G27G 3G19G 1G 8
  22840929.965    -9110332.37449  -7079553.91346  22840929.794    22840932.977
  20397709.299   -28138142.41149 -21880438.53448  20397709.610    20397711.884
  23821473.113    -9795594.86149  -7618864.80445  23821472.736    23821477.500
  21882768.798   -18456962.40049 -14366795.04847  21882768.634    21882772.873
  23263346.090    -9882886.17549  -7462126.08546  23263346.099    23263350.967
  24502489.062    -4893302.14649  -3797319.29045  24502488.240    24502491.850
  20998777.162   -22278420.24749 -17340498.04947  20998776.909    20998780.751
  23905323.594    -9095255.99649  -7061722.17245  23905323.400    23905330.045
 04  5 22  4 15 30.0000000  0  8G16G13G20G27G 3G19G 1G 8
  22856951.641    -9026137.83649  -7013947.79346  22856951.502    22856954.651
  20392361.179   -28166246.91749 -21902338.12748  20392361.502    20392363.746
  23842764.513    -9683707.75549  -7531680.04745  23842764.247    23842768.909
  21874086.034   -18502590.56549 -14402349.41747  21874085.865    21874090.089
  23254086.689    -9931544.75449  -7500041.81746  23254086.631    23254091.434
  24486646.798    -4976553.46849  -3862190.40045  24486646.028    24486649.497
  21007244.400   -22233924.34749 -17305825.92547  21007244.167    21007248.022
  23889472.658    -9178552.69049  -7126628.57445  23889472.402    23889479.067
 04  5 22  4 16  0.0000000  0  8G16G13G20G27G 3G19G 1G 8
  22873033.031    -8941629.96949  -6948097.49046  22873032.809    22873035.979
  20387083.942   -28193978.88549 -21923947.43448  20387084.245    20387086.488
  23864071.342    -9571740.00249  -7444432.45345  23864071.039    23864075.689
  21865434.247   -18548055.88949 -14437776.89847  21865434.085    21865438.272
  23244906.381    -9979787.66949  -7537633.64846  23244906.376    23244911.117
  24470817.462    -5059736.97949  -3927008.66645  24470816.676    24470820.109
  21015780.429   -22189067.34649 -17270872.42547  21015780.178    21015784.050
  23873643.639    -9261734.14049  -7191445.16245  23873643.441    23873650.038
 04  5 22  4 16 30.0000000  0  8G16G13G20G27G 3G19G 1G 8
  22889173.604    -8856810.67349  -6882004.52446  22889173.395    22889176.514
  20381877.986   -28221336.34849 -21945264.93148  20381878.309    20381880.502
  23885392.938    -9459694.04349  -7357123.94945  23885392.666    23885397.383
  21856813.508   -18593358.03149 -14473077.23647  21856813.363    21856817.526
  23235805.738   -10027612.07949  -7574899.39746  23235805.697    23235810.307
  24455001.638    -5142849.46749  -3991771.58245  24455000.925    24455004.221
  21024385.248   -22143848.66049 -17235637.09547  21024385.021    21024388.875
  23857836.799    -9344799.16649  -7256171.04945  23857836.574    23857843.120
 04  5 22  4 17  0.0000000  0  8G16G13G20G27G 3G19G 1G 8
  22905372.880    -8771682.83749  -6815671.16646  22905372.690    22905375.785
  20376743.588   -28248317.79049 -21966289.41348  20376743.894    20376746.087
  23906728.937    -9347572.79849  -7269756.75945  23906728.597    23906733.416
  21848223.771   -18638497.19249 -14508250.56947  21848223.600    21848227.785
  23226785.130   -10075015.50049  -7611837.05546  23226785.130    23226789.613
  24439199.890    -5225887.71149  -4056476.63545  24439199.185    24439202.524
  21033058.864   -22098268.48049 -17200120.07847  21033058.627    21033062.512
  23842052.225    -9427747.47149  -7320805.97845  23842051.941    23842058.465
 04  5 22  4 17 30.0000000  0  8G16G13G20G27G 3G19G 1G 8
  22921630.499    -8686248.59549  -6749099.00246  22921630.287    22921633.390
  20371681.133   -28274921.19849 -21987019.31948  20371681.438    20371683.609
  23928078.800    -9235378.64649  -7182332.75545  23928078.436    23928083.234
  21839665.058   -18683473.40249 -14543296.92247  21839664.865    21839669.077
  23217845.173   -10121995.24449  -7648444.59846  23217845.171    23217849.760
  24423412.943    -5308848.50149  -4121121.36645  24423412.154    24423415.661
  21041801.357   -22052326.35149 -17164321.01847  21041801.094    21041804.989
  23826289.997    -9510578.08549  -7385349.20845  23826289.643    23826296.178
 04  5 22  4 18  0.0000000  0  8G16G13G20G27G 3G19G 1G 8
  22937945.762    -8600511.26449  -6682290.70646  22937945.581    22937948.624
  20366690.658   -28301146.35049 -22007454.49248  20366690.953    20366693.117
  23949441.876    -9123115.24449  -7094854.77845  23949441.466    23949446.243
  21831137.173   -18728287.56549 -14578217.01547  21831136.998    21831141.224
  23208986.116   -10168549.47449  -7684720.60346  23208986.162    23208990.764
  24407641.115    -5391729.64449  -4185704.03445  24407640.382    24407643.757
  21050612.590   -22006023.07349 -17128240.54247  21050612.344    21050616.235
  23810549.980    -9593292.36349  -7449801.79345  23810549.540    23810556.099
 04  5 22  4 18 30.0000000  0  8G16G13G20G27G 3G19G 1G 8
  22954318.553    -8514471.62449  -6615246.81046  22954318.406    22954321.434
  20361772.891   -28326989.40649 -22027591.92748  20361773.178    20361775.341
  23970817.918    -9010783.39949  -7007323.51345  23970817.509    23970822.227
  21822640.447   -18772938.04649 -14613009.56447  21822640.261    21822644.467
  23200208.889   -10214673.97849  -7720661.73046  23200208.930    23200213.569
  24391885.409    -5474526.19849  -4250220.75645  24391884.649    24391888.097
  21059492.898   -21959356.62449 -17091877.08247  21059492.657    21059496.565
  23794832.575    -9675887.66449  -7514161.69545  23794832.151    23794838.544
 04  5 22  4 19  0.0000000  0  8G16G13G20G27G 3G19G 1G 8
  22970747.968    -8428134.35649  -6547971.02646  22970747.832    22970750.856
  20356927.672   -28352451.08349 -22047432.18148  20356927.972    20356930.122
  23992206.035    -8898387.96549  -6919742.67345  23992205.672    23992210.616
  21814174.484   -18817426.82849 -14647676.10047  21814174.281    21814178.470
  23191513.363   -10260368.49149  -7756267.81646  23191513.509    23191518.090
  24376146.032    -5557237.14549  -4314670.76445  24376145.216    24376148.651
  21068441.947   -21912329.03949 -17055232.21647  21068441.721    21068445.658
  23779137.439    -9758365.76649  -7578430.25145  23779137.056    23779143.390
 04  5 22  4 19 30.0000000  0  8G16G13G20G27G 3G19G 1G 8
  22987233.879    -8341500.48249  -6480464.10446  22987233.720    22987236.721
  20352155.570   -28377528.57449 -22066973.06548  20352155.856    20352158.019
  24013606.048    -8785930.45649  -6832113.46045  24013605.676    24013610.545
  21805739.490   -18861752.79449 -14682215.76647  21805739.301    21805743.465
  23182900.520   -10305629.27649  -7791535.88246  23182900.574    23182905.236
  24360423.705    -5639858.29449  -4379050.82445  24360422.960    24360426.281
  21077460.006   -21864938.96649 -17018304.88447  21077459.778    21077463.700
  23763464.934    -9840724.98149  -7642606.18745  23763464.536    23763470.832
 04  5 22  4 20  0.0000000  0  8G16G13G20G27G 3G19G 1G 8
  23003775.403    -8254574.19949  -6412729.34046  23003775.217    23003778.231
  20347456.538   -28402222.06249 -22086214.73348  20347456.829    20347458.993
  24035016.986    -8673414.95149  -6744439.06045  24035016.714    24035021.609
  21797335.158   -18905917.66349 -14716629.90247  21797334.979    21797339.122
  23174370.423   -10350455.14549  -7826465.10046  23174370.437    23174375.064
  24344718.839    -5722388.01649  -4443359.63345  24344718.072    24344721.209
  21086546.701   -21817188.00249 -16981096.34847  21086546.488    21086550.413
  23747814.736    -9922966.82849  -7706690.66545  23747814.370    23747820.619
 04  5 22  4 20 30.0000000  0  8G16G13G20G27G 3G19G 1G 8
  23020372.304    -8167356.88849  -6344767.78646  23020372.138    23020375.097
  20342831.156   -28426528.54149 -22105154.83448  20342831.441    20342833.586
  24056438.640    -8560843.22649  -6656720.85645  24056438.464    24056443.240
  21788961.647   -18949920.68449 -14750917.95047  21788961.466    21788965.586
  23165923.786   -10394842.88849  -7861052.89046  23165923.715    23165928.387
  24329032.165    -5804822.06249  -4507593.90445  24329031.403    24329034.469
  21095702.338   -21769074.98349 -16943605.68847  21095702.089    21095705.999
  23732187.231   -10005089.29749  -7770682.12445  23732186.888    23732193.185
 04  5 22  4 21  0.0000000  0  8G16G13G20G27G 3G19G 1G 8
  23037024.061    -8079851.07549  -6276581.44746  23037023.840    23037026.867
  20338279.692   -28450446.56549 -22123792.23748  20338279.992    20338282.115
  24077870.466    -8448218.16449  -6568961.08045  24077870.148    24077875.156
  21780618.897   -18993761.94549 -14785079.95147  21780618.731    21780622.836
  23157560.844   -10438790.21649  -7895297.51146  23157560.775    23157565.428
  24313364.145    -5887157.77349  -4571751.53245  24313363.319    24313366.473
  21104926.826   -21720600.06549 -16905833.02447  21104926.573    21104930.480
  23716582.477   -10087092.44249  -7834580.61545  23716582.162    23716588.398
 04  5 22  4 21 30.0000000  0  8G16G13G20G27G 3G19G 1G 8
  23053730.222    -7992059.76649  -6208172.60646  23053729.975    23053733.003
  20333802.392   -28473975.04749 -22142126.10748  20333802.691    20333804.811
  24099311.876    -8335542.66849  -6481162.02845  24099311.524    24099316.564
  21772306.868   -19037441.76049 -14819116.13047  21772306.706    21772310.777
  23149282.169   -10482295.07549  -7929197.35446  23149282.137    23149286.647
  24297715.301    -5969392.14249  -4635830.17645  24297714.513    24297717.772
  21114220.122   -21671763.44749 -16867778.52447  21114219.860    21114223.792
  23701000.494   -10168976.33449  -7898386.17245  23701000.129    23701006.373
 04  5 22  4 22  0.0000000  0  8G16G13G20G27G 3G19G 1G 8
  23070490.244    -7903985.13849  -6139543.05046  23070489.991    23070493.052
  20329399.540   -28497112.06749 -22160154.93048  20329399.829    20329401.950
  24120762.483    -8222819.12249  -6393325.52145  24120762.155    24120767.273
  21764025.576   -19080960.04549 -14853026.44347  21764025.429    21764029.505
  23141088.013   -10525354.78749  -7962750.28646  23141088.061    23141092.624
  24282086.492    -6051521.89349  -4699827.30445  24282085.702    24282088.978
  21123582.279   -21622564.82549 -16829441.92947  21123582.028    21123585.972
  23685441.325   -10250740.42249  -7962098.36446  23685440.940    23685447.140
 04  5 22  4 22 30.0000000  0  9G16G13G20G31G27G 3G19G 1G 8
  23087303.743    -7815629.59449  -6070694.56646  23087303.572    23087306.523
  20325071.483   -28519856.02249 -22177877.48348  20325071.786    20325073.894
  24142221.671    -8110050.28449  -6305453.72445  24142221.388    24142226.370
  24635359.548    -5197871.08059  -4016385.65345  24635359.026    24635365.272
  21755775.053   -19124316.62649 -14886810.74847  21755774.911    21755778.994
  23132979.185   -10567966.91149  -7995954.51246  23132979.242    23132983.790
  24266478.078    -6133543.99449  -4763740.55545  24266477.368    24266480.532
  21133013.374   -21573003.91249 -16790823.04647  21133013.129    21133017.081
  23669904.989   -10332384.11649  -8025716.74046  23669904.646    23669910.755
 04  5 22  4 23  0.0000000  0  9G16G13G20G31G27G 3G19G 1G 8
  23104170.183    -7726995.77149  -6001629.26546  23104169.976    23104172.968
  20320818.567   -28542205.26549 -22195292.45748  20320818.870    20320820.967
  24163689.001    -7997238.90449  -6217548.75445  24163688.745    24163693.666
  24616103.092    -5299063.88449  -4095237.04445  24616102.557    24616108.684
  21747555.265   -19167511.82449 -14920469.29047  21747555.101    21747559.198
  23124955.885   -10610129.15849  -8028808.18046  23124956.045    23124960.528
  24250890.840    -6215455.36249  -4827567.51545  24250890.129    24250893.353
  21142513.401   -21523081.04149 -16751922.10747  21142513.163    21142517.102
  23654391.639   -10413906.90749  -8089240.90746  23654391.266    23654397.392
 04  5 22  4 23 30.0000000  0  9G16G13G20G31G27G 3G19G 1G 8
  23121089.053    -7638086.36649  -5932349.20546  23121088.873    23121091.855
  20316640.901   -28564159.00649 -22212399.24948  20316641.202    20316643.276
  24185163.972    -7884387.60249  -6129612.68545  24185163.629    24185168.589
  24596835.913    -5400313.21749  -4174132.51545  24596835.415    24596841.420
  21739366.096   -19210545.98449 -14954002.36847  21739365.930    21739370.032
  23117018.541   -10651839.46949  -8061309.69046  23117018.759    23117023.189
  24235325.102    -6297253.31549  -4891306.12645  24235324.444    24235327.684
  21152082.290   -21472796.34949 -16712739.23447  21152082.028    21152085.974
  23638901.215   -10495308.98749  -8152671.01246  23638900.899    23638907.047
 04  5 22  4 24  0.0000000  0  9G16G13G20G31G27G 3G19G 1G 8
  23138059.949    -7548904.20949  -5862856.59946  23138059.704    23138062.687
  20312538.769   -28585715.80249 -22229196.73348  20312539.052    20312541.125
  24206645.847    -7771499.67449  -6041648.05345  24206645.567    24206650.488
  24577558.466    -5501616.54449  -4253070.08645  24577558.021    24577563.966
  21731207.521   -19253419.43449 -14987410.22747  21731207.358    21731211.445
  23109167.613   -10693095.59449  -8093457.26546  23109167.865    23109172.451
  24219781.605    -6378934.69549  -4954953.89045  24219780.984    24219784.119
  21161719.914   -21422150.19249 -16673274.69947  21161719.686    21161723.596
  23623433.805   -10576590.47249  -8216007.14746  23623433.457    23623439.651
 04  5 22  4 24 30.0000000  0  9G16G13G20G31G27G 3G19G 1G 8
  23155082.114    -7459451.87949  -5793153.50446  23155081.880    23155084.950
  20308512.444   -28606874.17449 -22245683.75848  20308512.739    20308514.808
  24228134.176    -7658577.80449  -5953657.00145  24228133.911    24228138.775
  24558271.211    -5602970.92349  -4332047.42545  24558270.813    24558276.666
  21723079.499   -19296132.41949 -15020693.02847  21723079.345    21723083.402
  23101403.648   -10733895.51349  -8125249.33346  23101403.842    23101408.393
  24204260.846    -6460496.69549  -5018508.63345  24204260.140    24204263.303
  21171426.314   -21371142.82249 -16633528.69847  21171426.077    21171430.008
  23607989.466   -10657750.85549  -8279248.91046  23607989.120    23607995.295
